[[{"header":{"parameterUnit":"m.s-1","parameterCategory":1,"la1":30.6,"la2":29.2853,"lo1":-89.7004,"lo2":-87.6739,"dy":0.0162,"dx":0.0183,"nx":112,"ny":82,"refTime":"2023-11-04T00:00:00:Z","depth":0,"parameterNumber":2,"parameterNumberName":"U-component_of_WINDS"},"data":[0.0,0.0,0.0,0.0,0.0,0.0,0.0,0.0,0.0,0.0,0.0,0.0,0.0,0.0,0.0,0.0,0.0,0.0,0.0,0.0,0.0,0.0,0.0,0.0,0.0,0.0,0.0,0.0,0.0,0.0,0.0,0.0,0.0,0.0,0.0,0.0,0.0,0.0,0.0,0.0,0.0,0.0,0.0,0.0,0.0,0.0,0.0,0.0,0.0,0.0,0.0,0.0,0.0,0.0,0.0,0.0,0.0,0.0,0.0,0.0,0.0,0.0,0.0,0.0,0.0,0.0,0.0,0.0,0.0,0.0,0.0,0.0,0.0,0.0,0.0,0.0,0.0,0.0,0.0,0.0,0.0,0.0,0.0,0.0,0.0,0.0,0.0,0.0,0.0,0.0,1.3508,1.3786,1.4884,1.4892,1.3098,1.1479,0.987,0.8191,0.0,0.0,0.0,0.0,0.0,0.0,0.0,0.0,0.0,0.0,0.0,0.0,0.0,0.0,0.0,0.0,0.0,0.0,0.0,0.0,0.0,0.0,0.0,0.0,0.0,0.0,0.0,0.0,0.0,0.0,0.0,0.0,0.0,0.0,0.0,0.0,0.0,0.0,0.0,0.0,0.0,0.0,0.0,0.0,0.0,0.0,0.0,0.0,0.0,0.0,0.0,0.0,0.0,0.0,0.0,0.0,0.0,0.0,0.0,0.0,0.0,0.0,0.0,0.0,0.0,0.0,0.0,0.0,0.0,0.0,0.0,0.0,0.0,0.0,0.0,0.0,0.0,0.0,0.0,0.0,0.0,0.0,0.0,0.0,0.0,0.0,0.0,0.0,0.0,0.0,0.0,0.0,0.0,0.0,0.0,0.0,0.0,0.0,0.0,0.0,0.0,0.0,0.0,0.0,1.2252,1.381,1.4479,1.4111,1.2399,1.0338,0.8821,0.8129,0.0,0.0,0.0,0.0,0.0,0.0,0.0,0.0,0.0,0.0,0.0,0.0,0.0,0.0,0.0,0.0,0.0,0.0,0.0,0.0,0.0,0.0,0.0,0.0,0.0,0.0,0.0,0.0,0.0,0.0,0.0,0.0,0.0,0.0,0.0,0.0,0.0,0.0,0.0,0.0,0.0,0.0,0.0,0.0,0.0,0.0,0.0,0.0,0.0,0.0,0.0,0.0,0.0,0.0,0.0,0.0,0.0,0.0,0.0,0.0,0.0,0.0,0.0,0.0,0.0,0.0,0.0,0.0,0.0,0.0,0.0,0.0,0.0,0.0,0.0,0.0,0.0,0.0,0.0,0.0,0.0,0.0,0.0,0.0,0.0,0.0,0.0,0.0,0.0,0.0,0.0,0.0,0.0,0.0,0.0,0.0,0.0,0.0,0.0,0.0,0.0,0.0,0.0,1.2714,1.3242,1.4486,1.4198,1.3402,1.2114,0.9746,0.8348,0.8415,0.7548,0.0,0.0,0.0,0.0,0.0,0.0,0.0,0.0,0.0,0.0,0.0,0.0,0.0,0.0,0.0,0.0,0.0,0.0,0.0,0.0,0.0,0.0,0.0,0.0,0.0,0.0,0.0,0.0,0.0,0.0,0.0,0.0,0.0,0.0,0.0,0.0,0.0,0.0,0.0,0.0,0.0,0.0,0.0,0.0,0.0,0.0,0.0,0.0,0.0,0.0,0.0,0.0,0.0,0.0,0.0,0.0,0.0,0.0,0.0,0.0,0.0,0.0,0.0,0.0,0.0,0.0,0.0,0.0,0.0,0.0,0.0,0.0,0.0,0.0,0.0,0.0,0.0,0.0,0.0,0.0,0.0,0.0,0.0,0.0,0.0,0.0,0.0,0.0,0.0,0.0,0.0,0.0,0.0,0.0,0.0,0.0,0.0,0.0,0.0,0.0,0.0,0.0,1.4111,1.3995,1.4766,1.3833,1.2701,1.1498,0.9162,0.7939,0.8414,0.7111,0.0,0.0,0.0,0.0,0.0,0.0,0.0,0.0,0.0,0.0,0.0,0.0,0.0,0.0,0.0,0.0,0.0,0.0,0.0,0.0,0.0,0.0,0.0,0.0,0.0,0.0,0.0,0.0,0.0,0.0,0.0,0.0,0.0,0.0,0.0,0.0,0.0,0.0,0.0,0.0,0.0,0.0,0.0,0.0,0.0,0.0,0.0,0.0,0.0,0.0,0.0,0.0,0.0,0.0,0.0,0.0,0.0,0.0,0.0,0.0,0.0,0.0,0.0,0.0,0.0,0.0,0.0,0.0,0.0,0.0,0.0,0.0,0.0,0.0,0.0,0.0,0.0,0.0,0.0,0.0,0.0,0.0,0.0,0.0,0.0,0.0,0.0,0.0,0.0,0.0,0.0,0.0,0.0,0.0,0.0,0.0,0.0,0.0,0.0,0.0,0.0,0.0,1.3227,1.31,1.3985,1.3191,1.1851,1.0094,0.831,0.7365,0.7671,0.6947,0.0,0.0,0.0,0.0,0.0,0.0,0.0,0.0,0.0,0.0,0.0,0.0,0.0,0.0,0.0,0.0,0.0,0.0,0.0,0.0,0.0,0.0,0.0,0.0,0.0,0.0,0.0,0.0,0.0,0.0,0.0,0.0,0.0,0.0,0.0,0.0,0.0,0.0,0.0,0.0,0.0,0.0,0.0,0.0,0.0,0.0,0.0,0.0,0.0,0.0,0.0,0.0,0.0,0.0,0.0,0.0,0.0,0.0,0.0,0.0,0.0,0.0,0.0,0.0,0.0,0.0,0.0,0.0,0.0,0.0,0.0,0.0,0.0,0.0,0.0,0.0,0.0,0.0,0.0,0.0,0.0,0.0,0.0,0.0,0.0,0.0,0.0,0.0,0.0,0.0,0.0,0.0,0.0,0.0,0.0,0.0,0.0,0.0,0.0,0.0,0.0,0.0,1.2846,1.2885,0.0,1.2347,1.1234,0.9923,0.8234,0.7452,0.7875,0.0,0.0,0.0,0.0,0.0,0.0,0.0,0.0,0.0,0.0,0.0,0.0,0.0,0.0,0.0,0.0,0.0,0.0,0.0,0.0,0.0,0.0,0.0,0.0,0.0,0.0,0.0,0.0,0.0,0.0,0.0,0.0,0.0,0.0,0.0,0.0,0.0,0.0,0.0,0.0,0.0,0.0,0.0,0.0,0.0,0.0,0.0,0.0,0.0,0.0,0.0,0.0,0.0,0.0,0.0,0.0,0.0,0.0,0.0,0.0,0.0,0.0,0.0,0.0,0.0,0.0,0.0,0.0,0.0,0.0,0.0,0.0,0.0,0.0,0.0,0.0,0.0,0.0,0.0,0.0,0.0,0.0,0.0,0.0,0.0,0.0,0.0,0.0,0.0,0.0,0.0,0.0,0.0,0.0,0.0,0.0,0.0,0.0,0.0,0.0,0.0,0.0,1.2916,1.2574,1.2404,0.0,1.1518,1.0426,0.9172,0.7768,0.7192,0.7745,0.0,0.0,0.0,0.0,0.0,0.0,0.0,0.0,0.0,0.0,0.0,0.0,0.0,0.0,0.0,0.0,0.0,0.0,0.0,0.0,0.0,0.0,0.0,0.0,0.0,0.0,0.0,0.0,0.0,0.0,0.0,0.0,0.0,0.0,0.0,0.0,0.0,0.0,0.0,0.0,0.0,0.0,0.0,0.0,0.0,0.0,0.0,0.0,0.0,0.0,0.0,0.0,0.0,0.0,0.0,0.0,0.0,0.0,0.0,0.0,0.0,0.0,0.0,0.0,0.0,0.0,0.0,0.0,0.0,0.0,0.0,0.0,0.0,0.0,0.0,0.0,0.0,0.0,0.0,0.0,0.0,0.0,0.0,0.0,0.0,0.0,0.0,0.0,0.0,0.0,0.0,0.0,0.0,0.0,0.0,0.0,0.0,0.0,0.0,0.0,0.0,0.0,1.3577,1.241,1.1507,1.147,1.0668,0.9372,0.7645,0.6702,0.6454,0.0,0.0,0.0,0.0,0.0,0.0,0.0,0.0,0.0,0.0,0.0,0.0,0.0,0.0,0.0,0.0,0.0,0.0,0.0,0.0,0.0,0.0,0.0,0.0,0.0,0.0,0.0,0.0,0.0,0.0,0.0,0.0,0.0,0.0,0.0,0.0,0.0,0.0,0.0,0.0,0.0,0.0,0.0,0.0,0.0,0.0,0.0,0.0,0.0,0.0,0.0,0.0,0.0,0.0,0.0,0.0,0.0,0.0,0.0,0.0,0.0,0.0,0.0,0.0,0.0,0.0,0.0,0.0,0.0,0.0,0.0,0.0,0.0,0.0,0.0,0.0,0.0,0.0,0.0,0.0,0.0,0.0,0.0,0.0,0.0,0.0,0.0,0.0,0.0,0.0,0.0,0.0,0.0,0.0,0.0,0.0,0.0,0.0,0.0,0.0,0.0,0.0,0.0,1.2738,1.151,1.0564,1.056,0.9771,0.8803,0.7685,0.6754,0.6594,0.7336,0.0,0.0,0.0,0.0,0.0,0.0,0.0,0.0,0.0,0.0,0.0,0.0,0.0,0.0,0.0,0.0,0.0,0.0,0.0,0.0,0.0,0.0,0.0,0.0,0.0,0.0,0.0,0.0,0.0,0.0,0.0,0.0,0.0,0.0,0.0,0.0,0.0,0.0,0.0,0.0,0.0,0.0,0.0,0.0,0.0,0.0,0.0,0.0,0.0,0.0,0.0,0.0,0.0,0.0,0.0,0.0,0.0,0.0,0.0,0.0,0.0,0.0,0.0,0.0,0.0,0.0,0.0,0.0,0.0,0.0,0.0,0.0,0.0,0.0,0.0,0.0,0.0,0.0,0.0,0.0,0.0,0.0,0.0,0.0,0.0,0.0,0.0,0.0,0.0,0.0,0.0,0.0,0.0,0.0,0.0,0.0,0.0,0.0,0.0,0.0,0.0,0.0,1.2458,1.1158,1.021,1.0206,0.9421,0.8691,0.8159,0.7004,0.6631,0.7449,0.0,0.0,0.0,0.0,0.0,0.0,0.0,0.0,0.0,0.0,0.0,0.0,0.0,0.0,0.0,0.0,0.0,0.0,0.0,0.0,0.0,0.0,0.0,0.0,0.0,0.0,0.0,0.0,0.0,0.0,0.0,0.0,0.0,0.0,0.0,0.0,0.0,0.0,0.0,0.0,0.0,0.0,0.0,0.0,0.0,0.0,0.0,0.0,0.0,0.0,0.0,0.0,0.0,0.0,0.0,0.0,0.0,0.0,0.0,0.0,0.0,0.0,0.0,0.0,0.0,0.0,0.0,0.0,0.0,0.0,0.0,0.0,0.0,0.0,0.0,0.0,0.0,0.0,0.0,0.0,0.0,0.0,0.0,0.0,0.0,0.0,0.0,0.0,0.0,0.0,0.0,0.0,0.0,0.0,0.0,0.0,0.0,0.0,0.0,0.0,0.0,0.0,1.2579,1.1197,1.021,1.0206,0.9421,0.8879,0.8879,0.7309,0.6634,0.7456,0.0,0.0,0.0,0.0,0.0,0.0,0.0,0.0,0.0,0.0,0.0,0.0,0.0,0.0,0.0,0.0,0.0,0.0,0.0,0.0,0.0,0.0,0.0,0.0,0.0,0.0,0.0,0.0,0.0,0.0,0.0,0.0,0.0,0.0,0.0,0.0,0.0,0.0,0.0,0.0,0.0,0.0,0.0,0.0,0.0,0.0,0.0,0.0,0.0,0.0,0.0,0.0,0.0,0.0,0.0,0.0,0.0,0.0,0.0,0.0,0.9742,0.0,0.0,0.0,0.0,0.0,0.0,0.0,0.0,0.0,0.0,0.0,0.0,0.0,0.0,0.0,0.0,0.0,0.0,0.0,0.0,0.0,0.0,0.0,0.0,0.0,0.0,0.0,0.0,0.0,0.0,0.0,0.0,0.0,0.0,0.0,0.0,0.0,0.0,0.0,0.0,0.0,1.2597,1.1197,1.021,1.0206,0.9421,0.8879,0.8879,0.7309,0.6683,0.7537,0.6937,0.0,0.0,0.0,0.0,0.0,0.0,0.0,0.0,0.0,0.0,0.0,0.0,0.0,0.0,0.0,0.0,0.0,0.0,0.0,0.0,0.0,0.0,0.0,0.0,0.0,0.0,0.0,0.0,0.0,0.0,0.0,0.0,0.0,0.0,0.0,0.0,0.0,0.0,0.0,0.0,0.0,0.0,0.0,0.0,0.0,0.0,0.0,0.0,0.0,0.0,0.0,0.0,0.0,0.0,0.0,0.0,0.0,0.0,0.0,0.0,0.9839,0.0,0.0,0.0,0.0,0.0,0.0,0.0,0.0,0.0,0.0,0.0,0.0,0.0,0.0,0.0,0.0,0.0,0.0,0.0,0.0,0.0,0.0,0.0,0.0,0.0,0.0,0.0,0.0,0.0,0.0,0.0,0.0,0.0,0.0,0.0,0.0,0.0,0.0,0.0,0.0,1.2657,1.121,1.021,1.0206,0.9767,0.946,0.946,0.8306,0.7575,0.7605,0.7182,0.0,0.0,0.0,0.0,0.0,0.0,0.0,0.0,0.0,0.0,0.0,0.0,0.0,0.0,0.0,0.0,0.0,0.0,0.0,0.0,0.0,0.0,0.0,0.0,0.0,0.0,0.0,0.0,0.0,0.0,0.0,0.0,0.0,0.0,0.0,0.0,0.0,0.0,0.0,0.0,0.0,0.0,0.0,0.0,0.0,0.0,0.0,0.0,0.0,0.0,0.0,0.0,0.0,1.0342,1.0502,1.0152,1.0266,0.9829,0.9054,0.9276,0.9769,1.0435,1.1502,0.0,0.0,0.0,0.0,0.0,0.0,0.0,0.0,0.0,0.0,0.0,0.0,0.0,0.0,0.0,0.0,0.0,0.0,0.0,0.0,0.0,0.0,1.4167,1.4013,1.3926,1.3728,1.3123,0.0,0.0,0.0,0.0,0.0,0.0,0.0,0.0,0.0,0.0,0.0,1.2487,1.1161,1.0197,1.0202,1.0152,1.0113,1.0113,0.9383,0.8575,0.7886,0.7563,0.7191,0.0,0.0,0.0,0.0,0.0,0.0,0.0,0.0,0.0,0.0,0.0,0.0,0.0,0.0,0.0,0.0,0.0,0.0,0.0,0.0,0.0,0.0,0.0,0.0,0.0,0.0,0.0,0.0,0.0,0.0,0.0,0.0,0.6665,0.8035,0.0,0.0,0.0,0.0,0.0,0.0,0.0,0.0,0.0,0.0,0.0,0.0,0.0,1.2788,1.1386,1.2798,1.2377,1.014,1.1187,1.0697,0.8894,1.0159,1.001,0.8751,0.8915,0.0,0.9443,1.047,0.0,0.0,0.0,0.0,0.0,0.0,0.0,0.0,0.0,0.0,0.0,0.0,0.0,0.0,0.0,0.0,0.0,0.0,0.0,0.0,0.0,0.0,1.4849,1.4074,1.392,1.3876,1.3767,1.3894,1.3996,1.3936,1.3423,1.3281,0.0,0.0,0.0,0.0,0.0,0.0,1.175,1.0789,1.021,1.0194,1.0152,1.0113,1.0113,0.9383,0.8834,0.8735,0.7362,0.7169,0.8514,0.7383,0.0,0.0,0.0,0.0,0.0,0.0,0.0,0.0,0.0,0.0,0.0,0.0,0.0,0.0,0.0,0.0,0.0,0.0,0.0,0.0,0.0,0.0,0.0,0.0,0.0,0.0,0.0,0.0,0.0,0.5491,0.7282,0.8012,1.0079,1.163,0.0,0.0,0.0,0.0,0.0,0.0,0.0,0.0,0.0,1.259,1.2249,1.1626,1.0557,1.0813,1.0273,0.8962,0.9683,0.9666,0.8962,0.9369,0.9419,0.9127,0.8755,0.874,0.8966,0.9614,1.0575,1.1724,0.0,0.0,0.0,0.0,1.3268,1.3436,1.2161,1.2015,1.2346,1.2216,0.0,0.0,0.0,0.0,0.0,0.0,0.0,1.4411,1.3615,1.4577,1.5457,1.4211,1.4565,1.5075,1.4716,1.4283,1.3807,1.3319,1.3299,1.3522,1.3915,1.3589,0.0,0.0,0.0,1.1873,1.1483,1.072,1.0194,1.0156,1.0113,1.0113,1.0113,0.9767,0.9191,0.8229,0.7485,0.6981,0.6784,0.6981,0.7968,0.0,0.0,0.0,0.0,0.0,0.0,0.0,0.0,0.0,0.0,0.0,0.0,0.0,0.0,0.0,0.0,0.0,0.0,0.0,0.0,0.0,0.0,0.0,0.0,0.0,0.0,0.0,0.0,0.5293,0.7063,0.7522,0.9665,1.1218,0.0,0.0,0.0,0.0,0.0,0.0,1.3103,1.2655,1.2181,1.1761,1.1011,1.0145,0.9075,0.8927,0.8506,0.7803,0.8447,0.8742,0.8685,0.8794,0.8941,0.903,0.8743,0.8599,0.8655,0.8953,0.9627,1.0552,1.1559,1.2201,1.2534,1.2665,1.3068,1.3327,1.1851,1.1756,1.2121,1.1431,1.1376,1.1737,1.2472,0.0,0.0,0.0,0.0,1.426,1.403,1.5061,1.5925,1.4724,1.5323,1.6054,1.5534,1.4744,1.3946,1.3151,1.3156,1.3349,1.3605,1.2978,0.0,0.0,0.0,1.1359,1.1133,1.0563,1.0156,1.0113,1.0113,1.0113,1.0113,0.9921,0.9275,0.8019,0.7541,0.6826,0.5796,0.6599,0.7341,0.7941,0.0,0.0,0.0,0.0,0.0,0.0,0.0,0.0,0.0,0.0,0.0,0.0,0.0,0.0,0.0,0.0,0.0,0.0,0.0,0.0,0.0,0.0,0.0,0.0,0.0,0.0,0.0,0.0,0.0,0.64,0.8599,0.0,0.0,0.0,0.0,1.2186,1.217,1.2107,1.21,1.1213,1.0222,0.9124,0.928,0.8813,0.7606,0.8904,0.8779,0.7256,0.8546,0.8512,0.7342,0.8853,0.8949,0.793,0.8795,0.8869,0.8443,0.8722,0.9417,1.0401,1.1276,1.2218,1.3032,1.2986,1.3123,1.3175,1.2342,1.2094,1.2083,1.2038,1.2692,1.3477,1.353,1.4308,0.0,0.0,1.4563,1.5024,1.4061,1.5064,1.6222,1.6024,1.6035,1.6111,1.6082,1.5421,1.463,1.3963,1.2574,1.1789,1.2637,0.0,1.1592,1.1625,1.1551,1.12,1.0364,1.016,1.0113,1.0113,1.0113,1.0113,1.0113,0.9383,0.8925,0.8819,0.7359,0.6792,0.7539,0.6055,0.6406,0.8867,0.8158,0.0,0.0,0.0,0.0,0.0,0.0,0.0,0.0,0.0,0.0,0.0,0.0,0.0,0.0,0.0,0.0,0.0,0.0,0.0,0.0,0.0,0.0,0.0,0.0,0.0,0.0,0.0,0.0,0.7488,0.8847,0.0,0.9667,0.9582,0.9905,1.0852,1.0033,0.9671,1.0058,0.9345,0.8938,0.8905,0.8405,0.7888,0.731,0.7506,0.7176,0.6384,0.7506,0.7617,0.6854,0.7948,0.8077,0.7446,0.7768,0.787,0.784,0.8075,0.8567,0.9247,0.963,1.0453,1.1368,1.1477,1.2274,1.3162,1.2367,1.2423,1.2777,1.2253,1.2368,1.2697,1.2721,1.3011,1.3436,1.3633,1.3956,1.4251,1.4471,1.5272,1.5903,1.5432,1.5677,1.5853,1.5423,1.5093,1.4846,1.4578,1.3684,1.3064,1.3397,1.282,1.2276,1.2285,1.1789,1.113,1.0233,1.0113,1.0113,1.0113,1.0113,1.0113,1.0113,0.9383,0.8656,0.8088,0.7032,0.6297,0.6048,0.5429,0.5547,0.6484,0.6154,0.742,0.0,0.0,0.0,0.0,0.0,0.0,0.0,0.0,0.0,0.0,0.0,0.0,0.0,0.0,0.0,0.0,0.0,0.0,0.0,0.0,0.0,0.0,0.0,0.0,0.0,0.0,0.6368,0.7673,0.8457,0.8916,0.9018,0.8388,0.8282,0.9004,0.806,0.7666,0.8202,0.759,0.7374,0.7732,0.7094,0.6662,0.6505,0.6188,0.5934,0.5781,0.6445,0.6666,0.6493,0.7006,0.7214,0.7083,0.7087,0.7219,0.7424,0.7542,0.7867,0.8335,0.9171,1.0005,1.0829,1.1526,1.2597,1.3616,1.3027,1.2608,1.2405,1.2637,1.2439,1.2168,1.2742,1.2994,1.3225,1.3873,1.4054,1.4167,1.4691,1.5149,1.5386,1.4877,1.5115,1.5306,1.4926,1.4813,1.4804,1.4886,1.4304,1.3691,1.3424,1.2769,1.2329,1.2631,1.1671,1.0946,1.0964,1.0464,1.0113,1.0113,1.0113,1.0113,1.0113,0.9625,0.8977,0.8088,0.754,0.6988,0.6457,0.6403,0.6562,0.6836,0.6276,0.7114,0.941,0.0,0.0,0.0,0.0,0.0,0.0,0.0,0.0,0.0,0.0,0.0,0.0,0.0,0.0,0.0,0.0,0.0,0.0,0.0,0.0,0.0,0.0,0.0,0.2125,0.4481,0.612,0.6771,0.7233,0.731,0.6825,0.6435,0.6396,0.6739,0.6386,0.628,0.6607,0.5999,0.5574,0.5439,0.5325,0.5176,0.5059,0.5059,0.5195,0.545,0.5489,0.5729,0.6163,0.6181,0.6433,0.6868,0.6868,0.6989,0.717,0.717,0.7343,0.7797,0.9953,1.1006,1.1539,1.3159,1.4075,1.4414,1.4245,1.2597,1.0986,1.3167,1.2975,1.2189,1.3856,1.4476,1.4618,1.481,1.4897,1.4887,1.4736,1.4716,1.4674,1.4522,1.4476,1.4522,1.4637,1.4552,1.4567,1.4832,1.4281,1.3529,1.2624,1.1857,1.1648,1.2488,1.1141,0.0,1.2382,1.1152,1.0109,1.0186,1.0186,1.019,1.019,1.0224,0.9845,0.8938,0.888,0.8907,0.8935,0.8938,0.9336,1.0156,0.8555,0.7729,0.7685,0.0,0.0,0.0,0.0,0.0,0.0,0.0,0.0,0.0,0.0,0.0,0.0,0.0,0.0,0.0,0.0,0.0,0.0,0.0,0.0,0.0,0.0,-0.1117,0.0936,0.3465,0.5206,0.5472,0.5805,0.5969,0.586,0.5561,0.5495,0.5821,0.5249,0.4941,0.5037,0.4437,0.4123,0.4201,0.4072,0.3973,0.3952,0.4128,0.4268,0.4346,0.4939,0.5291,0.5401,0.5807,0.6064,0.6181,0.6333,0.6433,0.651,0.6851,0.7022,0.7202,0.8229,0.923,1.0089,1.0714,1.1872,1.3195,1.3566,1.3369,1.3079,1.3717,1.3633,1.3413,1.3875,1.4159,1.4306,1.4393,1.4928,1.5355,1.4703,1.4891,1.5049,1.444,1.4193,1.4078,1.4131,1.4092,1.4092,1.4147,1.4077,1.4046,1.4182,1.3509,1.2856,1.2501,1.156,0.0,1.0673,1.0245,1.0456,1.1697,1.1856,1.1877,1.1964,1.1434,1.0448,0.9007,0.8324,0.7961,0.7979,0.7987,0.7839,0.7461,0.8242,0.832,0.0,0.0,0.0,0.0,0.0,0.0,0.0,0.0,0.0,0.0,0.0,0.0,0.0,0.0,0.0,0.0,0.0,0.0,0.0,0.0,0.0,0.0,-0.2812,-0.1229,-0.0064,0.2017,0.3497,0.372,0.3943,0.3997,0.385,0.393,0.3894,0.369,0.3456,0.3205,0.294,0.2888,0.2738,0.2454,0.3015,0.3113,0.267,0.3211,0.3567,0.3745,0.4199,0.4589,0.4943,0.5262,0.5538,0.5749,0.5844,0.5982,0.6081,0.6374,0.6527,0.6715,0.0,0.0,0.0,0.0,1.1307,1.1853,1.29,1.2901,1.2547,1.3294,1.3328,1.3158,1.3632,1.3853,1.3971,1.4038,1.45,1.4846,1.4353,1.4517,1.4665,1.4186,1.3983,1.3998,1.4375,1.4403,1.4373,1.4446,1.4467,0.0,1.4485,1.3578,1.2824,1.2747,1.1483,1.062,1.0911,1.0338,1.0426,1.1769,1.1969,1.2003,1.2063,1.2002,0.0,0.0,0.0,0.9379,0.9735,1.0083,0.0,0.0,0.0,0.9941,0.8755,1.0709,0.0,0.0,1.3204,1.4556,0.0,0.0,0.0,0.0,0.0,0.0,0.0,0.0,0.0,0.0,0.0,0.0,0.0,0.0,0.0,0.0,-0.2503,-0.1493,-0.1141,0.0094,0.1185,0.1699,0.1841,0.1759,0.1347,0.1876,0.1895,0.1019,0.1331,0.1314,0.0796,0.0,0.0,0.0,0.0,0.2469,0.1477,0.2373,0.3028,0.3379,0.3442,0.3896,0.4652,0.4672,0.4981,0.5471,0.5489,0.563,0.5849,0.5925,0.61,0.6458,0.7867,0.8819,0.9671,1.1563,1.147,1.0598,1.2183,0.0,0.0,1.2403,1.2494,1.2183,1.3176,1.3489,1.3551,1.3783,1.3877,1.3962,1.3899,1.3941,1.3962,1.387,1.3927,1.4188,1.4893,1.4995,1.4984,1.5036,1.4925,1.4601,1.3947,1.2775,1.218,1.291,1.1169,1.04,1.2015,1.0985,1.047,1.1429,1.1604,0.0,1.1611,1.2444,1.2188,1.0413,1.1057,1.184,1.268,1.3453,1.3427,1.256,1.2545,1.1763,1.0193,1.0383,0.9935,0.8977,1.3792,1.5137,0.0,0.0,0.0,0.0,0.0,0.0,0.0,0.0,0.0,0.0,0.0,0.0,0.0,0.0,0.0,-0.4723,-0.401,-0.3497,-0.3517,-0.2751,-0.1609,0.0031,0.0146,0.0114,0.0117,0.0173,0.0149,0.0065,0.0032,0.0031,0.0,0.036,0.0523,0.0467,0.1401,0.1711,0.1336,0.2103,0.2536,0.2614,0.3111,0.0,0.43,0.452,0.4859,0.5284,0.5432,0.5546,0.5619,0.6155,0.662,0.7025,0.7179,0.7399,0.7876,0.9282,0.9713,0.9812,1.1148,1.1674,1.1833,1.2148,1.2374,1.2491,1.2727,1.2896,0.0,1.3361,1.3836,1.4226,1.3982,1.4162,1.4246,1.3771,1.4039,1.4381,1.4249,1.4427,1.4499,1.4282,1.3938,1.3666,1.3529,1.2962,1.2381,1.1966,1.1481,1.1098,1.105,1.1286,1.2094,1.3831,1.4035,1.4069,1.4195,1.4394,1.3526,1.1158,1.1278,1.1819,1.2666,1.2868,1.2555,1.1685,1.1657,1.1174,1.0193,1.1566,1.186,1.1168,1.0447,1.1126,0.0,0.0,0.0,0.0,0.0,0.0,0.0,0.0,0.0,0.0,0.0,-0.6335,0.0,0.0,-0.5307,-0.4877,-0.47,-0.4471,-0.4145,-0.3769,-0.3091,-0.18,-0.1325,-0.1179,-0.1347,-0.1046,-0.1087,-0.1616,-0.0957,-0.0768,-0.1271,-0.02,0.0167,-0.0434,0.0775,0.1155,0.0563,0.1344,0.1784,0.185,0.2324,0.2819,0.3309,0.3617,0.4106,0.47,0.4811,0.5039,0.5392,0.5921,0.647,0.7025,0.7113,0.7259,0.7642,0.9177,0.9634,0.9652,1.0729,1.1291,1.1513,1.1667,1.182,1.207,1.2655,1.2693,1.2633,1.3282,1.346,1.3537,1.3715,1.3643,1.3648,1.4013,1.4054,1.4185,1.4735,1.4712,1.4566,1.4367,1.4035,1.3643,1.3258,1.3105,1.2805,1.2126,1.1673,1.1339,1.1126,1.1499,1.2314,1.3713,1.4006,1.4092,1.4158,1.3847,1.3128,1.1933,1.2336,1.2791,1.3212,1.3717,1.369,1.3174,1.3262,1.3085,1.2603,1.3494,1.4106,1.4328,1.262,1.3053,0.0,0.0,0.0,0.0,0.0,0.0,0.0,0.0,-0.795,-0.6852,-0.6785,-0.6622,-0.5638,-0.5813,-0.5861,-0.5099,-0.5299,-0.5277,-0.4449,-0.4252,-0.3985,-0.3389,-0.2683,-0.2348,-0.2629,-0.2102,-0.2095,-0.2983,-0.1888,-0.1554,-0.2453,-0.083,-0.0333,-0.1415,0.0184,0.0658,-0.0186,0.0653,0.1154,0.1274,0.1548,0.1958,0.2472,0.2722,0.3342,0.4157,0.4241,0.4677,0.5369,0.574,0.6286,0.6933,0.7346,0.7671,0.8072,0.9526,0.9764,0.9555,1.0455,1.0795,1.0873,1.1174,1.1319,1.1556,1.2386,1.2515,1.2464,1.3112,1.3084,1.2936,1.343,1.3147,1.3021,1.4085,1.3973,1.3901,1.5086,1.4829,1.4438,1.4451,1.4121,1.3634,1.3006,1.3103,1.3042,1.2485,1.2015,1.1706,1.1711,1.1978,1.2407,1.3112,1.3428,1.3575,1.3595,1.2945,1.2648,1.2945,1.3453,1.384,1.3999,1.4724,1.5082,1.4914,1.505,1.5088,1.4991,1.5069,1.5715,1.6833,1.5986,1.6505,-1.0505,-0.9634,-0.8247,-0.7697,-0.801,-0.8404,0.0,0.0,-0.8637,-0.7936,-0.7739,-0.7471,-0.6825,-0.7185,-0.7279,-0.6414,-0.6589,-0.6506,-0.5636,-0.5221,-0.4759,-0.4161,-0.3884,-0.3621,-0.3241,-0.3282,-0.3231,-0.2953,-0.2882,-0.2823,-0.2835,-0.2214,-0.1876,-0.1923,-0.0581,0.0023,-0.019,0.0664,0.1104,0.1131,0.1172,0.1715,0.266,0.2706,0.3216,0.4044,0.4381,0.5046,0.5846,0.6126,0.6676,0.7346,0.7705,0.813,0.8621,0.8752,0.876,0.8875,0.9907,1.0411,1.0646,1.1084,1.1399,1.1589,1.1248,1.2071,1.2954,1.2429,1.2937,1.3605,1.3396,1.3366,1.3421,1.343,1.3501,1.3705,1.4021,1.369,1.341,1.358,1.3162,1.2729,1.2665,1.2684,1.2592,1.235,1.2786,1.2967,1.2474,1.2988,1.3494,1.3772,1.3827,1.3987,1.4242,1.3659,1.3672,1.4564,1.399,1.3952,1.4732,1.4892,1.4912,1.4908,1.4926,1.4916,1.4914,1.4947,1.5558,1.6734,1.6971,1.8032,-0.9354,-0.9172,0.0,0.0,-0.8432,-0.8833,-0.9097,-0.9009,-0.8747,-0.8529,-0.8382,-0.826,-0.7996,-0.8396,-0.8493,0.0,-0.7614,-0.741,-0.657,-0.5733,-0.5112,-0.4871,-0.4489,-0.3911,-0.3151,-0.315,-0.3266,-0.3407,-0.2912,-0.2814,-0.3396,-0.2437,-0.1904,-0.2009,-0.1185,-0.0669,-0.0495,-0.0134,0.0203,0.0464,0.061,0.1117,0.1888,0.2081,0.2746,0.3784,0.4187,0.4759,0.5395,0.55,0.5959,0.6716,0.7269,0.7556,0.7774,0.8658,0.9188,0.9543,0.9971,1.0198,1.0306,1.0498,1.0842,1.1223,1.16,1.2079,1.2539,1.2844,1.2981,1.3118,1.3347,1.3177,1.312,1.3827,1.3543,1.32,1.3685,1.308,1.2468,1.2535,1.229,1.2087,1.2087,1.2349,1.2555,1.2497,1.2869,1.3091,1.2807,1.3254,1.3693,1.3885,1.3913,1.3969,1.4095,1.3858,1.3967,1.4563,1.4266,1.4296,1.4757,1.4868,1.484,1.4682,1.4828,1.4865,1.4766,1.4766,1.5301,1.6346,1.6592,1.7546,-0.9401,0.0,0.0,-0.925,-0.9209,-0.9351,-0.9805,-0.9544,-0.9169,-0.9059,-0.8994,-0.8902,-0.8656,-0.9014,-0.9055,-0.8136,-0.8155,-0.7964,-0.7004,-0.6173,-0.5628,-0.548,-0.5012,-0.4294,-0.3322,-0.3232,-0.3356,-0.3548,-0.3003,-0.2929,-0.3568,-0.2589,-0.2103,-0.2236,-0.1767,-0.129,-0.0868,-0.0742,-0.047,0.0,0.0201,0.0639,0.1315,0.1876,0.2613,0.355,0.3914,0.4364,0.4862,0.4944,0.5333,0.593,0.6664,0.693,0.7085,0.8431,0.9243,0.9748,0.9886,1.0034,1.0149,1.0292,1.0662,1.1137,1.1717,1.2157,1.2611,1.3084,1.3131,1.3113,1.3333,1.3149,1.3101,1.3933,1.3337,1.2802,1.3425,1.2701,1.1937,1.1937,1.1787,1.1644,1.149,1.1837,1.2138,1.2138,1.2578,1.2993,1.3127,1.3478,1.3731,1.3759,1.3798,1.3827,1.3827,1.387,1.3989,1.4247,1.4271,1.4319,1.4471,1.4553,1.4542,1.4329,1.4536,1.4609,1.4573,1.4573,1.495,1.5683,1.6213,1.7015,0.0,0.0,-1.0038,-1.0756,-1.0493,-1.0135,-1.0305,-1.0315,-1.0137,-0.969,-0.9575,-0.9323,-0.8561,-0.8736,-0.8646,-0.7591,-0.8012,-0.8053,-0.6772,-0.657,-0.6398,-0.5933,-0.5569,-0.5008,0.0,-0.4113,-0.3808,-0.2985,-0.3424,-0.3573,-0.314,-0.3086,-0.2992,-0.2885,-0.2308,-0.1758,-0.1285,-0.0901,-0.047,0.0,0.0,0.047,0.1348,0.238,0.3025,0.334,0.366,0.4024,0.4464,0.4763,0.5056,0.5365,0.5973,0.6554,0.7056,0.7736,0.8325,0.8922,0.9434,0.9866,1.0254,1.0742,1.1244,1.1569,1.1012,1.2251,1.3631,1.2717,1.3406,1.4256,1.3421,1.3555,1.3762,1.3344,1.2806,1.2562,1.3082,1.2589,1.2,1.2,1.1858,1.1523,1.1017,1.093,1.093,1.093,1.1954,1.2917,1.3516,1.3836,1.3828,1.3464,1.3542,1.3617,1.3617,1.3798,1.3913,1.3927,1.3927,1.3927,1.3927,1.3931,1.3918,1.3906,1.3942,1.4027,1.4196,1.4196,1.4329,1.4609,1.6138,1.6908,-1.2265,0.0,-1.1111,-1.1391,-1.1331,-1.1182,-1.1297,-1.0829,-1.0236,-0.9764,-0.9627,-0.9417,-0.8906,-0.9141,-0.9464,-0.9692,-0.939,-0.9001,-0.8458,-0.7931,-0.7218,-0.6201,-0.58,0.0,0.0,0.0,0.0,-0.4069,-0.412,-0.4204,-0.4228,-0.3601,-0.317,-0.3041,-0.2852,-0.2341,-0.1497,-0.1375,-0.0875,0.0,0.0302,0.0603,0.0937,0.1539,0.2199,0.2789,0.287,0.3303,0.3899,0.3995,0.418,0.4498,0.4859,0.5231,0.5707,0.6489,0.7112,0.7721,0.8694,0.9093,0.9271,0.9809,1.0311,1.0706,1.088,1.1659,1.2437,1.2119,1.2342,1.2637,1.2342,1.2378,1.2484,1.233,1.2104,1.1971,1.2164,1.1951,1.1729,1.1729,1.1553,1.1429,1.1615,1.1506,1.1552,1.191,1.2384,1.2925,1.3526,1.4079,1.4281,1.3918,1.4293,1.4488,1.4229,1.4281,1.4141,1.3743,1.3709,1.3768,1.3899,1.3906,1.4139,1.4621,1.4154,1.4445,1.5524,1.5157,1.5282,1.5843,1.6914,1.7524,-1.2939,-1.2781,-1.2522,-1.2543,-1.227,-1.1954,-1.1624,-1.068,-0.9757,-0.9213,-0.9299,-0.9221,-0.8545,-0.8848,-0.9358,-0.9849,-0.9217,-0.874,-0.8915,-0.8311,-0.7621,-0.6971,-0.6565,-0.6208,0.0,0.0,0.0,-0.4778,-0.5135,-0.5174,-0.4604,-0.3995,-0.3489,-0.3168,-0.3208,-0.2685,-0.1603,-0.1655,-0.1094,0.0,0.049,0.0714,0.0789,0.123,0.1724,0.2238,0.2267,0.2682,0.336,0.3364,0.3604,0.4031,0.4431,0.4721,0.4978,0.5766,0.629,0.6768,0.8085,0.8635,0.8774,0.9202,0.9734,1.0293,1.0803,1.1356,1.1852,1.215,1.2128,1.2032,1.2032,1.2032,1.1987,1.1808,1.1789,1.1734,1.1734,1.1847,1.1849,1.1652,1.161,1.167,1.1851,1.1738,1.1909,1.2586,1.276,1.2906,1.3211,1.3814,1.4036,1.3616,1.3929,1.4087,1.3833,1.3892,1.3799,1.3412,1.3378,1.3529,1.3918,1.3854,1.4192,1.5024,1.4554,1.4895,1.6082,1.5853,1.5941,1.6422,1.7288,1.7766,-1.3853,-1.3957,-1.4086,-1.4086,-1.3307,-1.2287,-1.1295,-0.9995,-0.8809,-0.8225,-0.8618,-0.874,0.0,0.0,-0.8489,-0.8383,-0.7767,-0.7554,-0.831,-0.7874,-0.7674,0.0,0.0,0.0,0.0,0.0,0.0,-0.5157,0.0,-0.6353,-0.4454,-0.4292,-0.3973,-0.3372,-0.3408,-0.2857,-0.1666,-0.1756,-0.1176,0.0,0.0455,0.0727,0.086,0.1307,0.1604,0.1779,0.1745,0.2176,0.2892,0.2922,0.3343,0.4075,0.4638,0.4874,0.4922,0.5548,0.5773,0.5986,0.7624,0.8371,0.8657,0.9001,0.9546,1.0232,1.0727,1.1265,1.1881,1.2707,1.2641,1.2368,1.2368,1.2346,1.2213,1.1845,1.1748,1.1785,1.1785,1.2126,1.233,1.1798,1.207,1.2214,1.1665,1.159,1.1918,1.2808,1.2979,1.2887,1.2668,1.3148,1.3329,1.2713,1.2684,1.2671,1.2639,1.288,1.301,1.2977,1.2926,1.3235,1.3903,1.3682,1.4061,1.5107,1.5095,1.539,1.5993,1.6209,1.6323,1.6348,1.7257,1.7666,-1.5421,-1.4839,-1.4021,-1.4075,-1.3018,-1.1768,-1.0843,-0.9589,-0.8584,-0.8439,-0.8489,-0.8588,0.0,0.0,0.0,-1.0543,-0.964,0.0,-0.9763,-0.9499,0.0,-0.8044,0.0,-0.8044,-0.7709,-0.854,0.0,0.0,-0.6871,-0.6902,-0.6187,-0.5337,-0.4557,-0.3859,-0.3849,-0.3476,-0.2737,-0.1761,-0.086,0.0,0.0107,0.0207,0.0245,0.0369,0.0679,0.1149,0.1127,0.1806,0.2898,0.2902,0.3338,0.3997,0.4186,0.4206,0.4293,0.4907,0.5118,0.5282,0.6349,0.6967,0.7462,0.8495,0.8943,0.9296,1.036,1.0765,1.108,1.1787,1.1895,1.1814,1.1814,1.1551,1.1287,1.1166,1.1155,1.1207,1.1207,1.1616,1.1959,1.1786,1.187,1.178,1.1182,1.1446,1.1815,1.2072,1.2409,1.2771,1.3203,1.3656,1.3835,1.3455,1.3698,1.3659,1.3084,1.3115,1.2894,1.2349,1.2086,1.226,1.2941,1.3127,1.382,1.5157,1.5126,1.5844,1.7301,1.7007,1.7191,1.7692,1.7962,1.844,-1.612,-1.5546,-1.4625,-1.4205,-1.2827,-1.1344,-1.063,-0.9243,-0.8239,-0.8513,-0.8808,0.0,0.0,0.0,0.0,0.0,0.0,0.0,-0.9501,-0.9403,-0.8982,0.0,-0.8457,0.0,-0.8337,-0.8811,-0.8612,0.0,-0.7496,-0.7174,-0.6044,-0.5371,-0.471,-0.4033,-0.4062,-0.3643,-0.2722,-0.1657,-0.0728,0.0,0.0,0.0,0.0,0.0,0.0199,0.0483,0.0499,0.1315,0.2584,0.2576,0.3229,0.4227,0.423,0.4216,0.4264,0.4591,0.474,0.4807,0.5604,0.6018,0.6458,0.7658,0.8364,0.8878,0.9801,1.0117,1.0262,1.1028,1.1131,1.1004,1.1004,1.1019,1.0973,1.0803,1.1038,1.1267,1.1267,1.1499,1.1834,1.2001,1.2039,1.1949,1.1608,1.1681,1.1822,1.1822,1.2018,1.2354,1.2697,1.324,1.3374,1.2874,1.3224,1.3139,1.2261,1.2501,1.2426,1.1794,1.1563,1.1939,1.3016,1.2884,1.3667,1.5649,1.5485,1.6122,1.7592,1.7592,1.7735,1.8031,1.8147,1.8603,-1.6421,-1.6044,-1.5321,-1.4332,-1.2528,-1.0846,-1.0418,-0.8908,-0.7822,-0.8581,0.0,-0.9576,-0.9531,-0.9033,-0.8867,-0.9557,0.0,-0.7405,-0.8715,-0.8679,-0.8585,-0.8778,-0.8804,-0.8804,-0.8804,-0.8804,-0.8474,-0.761,-0.787,-0.7189,-0.5101,-0.4992,-0.4714,-0.4101,-0.42,-0.3622,-0.2341,-0.1623,-0.0897,-0.0168,-0.0054,0.0,0.0,0.0,0.0,0.0,0.0,0.0783,0.206,0.2158,0.3037,0.4346,0.4463,0.4519,0.4519,0.4519,0.4519,0.4574,0.5148,0.5407,0.5684,0.6828,0.7833,0.8651,0.9177,0.9392,0.9739,1.0532,1.0549,1.0254,1.0254,1.0654,1.096,1.0623,1.1008,1.1475,1.1475,1.1588,1.1795,1.2149,1.2206,1.2184,1.214,1.1828,1.1579,1.1579,1.1653,1.1689,1.1689,1.228,1.2407,1.1723,1.2046,1.1912,1.094,1.1571,1.1802,1.1339,1.1334,1.201,1.3574,1.2896,1.3636,1.6108,1.6031,1.6369,1.7289,1.7862,1.8042,1.7828,1.8138,1.8562,-1.6622,-1.6023,-1.5291,-1.4346,-1.1976,-0.9882,-0.9831,-0.847,0.0,0.0,0.0,-0.9323,-0.9997,-0.9724,0.0,-1.0524,0.0,0.0,0.0,0.0,-0.9012,0.0,0.0,0.0,0.0,0.0,0.0,0.0,-0.6848,-0.646,-0.5475,-0.5374,-0.5093,-0.4409,-0.4443,-0.4009,-0.3109,-0.2352,-0.1625,-0.0894,-0.0278,0.0,0.0,0.0,0.0,0.0,0.0,0.0505,0.1343,0.1943,0.2773,0.3622,0.4236,0.4519,0.4519,0.4519,0.4519,0.4519,0.4629,0.503,0.5635,0.647,0.7253,0.7982,0.8632,0.924,0.991,1.0578,1.0764,1.0731,1.0731,1.0548,1.0364,1.0298,1.0527,1.0794,1.0794,1.1223,1.1519,1.1224,1.1145,1.1025,1.0724,1.0604,1.0544,1.0544,1.0867,1.1132,1.1132,1.1445,1.1623,1.1463,1.1376,1.1166,1.0702,1.1131,1.1391,1.1318,1.1455,1.207,1.3219,1.3392,1.409,1.5434,1.6227,1.6844,1.7289,1.7682,1.7862,1.7828,1.8483,1.9161,-1.6948,-1.6493,-1.5637,-1.4104,-1.1711,-0.9791,-0.9986,0.0,0.0,0.0,-0.9668,-0.9785,-1.0215,0.0,0.0,0.0,0.0,0.0,0.0,0.0,0.0,0.0,0.0,0.0,0.0,0.0,0.0,-0.6145,-0.6036,-0.571,-0.5007,-0.5007,-0.4842,-0.4519,-0.4519,-0.4125,-0.3289,-0.2965,-0.2464,-0.1673,-0.095,-0.056,-0.0561,-0.0168,0.0,0.0,0.0,0.0393,0.1121,0.1509,0.2063,0.2845,0.3572,0.3904,0.3947,0.4346,0.4519,0.4519,0.4519,0.4691,0.503,0.5391,0.6253,0.7267,0.796,0.8448,0.8869,0.9562,0.9769,0.9769,0.9769,0.9906,0.9969,0.9969,1.0336,1.0634,1.0446,1.0784,1.0982,1.0392,1.0545,1.0544,0.9889,1.0054,1.0118,0.9549,0.9903,1.0137,0.9845,0.9906,1.0298,1.1069,1.1341,1.1166,1.0412,1.081,1.1081,1.1045,1.1131,1.1776,1.3038,1.315,1.3809,1.5154,1.5927,1.6548,1.7054,1.7382,1.7619,1.7805,1.7804,1.8593,-1.7049,-1.6818,-1.5913,-1.3895,-1.163,-0.9966,-1.023,-0.8965,0.0,0.0,-1.0273,-1.0273,-1.0273,0.0,0.0,0.0,0.0,0.0,0.0,0.0,0.0,0.0,0.0,0.0,0.0,0.0,0.0,-0.581,-0.5592,-0.5218,-0.4519,-0.4519,-0.4519,-0.4519,-0.4519,-0.4187,-0.3577,-0.3299,-0.285,-0.2174,-0.1285,-0.0844,-0.0852,-0.0284,0.0,0.0,0.0,0.0341,0.0897,0.1008,0.1453,0.2011,0.2794,0.3063,0.3164,0.3782,0.4009,0.4009,0.4174,0.4236,0.4291,0.4463,0.5344,0.6455,0.7074,0.7343,0.7557,0.8156,0.8434,0.8593,0.8593,0.9054,0.9614,0.9769,1.0218,1.0545,1.0368,1.0565,1.0615,0.9924,1.0109,1.0196,0.9464,0.9742,0.9756,0.8906,0.9151,0.9255,0.8765,0.8724,0.9186,1.0458,1.1009,1.0981,1.0195,1.075,1.1069,1.1013,1.1184,1.1933,1.326,1.3167,1.377,1.5241,1.5681,1.6239,1.6904,1.7242,1.7629,1.8009,1.7617,1.8404,-1.6446,-1.6479,-1.5913,-1.3895,-1.1653,-0.9953,-1.023,0.0,0.0,-0.9922,-1.0273,-1.0273,-1.0273,-1.0254,-1.0196,0.0,0.0,-0.9876,0.0,0.0,0.0,0.0,0.0,0.0,0.0,0.0,0.0,-0.6588,-0.5873,-0.5218,-0.4519,-0.4519,-0.4519,-0.4519,-0.4519,-0.4463,-0.4408,-0.3012,-0.2286,-0.2174,-0.0783,-0.0115,-0.0119,-0.0059,0.0,0.0,0.0,0.0059,0.0168,0.0841,0.1121,0.1289,0.2011,0.2279,0.2323,0.2382,0.2437,0.2493,0.3164,0.339,0.3555,0.4236,0.4974,0.5589,0.5664,0.6145,0.6696,0.6804,0.7289,0.7771,0.7771,0.8368,0.9068,0.9666,0.9873,1.0049,1.0629,1.0797,1.0647,1.0221,0.9971,0.9723,0.9509,0.9349,0.9162,0.9076,0.9119,0.9047,0.8716,0.8724,0.895,0.9573,0.9688,0.9884,1.0253,1.1159,1.1732,1.1723,1.2506,1.3403,1.43,1.4346,1.4777,1.5711,1.6094,1.6569,1.7257,1.759,1.8076,1.8719,1.9331,1.9922,-1.5869,-1.621,-1.5863,-1.3587,-1.1689,-1.0249,-0.9952,0.0,0.0,-0.998,-1.0273,-1.0273,-1.0273,-1.0273,-1.0196,-0.9883,-0.9599,0.0,0.0,0.0,0.0,0.0,0.0,0.0,0.0,0.0,0.0,-0.5391,-0.5062,-0.4787,-0.4519,-0.4519,-0.4519,-0.4519,-0.4519,-0.4519,-0.4519,-0.3456,-0.2927,-0.2871,-0.1382,-0.0647,-0.0669,-0.0185,0.0,0.0,0.0,0.0,0.0,0.0336,0.0449,0.0505,0.1231,0.1526,0.1565,0.2005,0.2211,0.2233,0.2516,0.3012,0.35,0.3727,0.4346,0.5085,0.5382,0.5701,0.6036,0.648,0.6804,0.7128,0.7557,0.8262,0.8857,0.9159,0.9211,0.9263,0.9562,0.9614,0.9526,0.9204,0.9272,0.9217,0.8645,0.9005,0.9122,0.8473,0.864,0.8686,0.8252,0.8238,0.8579,0.9528,0.9553,0.9725,1.0235,1.0659,1.1153,1.1785,1.215,1.2756,1.3692,1.4593,1.5276,1.5622,1.6838,1.759,1.7822,1.7973,1.8285,1.8795,1.8656,1.9124,-1.443,-1.488,-1.4599,-1.2484,-1.1063,-1.005,0.0,0.0,-0.8516,-0.9668,-0.9886,-0.9849,-0.9922,-1.0002,-0.9884,-0.9364,-0.9124,-0.8824,0.0,0.0,0.0,0.0,0.0,0.0,0.0,0.0,-0.5605,-0.4842,-0.4831,-0.4838,-0.4787,-0.4629,-0.4519,-0.4519,-0.4519,-0.4408,-0.4125,-0.34,-0.2893,-0.2634,-0.135,-0.0781,-0.075,-0.0254,0.0,0.0,0.0,0.0,0.0,0.0,0.0,0.0059,0.0594,0.0753,0.0809,0.1349,0.1537,0.1607,0.1786,0.2488,0.329,0.3367,0.3995,0.4805,0.5223,0.5282,0.5345,0.5837,0.6137,0.6514,0.7291,0.7894,0.83,0.8193,0.8218,0.8201,0.8168,0.8156,0.8094,0.7908,0.8088,0.8147,0.7598,0.8276,0.859,0.785,0.8235,0.8447,0.7936,0.7888,0.8381,0.9557,0.9641,0.9871,1.0624,1.0965,1.1376,1.1949,1.2422,1.2998,1.3642,1.501,1.5802,1.5912,1.732,1.8162,1.8343,1.8339,1.8609,1.903,1.8515,1.8923,-1.1849,-1.2126,-1.1789,-1.03,-0.9614,-0.9145,0.0,0.0,-0.7939,-0.8848,-0.8909,-0.8839,-0.8998,-0.9301,-0.9343,-0.8871,-0.9178,0.0,0.0,0.0,0.0,0.0,0.0,0.0,0.0,0.0,-0.6473,-0.5555,-0.5659,0.0,-0.55,-0.4842,-0.4519,-0.4519,-0.4519,-0.4125,-0.3345,-0.2563,-0.1874,-0.1115,-0.0353,0.0,0.0,0.0,0.0,0.0,0.0,0.0,0.0,0.0,0.0,0.0,0.0,0.0,0.0,0.0,0.0,0.0135,0.0875,0.1743,0.2656,0.333,0.417,0.4908,0.4877,0.4809,0.4653,0.456,0.5129,0.5997,0.6729,0.7011,0.7013,0.6689,0.6749,0.6839,0.6693,0.6642,0.6642,0.6642,0.6398,0.6307,0.6592,0.7037,0.7341,0.7291,0.7948,0.827,0.7915,0.7888,0.8381,0.9557,0.9678,1.0221,1.1499,1.2552,1.2955,1.2446,1.3939,1.4826,1.4698,1.571,1.6487,1.69,1.7434,1.8029,1.8701,1.8683,1.9031,1.9696,1.966,1.9889,-1.1376,-1.153,-1.1228,-1.0167,-0.9496,-0.8973,-0.8501,0.0,-0.794,-0.8481,-0.8335,-0.8121,-0.8193,-0.8263,-0.8234,-0.7899,-0.8159,-0.8229,0.0,0.0,0.0,0.0,0.0,0.0,0.0,0.0,-0.5409,-0.55,-0.5108,-0.4901,-0.4842,-0.4629,-0.4519,-0.4519,-0.4519,-0.4125,-0.3289,-0.2588,-0.1835,-0.1092,-0.0373,0.0,0.0,0.0,0.0,0.0,0.0,0.0,0.0,0.0,0.0,0.0,0.0,0.0,0.0,0.0,0.0,0.0135,0.0939,0.1874,0.2725,0.3516,0.4358,0.504,0.4945,0.4884,0.4836,0.4789,0.5336,0.596,0.6197,0.6716,0.7091,0.6953,0.6912,0.6889,0.6819,0.6689,0.6588,0.6588,0.6528,0.6658,0.7278,0.7499,0.7757,0.8241,0.8515,0.8631,0.8537,0.8524,0.9018,1.0336,1.0466,1.0746,1.1514,1.189,1.2341,1.2914,1.3455,1.4077,1.4826,1.5867,1.6491,1.6645,1.7525,1.8257,1.8825,1.887,1.9126,1.969,1.969,1.9767,0.0,-0.9705,-0.9477,-0.8797,-0.8328,0.0,0.0,0.0,-0.7399,-0.7628,-0.745,-0.7243,-0.7299,-0.7335,-0.7293,-0.7183,-0.739,-0.7546,0.0,0.0,0.0,0.0,0.0,0.0,0.0,-0.5261,-0.5195,-0.5262,-0.4912,-0.4694,-0.464,-0.4633,-0.4518,-0.4168,-0.4062,-0.3716,-0.3007,-0.2202,-0.1407,-0.069,-0.0192,0.0,0.0,0.0,0.0,0.0,0.0,0.0,0.0,0.0,0.0,0.0,0.0,0.0,0.0069,0.0485,0.0627,0.0699,0.1573,0.2514,0.3313,0.3716,0.4452,0.5226,0.5101,0.5006,0.4945,0.5053,0.5351,0.567,0.567,0.608,0.6405,0.6328,0.625,0.6171,0.6089,0.5966,0.5861,0.5837,0.5828,0.5937,0.6416,0.6686,0.7117,0.7877,0.8209,0.8487,0.8752,0.8804,0.9316,1.0661,1.0813,1.1126,1.1998,1.2483,1.2976,1.3426,1.409,1.4646,1.5171,1.6231,1.6771,1.6805,1.7652,1.8337,1.889,1.9089,1.9369,1.969,1.969,1.969,0.0,0.0,0.0,0.0,0.0,0.0,0.0,0.0,0.0,0.0,-0.6354,-0.6311,-0.6434,-0.6435,-0.6492,-0.6826,-0.692,0.0,0.0,0.0,0.0,0.0,0.0,0.0,-0.4991,-0.5493,-0.5646,-0.5039,-0.504,-0.5053,-0.4911,-0.485,-0.4424,-0.3625,-0.3287,-0.293,-0.2397,-0.1546,-0.0755,-0.0065,0.0,0.0,-0.0067,0.0,0.0,0.0,0.0,0.0,0.0,0.0,0.0,0.0,0.0,0.0,0.0143,0.123,0.1616,0.1703,0.2698,0.3565,0.4171,0.4121,0.4688,0.5432,0.5439,0.5189,0.502,0.5284,0.5264,0.5162,0.5148,0.525,0.5291,0.502,0.504,0.5053,0.4782,0.4707,0.4653,0.4573,0.4532,0.4519,0.4588,0.5117,0.5819,0.6588,0.7289,0.8049,0.8699,0.8857,0.9368,1.0661,1.0864,1.1434,1.2774,1.3931,1.4383,1.3916,1.5449,1.6145,1.5711,1.669,1.7256,1.7256,1.7721,1.8287,1.8838,1.9442,1.972,1.969,1.969,1.972,-0.6152,0.0,-0.6622,-0.6521,-0.6512,0.0,0.0,0.0,0.0,0.0,0.0,0.0,0.0,-0.5885,-0.5974,-0.7139,-0.6962,0.0,0.0,0.0,0.0,0.0,0.0,0.0,-0.6607,-0.5785,-0.5399,-0.5707,-0.5251,-0.4904,-0.4755,-0.4183,-0.3808,-0.3625,-0.2309,-0.1563,-0.1415,-0.1227,-0.1048,-0.0966,-0.033,-0.0334,-0.094,-0.0337,0.0,0.0,0.0,0.0,0.0,0.0,0.0,0.0,0.0,0.0,0.0148,0.1168,0.1616,0.1855,0.3547,0.4182,0.4309,0.4864,0.5226,0.5452,0.5501,0.5488,0.542,0.5372,0.542,0.5454,0.5338,0.5332,0.5411,0.5277,0.5196,0.5108,0.504,0.485,0.4714,0.4796,0.4619,0.472,0.5401,0.5981,0.6578,0.7343,0.8049,0.8593,0.8752,0.9263,0.9858,1.0712,1.1266,1.1931,1.2822,1.3162,1.3464,1.3807,1.4628,1.5285,1.561,1.6303,1.6683,1.6683,1.6793,1.7343,1.8282,1.9228,1.9686,1.969,1.969,1.9952,-0.5609,-0.5921,-0.6261,-0.6387,-0.6183,-0.5982,0.0,0.0,0.0,0.0,0.0,0.0,0.0,0.0,0.0,0.0,-0.6394,0.0,0.0,0.0,0.0,0.0,0.0,-0.6492,0.0,-0.552,-0.5255,-0.5683,-0.5375,-0.4892,-0.4436,-0.3993,-0.3389,-0.2557,-0.169,-0.1172,-0.1217,-0.0796,-0.0606,-0.0671,-0.0205,-0.0276,-0.0697,-0.0207,0.0,0.0,0.0,0.0,0.0,0.0,0.0,0.0074,0.0531,0.0764,0.0916,0.249,0.3023,0.3257,0.4619,0.495,0.4851,0.5252,0.5425,0.5446,0.546,0.5583,0.5671,0.5589,0.5576,0.5569,0.5488,0.5413,0.5425,0.5425,0.5298,0.5216,0.5148,0.5006,0.4897,0.4918,0.4782,0.4984,0.5818,0.6213,0.6736,0.7752,0.8287,0.8575,0.8765,0.9106,0.9718,1.0712,1.1116,1.1783,1.2822,1.2891,1.3142,1.3768,1.4603,1.5266,1.5574,1.6182,1.6522,1.6522,1.6498,1.6798,1.737,1.842,1.9219,1.9708,1.9782,2.0152,-0.5309,-0.5589,-0.5914,-0.6102,-0.5679,-0.528,0.0,0.0,0.0,0.0,0.0,0.0,0.0,0.0,0.0,0.0,0.0,0.0,0.0,0.0,0.0,0.0,0.0,0.0,-0.5248,-0.5212,-0.5216,-0.5418,-0.5292,-0.4803,-0.4032,-0.3732,-0.2865,-0.1324,-0.1136,-0.1073,-0.1073,-0.0337,-0.0068,-0.0211,-0.007,-0.0071,-0.0218,-0.0071,0.0,0.0,0.0,0.0,0.0,0.0,0.0,0.0076,0.1167,0.1568,0.1881,0.3908,0.4686,0.4815,0.5561,0.5671,0.546,0.5433,0.5426,0.5426,0.5426,0.5623,0.5833,0.5833,0.5752,0.5644,0.5603,0.5494,0.5459,0.5432,0.5425,0.5325,0.5196,0.5148,0.5101,0.5006,0.5067,0.5343,0.6078,0.6422,0.6934,0.8085,0.8345,0.8583,0.8965,0.9123,0.962,1.0813,1.1065,1.1584,1.2774,1.2891,1.3133,1.373,1.474,1.5445,1.5709,1.6331,1.6635,1.6498,1.6485,1.6697,1.7005,1.8104,1.91,1.9895,2.003,2.0431,-0.5309,-0.5516,-0.5698,-0.5494,-0.5081,-0.4832,0.0,0.0,0.0,0.0,0.0,0.0,0.0,0.0,0.0,0.0,0.0,0.0,0.0,0.0,0.0,0.0,0.0,-0.6432,-0.6093,-0.5632,-0.5338,-0.5425,-0.4688,-0.4132,-0.3872,-0.2481,-0.1509,-0.1126,-0.0525,-0.0202,-0.0202,-0.0067,-0.0341,-0.1118,-0.0351,-0.0355,-0.109,-0.0363,0.0,0.0,0.0,0.0,0.0,0.0,0.0,0.0078,0.1175,0.1568,0.1881,0.3908,0.4686,0.4825,0.5676,0.5962,0.5908,0.5779,0.5732,0.5732,0.5732,0.5854,0.5996,0.5996,0.5976,0.5901,0.5657,0.5569,0.5521,0.5459,0.5425,0.5418,0.5332,0.5223,0.5162,0.527,0.5708,0.6094,0.6316,0.7421,0.8293,0.8492,0.9086,0.9613,1.0013,1.0547,1.1107,1.1601,1.2197,1.2676,1.2871,1.2891,1.3077,1.353,1.3875,1.4738,1.6207,1.7004,1.7164,1.6502,1.6502,1.7442,1.9279,2.0533,2.1081,2.086,2.0686,2.1248,-0.5309,-0.5384,-0.5451,-0.5349,-0.5385,-0.5434,0.0,0.0,0.0,0.0,0.0,0.0,0.0,0.0,0.0,0.0,0.0,0.0,0.0,0.0,-0.6133,0.0,0.0,-0.6,-0.5784,-0.5107,-0.4622,-0.4622,-0.3813,-0.3045,-0.2452,-0.1718,-0.1061,-0.0518,-0.0199,0.0,0.0,0.0,-0.0209,-0.0572,-0.0218,-0.0222,-0.0606,-0.015,0.0,0.0,0.0,0.0,0.0,0.0,0.0311,0.0941,0.2037,0.2738,0.3441,0.5002,0.5502,0.543,0.5826,0.5976,0.5895,0.5827,0.58,0.58,0.58,0.5908,0.603,0.603,0.603,0.5996,0.5861,0.5766,0.5671,0.5521,0.5488,0.546,0.5446,0.5304,0.5277,0.5411,0.5948,0.6615,0.7158,0.8226,0.9052,0.9389,0.9675,0.9924,0.9953,1.0624,1.1263,1.178,1.2534,1.3143,1.3503,1.3555,1.3649,1.3981,1.4686,1.5598,1.6741,1.7678,1.7971,1.7436,1.797,1.8796,1.9801,1.9798,1.9987,2.0407,2.0335,2.0806,-0.5309,-0.5331,-0.5384,-0.5384,0.0,0.0,0.0,0.0,0.0,0.0,0.0,0.0,0.0,0.0,0.0,0.0,0.0,0.0,-0.5128,-0.5352,-0.5474,-0.5352,-0.5386,-0.5346,-0.5145,-0.4434,-0.388,-0.368,-0.288,-0.207,-0.1329,-0.1137,-0.067,0.0,0.0,0.0,0.0,0.0,0.0,0.0,0.0,0.0,0.0,0.0,0.0,0.0,0.0,0.0,0.0,0.0,0.0628,0.1726,0.2741,0.3912,0.5157,0.6022,0.6186,0.6084,0.6084,0.601,0.5908,0.5908,0.5908,0.5901,0.5867,0.5962,0.6078,0.6037,0.6057,0.6078,0.6037,0.5942,0.582,0.5677,0.5637,0.5672,0.5827,0.5865,0.5918,0.6081,0.683,0.7683,0.8236,0.9057,0.9792,1.0137,1.0221,1.0174,1.0055,1.0567,1.1267,1.2069,1.2694,1.3368,1.4034,1.4414,1.462,1.4608,1.5615,1.6446,1.7054,1.812,1.868,1.8561,1.9383,1.9782,1.9794,1.9007,1.9008,1.9804,2.0223,2.0598,-0.5309,-0.5478,-0.5678,-0.5678,0.0,0.0,0.0,0.0,0.0,0.0,0.0,0.0,0.0,0.0,0.0,0.0,0.0,-0.544,-0.5698,0.0,-0.5976,-0.5969,-0.5732,-0.5224,-0.4383,-0.4147,-0.368,-0.288,-0.1941,-0.1392,-0.1293,-0.0531,-0.0067,0.0,0.0,0.0,0.0,0.0,0.0,0.0,0.0,0.0,0.0,0.0,0.0,0.0,0.0,0.0,0.0,0.0,0.0629,0.1728,0.2741,0.438,0.6183,0.6261,0.6254,0.6247,0.6247,0.624,0.6227,0.6227,0.6227,0.62,0.6057,0.6125,0.6213,0.6071,0.6132,0.6213,0.6064,0.6023,0.5976,0.582,0.5786,0.6065,0.6966,0.717,0.7399,0.803,0.9116,0.9684,0.9285,1.012,1.0797,1.0568,1.0591,1.0657,1.0929,1.1063,1.153,1.2674,1.2859,1.3259,1.4014,1.5234,1.578,1.5371,1.5882,1.6422,1.7003,1.8096,1.9,1.9659,1.9761,1.9812,1.9787,1.9736,1.9737,1.9808,2.0963,2.1546,-0.5309,-0.5658,-0.5945,-0.5758,0.0,0.0,0.0,0.0,0.0,0.0,0.0,0.0,0.0,0.0,0.0,0.0,0.0,-0.5433,-0.5644,-0.5793,-0.5854,-0.5766,-0.516,-0.4574,-0.4089,-0.3029,-0.2209,-0.1874,-0.1007,-0.0469,-0.0464,-0.0201,0.0,0.0,0.0,0.0,0.0,0.0,0.0,0.0,0.0,0.0,0.0,0.0,0.0,0.0,0.0,0.0,0.0,0.0,0.0627,0.1722,0.2733,0.3589,0.4297,0.4297,0.4297,0.4375,0.5079,0.5312,0.5395,0.6099,0.6338,0.6247,0.6193,0.6213,0.6247,0.6193,0.6213,0.6247,0.6186,0.6173,0.6132,0.5983,0.5942,0.6207,0.7095,0.7283,0.754,0.8503,0.9397,1.0042,0.9852,1.0505,1.0955,1.0848,1.0739,1.064,1.0767,1.1888,1.283,1.3305,1.4478,1.5384,1.5683,1.6191,1.6429,1.6196,1.6814,1.7513,1.8271,1.8756,1.9506,2.0474,2.0474,2.0736,2.1208,2.0736,2.0582,2.0851,2.1527,2.1768,-0.5246,-0.557,-0.5832,0.0,0.0,0.0,0.0,0.0,0.0,0.0,0.0,0.0,0.0,0.0,0.0,0.0,-0.5169,-0.5413,-0.5569,-0.5671,-0.5641,-0.5307,-0.4591,-0.391,-0.3326,-0.2088,-0.1207,-0.094,-0.0337,0.0,0.0,0.0,0.0,0.0,0.0,0.0,0.0,0.0,0.0,0.0,0.0,0.0,0.0,0.0,0.0,0.0,0.0,0.0,0.0,0.0,0.0633,0.1762,0.3114,0.3683,0.3702,0.4081,0.4232,0.4311,0.511,0.5325,0.537,0.6087,0.6295,0.6338,0.6338,0.6338,0.6338,0.6338,0.6338,0.6338,0.6338,0.6338,0.6234,0.6125,0.6324,0.6813,0.7706,0.8178,0.8662,0.9585,1.0349,1.0725,1.0553,1.0921,1.1209,1.1022,1.0822,1.0766,1.0766,1.2202,1.3459,1.4149,1.5817,1.6875,1.6675,1.6973,1.7064,1.6896,1.754,1.8091,1.8657,1.9261,2.0072,2.1212,2.0895,2.1219,2.2352,2.1512,2.13,2.168,2.1964,2.1857,-0.5182,-0.5194,-0.518,0.0,0.0,0.0,0.0,0.0,0.0,0.0,0.0,0.0,-0.4694,0.0,0.0,-0.4897,-0.5169,-0.5413,-0.5569,-0.5589,-0.5288,-0.4549,-0.415,-0.3313,-0.1742,-0.1431,-0.094,-0.0067,0.0,0.0,0.0,0.0,0.0,0.0,0.0,0.0,0.0,0.0,0.0,0.0,0.0,0.0,0.0,0.0,0.0,0.0,0.0,0.0,0.0,0.0,0.0646,0.1854,0.4034,0.4915,0.5049,0.6235,0.6702,0.6702,0.6702,0.66,0.6471,0.6471,0.6376,0.6345,0.6338,0.6338,0.6338,0.6338,0.6338,0.6338,0.6338,0.6338,0.6338,0.6338,0.7096,0.8084,0.9074,1.0121,1.1009,1.1787,1.2104,1.2118,1.153,1.1677,1.1677,1.1089,1.0995,1.0995,1.0995,1.1833,1.3252,1.5285,1.6636,1.7207,1.6777,1.7519,1.7841,1.7441,1.7782,1.7961,1.7811,1.9375,2.0834,2.1956,2.0888,2.1198,2.308,2.2002,2.1681,2.2,2.2178,2.202,-0.5101,-0.5263,0.0,0.0,0.0,0.0,0.0,0.0,0.0,0.0,0.0,-0.485,-0.485,0.0,0.0,-0.5047,-0.4626,-0.4361,-0.4574,-0.3978,-0.3492,-0.3377,-0.2601,-0.1882,-0.1424,-0.081,-0.0269,0.0,0.0,0.0,0.0,0.0,0.0,0.0,0.0,0.0,0.0,0.0,0.0,0.0,0.0,0.0,0.0,0.0,0.0,0.0,0.0,0.0,0.0,0.0,0.1148,0.288,0.2798,0.3206,0.401,0.4378,0.4522,0.4606,0.5355,0.5581,0.5629,0.6381,0.6607,0.6552,0.6444,0.641,0.639,0.6288,0.6338,0.6338,0.6338,0.6338,0.6493,0.7173,0.8161,0.914,1.0121,1.0559,1.1069,1.1965,1.2251,1.2251,1.2078,1.1944,1.181,1.1637,1.1436,1.1831,1.339,1.3826,1.4849,1.7025,1.76,1.7773,1.7637,1.7871,1.7949,1.7841,1.793,1.8282,1.8828,1.876,1.9447,2.0989,2.0279,2.0634,2.2262,2.1958,2.2127,2.2783,2.2824,2.2799,-0.5003,0.0,0.0,0.0,0.0,0.0,0.0,0.0,0.0,0.0,0.0,-0.5006,-0.5006,-0.469,0.0,-0.4538,-0.3885,-0.3431,-0.3551,-0.3111,-0.2559,-0.233,-0.1693,-0.114,-0.0806,-0.0337,0.0,0.0,0.0,0.0,0.0,0.0,0.0,0.0,0.0,0.0,0.0,0.0,0.0,0.0,0.0,0.0,0.0,0.0,0.0,0.0,0.047,0.0631,0.0718,0.118,0.2141,0.3466,0.32,0.3587,0.4265,0.4657,0.4797,0.4949,0.5577,0.5817,0.5865,0.6518,0.6709,0.6607,0.6573,0.6478,0.6396,0.6424,0.639,0.6499,0.6883,0.7274,0.7484,0.7265,0.8313,0.9442,1.0045,1.087,1.1613,1.2144,1.2305,1.2305,1.2305,1.2158,1.1997,1.1891,1.1717,1.2346,1.444,1.4811,1.5687,1.7765,1.8008,1.8008,1.8008,1.8008,1.8008,1.8008,1.8008,1.824,1.8783,1.8282,1.868,2.0073,1.9727,2.0249,2.162,2.1602,2.195,2.2599,2.3034,2.3183,-0.4915,0.0,0.0,0.0,0.0,0.0,0.0,0.0,0.0,0.0,0.0,-0.5085,-0.5021,-0.4377,-0.3796,-0.3732,-0.3091,-0.2542,-0.2542,-0.2476,-0.2144,-0.1274,-0.1207,-0.0873,-0.0067,0.0,0.0,0.0,0.0,0.0,0.0,0.0,0.0,0.0,0.0,0.0,0.0,0.0,0.0,0.0,0.0,0.0077,0.0157,0.0076,0.0076,0.0235,0.1177,0.1756,0.2124,0.3021,0.356,0.4013,0.4802,0.517,0.5411,0.6342,0.6713,0.6742,0.6878,0.6837,0.6749,0.6898,0.6749,0.6539,0.6681,0.6606,0.6513,0.6784,0.6845,0.7046,0.7995,0.8848,0.9018,0.708,0.8102,0.9604,0.9604,1.1043,1.2331,1.2305,1.2318,1.2331,1.2305,1.2305,1.2211,1.1944,1.1904,1.2615,1.4433,1.4936,1.5859,1.7762,1.7949,1.7949,1.8125,1.8086,1.8086,1.8125,1.8125,1.8105,1.8066,1.8066,1.8414,1.9246,1.9266,1.9944,2.1174,2.1169,2.1395,2.1909,2.2793,2.3232,0.0,-0.4578,0.0,0.0,0.0,0.0,0.0,0.0,0.0,-0.5067,-0.525,-0.5114,-0.4378,-0.4109,-0.3713,-0.3049,-0.22,-0.1607,-0.1607,-0.1007,-0.0539,-0.0337,-0.0269,-0.0202,0.0,0.0,0.0,0.0,0.0,0.0,0.0,0.0,0.0,0.0,0.0,0.0,0.0,0.0,0.0,0.0,0.0,0.0468,0.1251,0.0389,0.0468,0.1256,0.1605,0.2683,0.4186,0.374,0.4546,0.6151,0.5515,0.5852,0.6711,0.6781,0.6898,0.6885,0.6919,0.6905,0.6905,0.7048,0.6973,0.6837,0.6871,0.7409,0.7983,0.8057,0.8702,0.9485,0.9646,0.9677,0.9536,0.9096,1.0329,1.1626,1.1626,1.2179,1.2585,1.2345,1.2492,1.2572,1.2345,1.2305,1.2278,1.2225,1.2211,1.2718,1.4139,1.4378,1.5258,1.7496,1.746,1.7692,1.8913,1.8691,1.8652,1.8984,1.9023,1.8867,1.8516,1.8496,1.8566,1.8735,1.9081,1.9747,2.073,2.0715,2.1169,2.1909,2.2084,2.264,0.0,0.0,0.0,0.0,0.0,0.0,0.0,0.0,0.0,-0.4435,-0.4262,-0.3951,-0.348,-0.3009,-0.2542,-0.2075,-0.1274,-0.0672,-0.0672,-0.0269,0.0,0.0,0.0,0.0,0.0,0.0,0.0,0.0,0.0,0.0,0.0,0.0,0.0,0.0,0.0,0.0,0.0,0.0426,0.0656,0.0757,0.1226,0.1704,0.2265,0.1719,0.181,0.2468,0.2992,0.3957,0.5136,0.5175,0.5889,0.6959,0.6322,0.6455,0.6987,0.6826,0.6773,0.6831,0.6905,0.6926,0.6953,0.7095,0.6993,0.6844,0.6987,0.7238,0.7682,0.843,0.9025,0.9698,1.0767,1.0913,1.0884,1.1248,1.1569,1.1753,1.1753,1.2439,1.2879,1.2572,1.2714,1.2768,1.2545,1.2639,1.2732,1.2732,1.2732,1.3168,1.4227,1.4835,1.5804,1.7525,1.7972,1.8445,1.9258,1.9082,1.9043,1.9277,1.9297,1.918,1.8965,1.9141,1.9062,1.8652,1.9062,1.9614,2.0272,2.0247,2.0638,2.1251,2.1752,2.244,0.0,0.0,0.0,0.0,0.0,0.0,0.0,0.0,-0.3561,-0.3561,-0.3124,-0.2662,-0.2476,-0.1808,-0.1274,-0.1073,-0.0471,0.0,0.0,0.0,0.0,0.0,0.0,0.0,0.0,0.0,0.0,0.0,0.0,0.0,0.0,0.0,0.0,0.0,0.0,0.0068,0.021,0.0909,0.1506,0.1811,0.2803,0.3297,0.3359,0.3585,0.3624,0.3622,0.4546,0.5157,0.5678,0.6544,0.6993,0.7054,0.6959,0.6947,0.6892,0.678,0.6719,0.6756,0.6885,0.6926,0.6953,0.7095,0.6959,0.679,0.7061,0.7112,0.7438,0.8837,0.937,1.0005,1.185,1.2242,1.2404,1.3093,1.245,1.1636,1.1588,1.2438,1.32,1.2879,1.2903,1.2903,1.2903,1.3039,1.3213,1.3213,1.3213,1.3529,1.4345,1.5188,1.613,1.7208,1.821,1.8972,1.9197,1.936,1.9434,1.9512,1.9512,1.9473,1.9394,1.9805,1.9668,1.8867,1.9277,1.9687,2.0019,2.0036,2.0213,2.0644,2.1411,2.2285,0.0,0.0,0.0,0.0,0.0,0.0,0.0,0.0,-0.1857,0.0,-0.2719,-0.2468,-0.1667,-0.1406,-0.1073,-0.0269,-0.0067,0.0,0.0,0.0,0.0,0.0,0.0,0.0,0.0,0.0,0.0,0.0,0.0,0.0,0.0,0.0,0.0,0.0,0.0,0.0341,0.1118,0.1258,0.1793,0.2715,0.3925,0.4438,0.453,0.5467,0.5401,0.4565,0.491,0.5598,0.6582,0.6914,0.7115,0.7143,0.7054,0.7034,0.7088,0.6959,0.6912,0.6898,0.6919,0.6926,0.6953,0.7095,0.7034,0.6926,0.7088,0.8373,0.9908,1.0277,1.1798,1.3425,1.3762,1.3579,1.3382,1.3506,1.3385,1.3211,1.2962,1.3293,1.3494,1.32,1.3146,1.3146,1.3146,1.3186,1.3213,1.3213,1.3213,1.3293,1.3709,1.3899,1.4469,1.5777,1.6651,1.7622,1.8934,1.9507,2.0,2.0371,2.0391,2.0215,1.9844,2.0254,2.0254,1.9746,2.0176,2.041,2.0469,2.0546,2.0585,2.0566,2.076,2.1257,-0.4106,0.0,0.0,0.0,0.0,0.0,0.0,0.0,-0.1385,-0.1656,-0.1411,-0.1056,-0.0651,-0.0598,-0.0471,-0.0067,0.0,0.0,0.0,0.0,0.0,0.0,0.0,0.0,0.0,0.0,0.0,0.0,0.0,0.0,0.0,0.0,0.0,0.0,0.0471,0.0885,0.1327,0.2336,0.336,0.4499,0.5144,0.5478,0.5628,0.6099,0.6067,0.5744,0.586,0.6249,0.6837,0.6966,0.7068,0.7143,0.7143,0.7143,0.7136,0.7068,0.7048,0.7048,0.7048,0.7048,0.7142,0.7906,0.7989,0.8052,0.8827,0.9686,1.0574,1.1315,1.2334,1.3294,1.3913,1.3988,1.3895,1.3895,1.4015,1.4055,1.3761,1.3801,1.3801,1.3507,1.3454,1.3454,1.3454,1.3587,1.3694,1.3694,1.3694,1.3748,1.3881,1.4365,1.5218,1.6503,1.7426,1.8522,1.9825,2.0159,2.0352,2.0547,2.0566,2.0469,2.0293,2.0469,2.0469,2.0273,2.0469,2.0566,2.0566,2.082,2.0957,2.0936,2.1233,2.1869,0.0,0.0,0.0,0.0,0.0,0.0,0.0,0.0,-0.0983,0.0,-0.0535,0.0,0.0,0.0,0.0,0.0,0.0,0.0,0.0,0.0,0.0,0.0,0.0,0.0,0.0,0.0,0.0,0.0,0.0,0.0,0.0,0.0,0.0135,0.0337,0.094,0.149,0.2003,0.361,0.4837,0.5752,0.5942,0.6091,0.6207,0.624,0.6322,0.6424,0.6498,0.6681,0.6932,0.6966,0.7048,0.7143,0.7143,0.7143,0.7143,0.7143,0.7143,0.7143,0.7143,0.7143,0.7231,0.8193,0.836,0.8443,0.9443,1.0066,1.0647,1.1582,1.2334,1.2942,1.3913,1.4082,1.4082,1.4082,1.4309,1.4469,1.4242,1.4135,1.4015,1.3801,1.3761,1.3761,1.3761,1.3935,1.4082,1.4082,1.4082,1.4082,1.4082,1.481,1.5628,1.637,1.7496,1.8461,1.9274,1.9683,1.9995,2.0311,2.0407,2.0562,2.0898,2.0801,2.0781,2.0898,2.0781,2.0684,2.0566,2.1016,2.1189,2.1167,2.1706,2.2309,0.0,0.0,0.0,0.0,0.0,0.0,0.0,0.0,0.0,-0.0949,-0.0518,0.0,0.0,0.0,0.0,0.0,0.0,0.0,0.0,0.0,0.0,0.0,0.0,0.0,0.0,0.0,0.0,0.0,0.0,0.0,0.0,0.0,0.0404,0.1207,0.1274,0.2144,0.3823,0.4956,0.5513,0.5603,0.5895,0.603,0.6051,0.6193,0.6345,0.6288,0.6566,0.6776,0.6939,0.7075,0.7136,0.7143,0.7143,0.7143,0.7143,0.7143,0.7143,0.7143,0.7143,0.7143,0.7143,0.7136,0.7224,0.7217,0.7224,0.8869,1.0595,1.0692,1.226,1.3997,1.4082,1.4082,1.4082,1.4082,1.4309,1.4522,1.4496,1.4282,1.4082,1.4068,1.4068,1.4068,1.4068,1.4082,1.4082,1.4082,1.4082,1.4082,1.4082,1.4166,1.4166,1.425,1.5213,1.5861,1.5944,1.7151,1.8428,1.9598,1.9859,2.0578,2.1816,2.1426,2.1406,2.1816,2.1406,2.0996,2.0566,2.1016,2.123,2.117,2.168,2.1958,0.0,0.0,0.0,0.0,0.0,0.0,0.0,-0.068,-0.0054,-0.0334,-0.017,0.0,0.0,0.0,0.0,0.0,0.0,0.0,0.0,0.0,0.0,0.0,0.0,0.0,0.0,0.0,0.0,0.0,0.0,0.0259,0.0808,0.0807,0.1276,0.2147,0.2746,0.3613,0.4888,0.5279,0.5542,0.5725,0.5833,0.5989,0.6179,0.6234,0.6308,0.641,0.6614,0.6695,0.6778,0.6833,0.6919,0.7143,0.7143,0.7143,0.7143,0.7143,0.7143,0.7143,0.7143,0.7143,0.7224,0.8017,0.8711,0.9479,1.026,1.1563,1.2869,1.2869,1.3604,1.4362,1.4362,1.4509,1.4696,1.4883,1.487,1.4856,1.5044,1.4856,1.4656,1.4656,1.4656,1.4656,1.4656,1.4656,1.4656,1.4656,1.4656,1.4576,1.4389,1.4362,1.4538,1.5075,1.5462,1.6035,1.7,1.7479,1.8062,1.8634,1.8769,1.9366,2.0652,2.0504,2.0855,2.1875,2.1738,2.1582,2.1426,2.1836,2.2051,2.207,2.25,2.2695,0.0,0.0,0.0,0.0,0.0,-0.1415,-0.1096,0.0,0.0,0.0,0.0,0.0,0.0,0.0,0.0,0.0,0.0,0.0,0.0,0.0,0.0,0.0,0.0,0.0,0.0,0.0,0.0116,0.0378,0.0381,0.0834,0.1633,0.1694,0.2155,0.3041,0.3997,0.4755,0.5359,0.5425,0.5488,0.5732,0.5779,0.5935,0.6186,0.624,0.6393,0.6489,0.6592,0.6675,0.6743,0.6812,0.6905,0.7143,0.7143,0.7143,0.7143,0.7143,0.7143,0.7143,0.7143,0.7401,0.7826,0.8623,0.9662,1.0778,1.1466,1.2589,1.3464,1.3464,1.3939,1.4522,1.4522,1.4736,1.503,1.5324,1.5244,1.519,1.5484,1.5244,1.4963,1.4963,1.4963,1.4963,1.4963,1.4963,1.4963,1.4963,1.4963,1.4897,1.4696,1.4669,1.4851,1.539,1.5447,1.5874,1.6783,1.6891,1.7234,1.7787,1.8017,1.8787,2.0354,2.0296,2.0911,2.2305,2.2168,2.2168,2.2305,2.2441,2.2519,2.2519,2.2949,2.3144,0.0,0.0,0.0,0.0,0.0,0.0,-0.0889,0.0,0.0,0.0,0.0,0.0,0.0,0.0,0.0,0.0,0.0,0.0,0.0,0.0,0.0,0.0,0.0,0.006,0.006,0.0057,0.0336,0.106,0.1256,0.1703,0.2475,0.2577,0.2981,0.3844,0.4885,0.5425,0.5425,0.5425,0.544,0.5596,0.5732,0.5881,0.6044,0.6193,0.6338,0.65,0.6514,0.6659,0.6936,0.7041,0.7122,0.7143,0.7143,0.7143,0.7143,0.7143,0.7143,0.7143,0.7143,0.7826,0.8852,0.8877,0.9662,1.0616,1.0605,1.1466,1.2322,1.2334,1.341,1.4536,1.4549,1.4776,1.5057,1.5337,1.5404,1.5484,1.5765,1.5391,1.499,1.499,1.499,1.499,1.499,1.499,1.499,1.499,1.499,1.499,1.4977,1.4977,1.4977,1.4963,1.4963,1.4963,1.4977,1.5231,1.5929,1.7085,1.7505,1.8688,2.1069,2.0853,2.1447,2.3038,2.2734,2.2734,2.3144,2.2734,2.2539,2.2539,2.2949,2.3144,-0.0489,0.0,0.0,0.0,0.0,0.0,-0.0369,-0.0141,0.0,0.0,0.0,0.0,0.0,0.0,0.0,0.0,0.0,0.0,0.0,0.0,0.0,0.0,0.0458,0.0797,0.0797,0.1295,0.1696,0.1864,0.1939,0.2377,0.3396,0.4186,0.4724,0.4963,0.5272,0.5425,0.5425,0.5425,0.5488,0.5745,0.5789,0.5947,0.62,0.624,0.6338,0.6359,0.6559,0.6702,0.6729,0.6905,0.7014,0.7143,0.7143,0.7143,0.7143,0.7143,0.7143,0.7143,0.7143,0.7312,0.7746,0.8623,0.9662,1.0778,1.1552,1.2687,1.36,1.3806,1.434,1.4937,1.5351,1.5524,1.5605,1.5698,1.5712,1.5725,1.5805,1.5698,1.5591,1.5591,1.5591,1.5591,1.5591,1.5591,1.5591,1.5591,1.5591,1.5511,1.5297,1.5284,1.5204,1.499,1.4963,1.5057,1.5257,1.5351,1.567,1.614,1.625,1.703,1.8596,1.9397,2.048,2.1747,2.2572,2.3027,2.3144,2.3027,2.2969,2.2969,2.3086,2.3144,0.0,0.0,0.0,0.0,0.0,0.0,-0.0094,0.0,0.0,0.0,0.0,0.0,0.0,0.0,0.0,0.0,0.0,0.0,0.0,0.0,0.0115,0.0449,0.0838,0.1229,0.1509,0.1952,0.231,0.2657,0.2719,0.3203,0.4198,0.5009,0.5332,0.527,0.5325,0.5425,0.5425,0.5425,0.5481,0.5711,0.5748,0.5899,0.6215,0.6297,0.6338,0.6366,0.6589,0.6754,0.6786,0.6957,0.7007,0.7143,0.7143,0.7143,0.7143,0.7143,0.7143,0.7136,0.7665,0.8177,0.8765,0.9913,1.1133,1.2186,1.2991,1.3728,1.4335,1.4616,1.4923,1.5244,1.5712,1.5832,1.5832,1.5832,1.5832,1.5832,1.5832,1.5832,1.5832,1.5832,1.5832,1.5832,1.5832,1.5832,1.5832,1.5832,1.5832,1.5765,1.5605,1.5578,1.5511,1.5337,1.5324,1.5391,1.5565,1.5578,1.5645,1.5818,1.5832,1.6386,1.7684,1.8856,2.0042,2.1302,2.2031,2.2315,2.2315,2.2862,2.3144,2.3144,2.3144,2.3144,0.0,0.0,0.0,0.0,0.0,0.0,0.0,0.0,0.0,0.0,0.0,0.0,0.0,0.0,0.0,0.0,0.0,0.0,0.0,0.0,0.028,0.1006,0.1174,0.1506,0.223,0.2397,0.273,0.34,0.3588,0.4068,0.4834,0.5185,0.5264,0.5162,0.527,0.5411,0.5425,0.5425,0.5507,0.5596,0.5762,0.5901,0.6077,0.6256,0.6338,0.645,0.6675,0.6737,0.6926,0.7041,0.7143,0.7143,0.7143,0.7143,0.7143,0.7143,0.7224,0.7489,0.8544,0.9643,1.0813,1.1969,1.3027,1.3965,1.4342,1.4522,1.4589,1.4923,1.5217,1.5511,1.5765,1.5832,1.5832,1.5832,1.5832,1.5832,1.5832,1.5832,1.5832,1.5832,1.5832,1.5832,1.5832,1.5832,1.5832,1.5832,1.5832,1.5832,1.5832,1.5832,1.5832,1.5832,1.5832,1.5832,1.5832,1.5832,1.5832,1.5832,1.5832,1.6292,1.7404,1.8688,1.977,2.0836,2.1016,2.1105,2.1105,2.2315,2.295,2.3144,2.295,2.295,0.0,0.0,0.0,0.0,0.0,0.0,0.0,0.0,0.0,0.0,0.0,0.0,0.0,0.0,0.0,0.0,0.0,0.0,0.0,0.0,0.028,0.1006,0.1618,0.2286,0.3012,0.3677,0.4125,0.4236,0.4409,0.4604,0.4884,0.4965,0.5101,0.5311,0.5223,0.5237,0.5425,0.5425,0.5528,0.579,0.5773,0.5987,0.6283,0.6318,0.6338,0.6359,0.6634,0.6739,0.6734,0.6987,0.7143,0.7143,0.7143,0.7143,0.7143,0.7143,0.7753,0.8544,0.8807,0.968,1.0819,1.1906,1.2443,1.2857,1.4082,1.4522,1.4629,1.5164,1.5524,1.5752,1.5818,1.5832,1.5832,1.5832,1.5832,1.5832,1.5832,1.5832,1.5832,1.5832,1.5832,1.5832,1.5832,1.5832,1.5832,1.5832,1.5832,1.5832,1.5832,1.5832,1.5832,1.5832,1.5832,1.5832,1.5832,1.5832,1.5832,1.5832,1.5832,1.5927,1.6197,1.7404,1.8133,1.8411,1.9405,1.9844,1.9844,2.1033,2.212,2.3057,2.212,2.2208,0.0,0.0,0.0,0.0,0.0,0.0,0.0,0.0,0.0,0.0,0.0,0.0,0.0,0.0,0.0,0.0,0.0,0.0,0.0,0.0331,0.0818,0.1578,0.232,0.3067,0.3849,0.4236,0.4519,0.4519,0.4606,0.4755,0.4911,0.4986,0.5128,0.5418,0.5284,0.5284,0.5425,0.5425,0.548,0.5719,0.5755,0.5945,0.6122,0.6277,0.6338,0.6281,0.662,0.6713,0.6681,0.6967,0.7143,0.7143,0.7143,0.7143,0.7136,0.7753,0.8368,0.9061,1.0183,1.0971,1.1671,1.2784,1.331,1.3572,1.448,1.495,1.5231,1.5524,1.5712,1.5832,1.5832,1.5832,1.5832,1.5832,1.5832,1.5832,1.5832,1.5832,1.5832,1.5832,1.5832,1.5832,1.5832,1.5832,1.5832,1.5832,1.5832,1.5832,1.5832,1.5832,1.5832,1.5832,1.5832,1.5832,1.5832,1.5832,1.5832,1.5832,1.5832,1.5832,1.5832,1.703,1.7684,1.7684,1.8872,1.9222,1.8596,1.9222,2.0133,2.132,2.1302,2.1658,0.0,0.0,0.0,0.0,0.0,0.0054,0.0,0.0,0.0,0.0,0.0,0.0,0.0,0.0,0.0,0.0,0.0,0.0,0.0,0.0747,0.0,0.1925,0.2672,0.3434,0.4181,0.4408,0.4519,0.4519,0.4579,0.4714,0.4863,0.4986,0.5128,0.5311,0.5318,0.5332,0.5425,0.5425,0.5498,0.5638,0.5759,0.5884,0.6051,0.6193,0.6338,0.6281,0.6552,0.6713,0.6746,0.696,0.7143,0.7143,0.7326,0.7408,0.757,0.8807,0.9331,0.9836,1.1649,1.2419,1.2857,1.3815,1.4322,1.4656,1.4963,1.5418,1.5832,1.5832,1.5832,1.5832,1.5832,1.5832,1.5832,1.5832,1.5832,1.5832,1.5832,1.5832,1.5832,1.5832,1.5832,1.5832,1.5832,1.5832,1.5832,1.5832,1.5832,1.5832,1.5832,1.5832,1.5832,1.5832,1.5832,1.5832,1.5832,1.5832,1.5832,1.5832,1.5832,1.5832,1.5832,1.6763,1.7311,1.7311,1.8319,1.8319,1.7311,1.7591,1.8411,1.9861,2.0567,2.1212,0.0,0.0,0.0,0.0,0.0502,0.0,0.0,0.0,0.0,0.0,0.0,0.0,0.0,0.0,0.0,0.0,0.0,0.0,0.0,0.1094,0.1711,0.1268,0.1793,0.2485,0.3335,0.407,0.4519,0.4519,0.4532,0.4558,0.4707,0.4728,0.487,0.5148,0.5155,0.5223,0.5425,0.5425,0.5498,0.5778,0.5828,0.6,0.6235,0.6304,0.6338,0.6352,0.6579,0.6723,0.6736,0.7021,0.7143,0.7231,0.8239,0.8656,0.886,0.996,1.1079,1.1992,1.2198,1.2966,1.3913,1.4082,1.4469,1.4963,1.5257,1.5578,1.5832,1.5832,1.5832,1.5832,1.5832,1.5832,1.5832,1.5832,1.5832,1.5832,1.5832,1.5832,1.5832,1.5832,1.5832,1.5832,1.5832,1.5832,1.5832,1.5832,1.5832,1.5832,1.5832,1.5832,1.5832,1.5832,1.5832,1.5832,1.5832,1.5832,1.5832,1.5832,1.5832,1.5832,1.5832,1.5927,1.6021,1.6021,1.6103,1.6103,1.6021,1.7124,1.8856,2.1105,2.0116,2.0854,0.0,0.0,0.0,0.0,0.0,0.0,0.1028,0.0,0.0757,0.0,0.0,0.0,0.0,0.0,0.0,0.0,0.064,0.0794,0.0,0.0,0.2391,0.1836,0.2276,0.2853,0.3335,0.407,0.4519,0.4519,0.4519,0.4587,0.468,0.4694,0.4823,0.5121,0.5128,0.5203,0.5425,0.5474,0.5603,0.5823,0.5874,0.6022,0.6338,0.6338,0.6338,0.6352,0.6613,0.6668,0.6722,0.7021,0.7143,0.7319,0.9164,0.905,0.8002,0.92,1.0326,1.1466,1.231,1.3322,1.4369,1.475,1.5017,1.5271,1.5565,1.5725,1.5832,1.5832,1.5832,1.5832,1.5832,1.5832,1.5832,1.5832,1.5832,1.5832,1.5832,1.5832,1.5832,1.5832,1.5832,1.5832,1.5832,1.5832,1.5832,1.5832,1.5832,1.5832,1.5832,1.5832,1.5832,1.5832,1.5832,1.5832,1.5832,1.5832,1.5832,1.5832,1.5832,1.5832,1.5832,1.5832,1.5832,1.5832,1.5832,1.5912,1.6086,1.6649,1.8233,2.0857,2.0685,2.1248,0.2174,0.0,0.0,0.0,0.0,0.0,0.0,0.0,0.0,0.0,0.0,0.0,0.0,0.0,0.0,0.0,0.0,0.1563,0.0,0.2724,0.0,0.0,0.2755,0.3194,0.3299,0.4051,0.4519,0.4519,0.4519,0.4567,0.4619,0.4667,0.4809,0.5067,0.5108,0.5203,0.5425,0.5508,0.5637,0.5816,0.5881,0.6046,0.6338,0.6338,0.6338,0.6274,0.6573,0.6702,0.6722,0.7361,0.7577,0.776,0.9809,0.9517,0.8273,0.9777,1.084,1.1705,1.2832,1.3896,1.472,1.5206,1.5391,1.5444,1.5738,1.5832,1.5832,1.5832,1.5832,1.5832,1.5832,1.5832,1.5832,1.5832,1.5832,1.5832,1.5832,1.5832,1.5832,1.5832,1.5832,1.5832,1.5832,1.5832,1.5832,1.5832,1.5832,1.5832,1.5832,1.5832,1.5832,1.5832,1.5832,1.5832,1.5832,1.5832,1.5832,1.5832,1.5832,1.5832,1.5832,1.5832,1.5832,1.5832,1.5912,1.6059,1.6273,1.7106,1.8514,2.0649,2.0957,2.1697,0.0,0.0,0.0,0.3035,0.0,0.0,0.0,0.0,0.2203,0.0,0.0,0.0,0.0,0.0,0.0,0.0,0.0,0.0,0.0,0.0,0.0,0.2272,0.2892,0.0,0.3144,0.3941,0.4519,0.4519,0.4519,0.4519,0.4525,0.4613,0.4762,0.4918,0.506,0.5203,0.5425,0.5432,0.5562,0.5802,0.5808,0.5996,0.6338,0.6338,0.6338,0.6274,0.6573,0.6702,0.6805,0.8225,0.8798,0.899,1.0162,1.0562,1.0733,1.3085,1.3999,1.3991,1.4358,1.4639,1.5012,1.5272,1.5391,1.5444,1.5738,1.5832,1.5832,1.5832,1.5832,1.5832,1.5832,1.5832,1.5832,1.5832,1.5832,1.5832,1.5832,1.5832,1.5832,1.5832,1.5832,1.5832,1.5832,1.5832,1.5832,1.5832,1.5832,1.5832,1.5832,1.5832,1.5832,1.5832,1.5832,1.5832,1.5832,1.5832,1.5832,1.5832,1.5832,1.5832,1.5832,1.5832,1.5832,1.5832,1.6112,1.6259,1.6273,1.914,2.0457,2.057,2.0649,2.1984,0.3732,0.0,0.3677,0.3355,0.0,0.0,0.0,0.0,0.0,0.0,0.0,0.0,0.0,0.0,0.0,0.0,0.0,0.0,0.0,0.0,0.3881,0.3565,0.0,0.0,0.0,0.399,0.4519,0.4519,0.4519,0.4519,0.4519,0.4606,0.4762,0.4911,0.5053,0.5203,0.5425,0.546,0.5623,0.5781,0.5882,0.6091,0.6338,0.6338,0.6315,0.6489,0.7415,0.7907,0.8119,0.9465,1.0009,1.0193,1.1522,1.2065,1.2095,1.2135,1.2637,1.3433,1.4694,1.5285,1.5507,1.5617,1.5685,1.5698,1.5805,1.5832,1.5832,1.5832,1.5832,1.5832,1.5832,1.5832,1.5832,1.5832,1.5832,1.5832,1.5832,1.5832,1.5832,1.5832,1.5832,1.5832,1.5832,1.5832,1.5832,1.5832,1.5832,1.5832,1.5832,1.5832,1.5832,1.5832,1.5832,1.5832,1.5832,1.5832,1.5832,1.5832,1.5832,1.5832,1.5832,1.5832,1.5832,1.5832,1.6126,1.6842,1.7905,1.9102,2.067,2.2681,2.2681,2.3432,0.4519,0.4519,0.4353,0.3843,0.3732,0.0,0.3788,0.0,0.0,0.0,0.0,0.0,0.0,0.0,0.0,0.0,0.0,0.0,0.0,0.4519,0.0,0.4334,0.0,0.0,0.0,0.4155,0.4519,0.4519,0.4519,0.4519,0.4519,0.4558,0.4707,0.4911,0.5006,0.5155,0.5425,0.5515,0.5657,0.58,0.5956,0.6112,0.6338,0.6641,0.6962,0.7198,0.8397,0.9082,0.9377,1.0686,1.1209,1.1391,1.2869,1.3361,1.3299,1.2687,1.3004,1.3913,1.5045,1.5615,1.5832,1.5832,1.5832,1.5832,1.5832,1.5832,1.5832,1.5832,1.5832,1.5832,1.5832,1.5832,1.5832,1.5832,1.5832,1.5832,1.5832,1.5832,1.5832,1.5832,1.5832,1.5832,1.5832,1.5832,1.5832,1.5832,1.5832,1.5832,1.5832,1.5832,1.5832,1.5832,1.5832,1.5832,1.5832,1.5832,1.5832,1.5832,1.5832,1.5832,1.5832,1.5832,1.5925,1.6139,1.6326,1.7103,1.8311,1.9512,2.1127,2.2968,2.3998,2.4771]},{"header":{"parameterUnit":"m.s-1","parameterCategory":1,"la1":30.6,"la2":29.2853,"lo1":-89.7004,"lo2":-87.6739,"dy":0.0162,"dx":0.0183,"nx":112,"ny":82,"refTime":"2023-11-04T00:00:00:Z","depth":0,"parameterNumber":3,"parameterNumberName":"V-component_of_WINDS"},"data":[0.0,0.0,0.0,0.0,0.0,0.0,0.0,0.0,0.0,0.0,0.0,0.0,0.0,0.0,0.0,0.0,0.0,0.0,0.0,0.0,0.0,0.0,0.0,0.0,0.0,0.0,0.0,0.0,0.0,0.0,0.0,0.0,0.0,0.0,0.0,0.0,0.0,0.0,0.0,0.0,0.0,0.0,0.0,0.0,0.0,0.0,0.0,0.0,0.0,0.0,0.0,0.0,0.0,0.0,0.0,0.0,0.0,0.0,0.0,0.0,0.0,0.0,0.0,0.0,0.0,0.0,0.0,0.0,0.0,0.0,0.0,0.0,0.0,0.0,0.0,0.0,0.0,0.0,0.0,0.0,0.0,0.0,0.0,0.0,0.0,0.0,0.0,0.0,0.0,0.0,-0.2351,0.0301,0.3062,0.4731,0.4671,0.5692,0.6318,0.6201,0.0,0.0,0.0,0.0,0.0,0.0,0.0,0.0,0.0,0.0,0.0,0.0,0.0,0.0,0.0,0.0,0.0,0.0,0.0,0.0,0.0,0.0,0.0,0.0,0.0,0.0,0.0,0.0,0.0,0.0,0.0,0.0,0.0,0.0,0.0,0.0,0.0,0.0,0.0,0.0,0.0,0.0,0.0,0.0,0.0,0.0,0.0,0.0,0.0,0.0,0.0,0.0,0.0,0.0,0.0,0.0,0.0,0.0,0.0,0.0,0.0,0.0,0.0,0.0,0.0,0.0,0.0,0.0,0.0,0.0,0.0,0.0,0.0,0.0,0.0,0.0,0.0,0.0,0.0,0.0,0.0,0.0,0.0,0.0,0.0,0.0,0.0,0.0,0.0,0.0,0.0,0.0,0.0,0.0,0.0,0.0,0.0,0.0,0.0,0.0,0.0,0.0,0.0,0.0,-0.1504,0.1941,0.361,0.4348,0.4059,0.482,0.5565,0.6153,0.0,0.0,0.0,0.0,0.0,0.0,0.0,0.0,0.0,0.0,0.0,0.0,0.0,0.0,0.0,0.0,0.0,0.0,0.0,0.0,0.0,0.0,0.0,0.0,0.0,0.0,0.0,0.0,0.0,0.0,0.0,0.0,0.0,0.0,0.0,0.0,0.0,0.0,0.0,0.0,0.0,0.0,0.0,0.0,0.0,0.0,0.0,0.0,0.0,0.0,0.0,0.0,0.0,0.0,0.0,0.0,0.0,0.0,0.0,0.0,0.0,0.0,0.0,0.0,0.0,0.0,0.0,0.0,0.0,0.0,0.0,0.0,0.0,0.0,0.0,0.0,0.0,0.0,0.0,0.0,0.0,0.0,0.0,0.0,0.0,0.0,0.0,0.0,0.0,0.0,0.0,0.0,0.0,0.0,0.0,0.0,0.0,0.0,0.0,0.0,0.0,0.0,0.0,-0.2128,-0.0116,0.2424,0.3606,0.4258,0.429,0.4519,0.4991,0.5756,0.556,0.0,0.0,0.0,0.0,0.0,0.0,0.0,0.0,0.0,0.0,0.0,0.0,0.0,0.0,0.0,0.0,0.0,0.0,0.0,0.0,0.0,0.0,0.0,0.0,0.0,0.0,0.0,0.0,0.0,0.0,0.0,0.0,0.0,0.0,0.0,0.0,0.0,0.0,0.0,0.0,0.0,0.0,0.0,0.0,0.0,0.0,0.0,0.0,0.0,0.0,0.0,0.0,0.0,0.0,0.0,0.0,0.0,0.0,0.0,0.0,0.0,0.0,0.0,0.0,0.0,0.0,0.0,0.0,0.0,0.0,0.0,0.0,0.0,0.0,0.0,0.0,0.0,0.0,0.0,0.0,0.0,0.0,0.0,0.0,0.0,0.0,0.0,0.0,0.0,0.0,0.0,0.0,0.0,0.0,0.0,0.0,0.0,0.0,0.0,0.0,0.0,0.0,-0.139,0.0887,0.2405,0.3289,0.3883,0.4157,0.4007,0.4288,0.5258,0.4685,0.0,0.0,0.0,0.0,0.0,0.0,0.0,0.0,0.0,0.0,0.0,0.0,0.0,0.0,0.0,0.0,0.0,0.0,0.0,0.0,0.0,0.0,0.0,0.0,0.0,0.0,0.0,0.0,0.0,0.0,0.0,0.0,0.0,0.0,0.0,0.0,0.0,0.0,0.0,0.0,0.0,0.0,0.0,0.0,0.0,0.0,0.0,0.0,0.0,0.0,0.0,0.0,0.0,0.0,0.0,0.0,0.0,0.0,0.0,0.0,0.0,0.0,0.0,0.0,0.0,0.0,0.0,0.0,0.0,0.0,0.0,0.0,0.0,0.0,0.0,0.0,0.0,0.0,0.0,0.0,0.0,0.0,0.0,0.0,0.0,0.0,0.0,0.0,0.0,0.0,0.0,0.0,0.0,0.0,0.0,0.0,0.0,0.0,0.0,0.0,0.0,0.0,-0.0635,0.0801,0.209,0.2564,0.2845,0.2918,0.274,0.3241,0.4678,0.4362,0.0,0.0,0.0,0.0,0.0,0.0,0.0,0.0,0.0,0.0,0.0,0.0,0.0,0.0,0.0,0.0,0.0,0.0,0.0,0.0,0.0,0.0,0.0,0.0,0.0,0.0,0.0,0.0,0.0,0.0,0.0,0.0,0.0,0.0,0.0,0.0,0.0,0.0,0.0,0.0,0.0,0.0,0.0,0.0,0.0,0.0,0.0,0.0,0.0,0.0,0.0,0.0,0.0,0.0,0.0,0.0,0.0,0.0,0.0,0.0,0.0,0.0,0.0,0.0,0.0,0.0,0.0,0.0,0.0,0.0,0.0,0.0,0.0,0.0,0.0,0.0,0.0,0.0,0.0,0.0,0.0,0.0,0.0,0.0,0.0,0.0,0.0,0.0,0.0,0.0,0.0,0.0,0.0,0.0,0.0,0.0,0.0,0.0,0.0,0.0,0.0,0.0,-0.0364,0.1071,0.0,0.24,0.2568,0.2659,0.2459,0.2823,0.3991,0.0,0.0,0.0,0.0,0.0,0.0,0.0,0.0,0.0,0.0,0.0,0.0,0.0,0.0,0.0,0.0,0.0,0.0,0.0,0.0,0.0,0.0,0.0,0.0,0.0,0.0,0.0,0.0,0.0,0.0,0.0,0.0,0.0,0.0,0.0,0.0,0.0,0.0,0.0,0.0,0.0,0.0,0.0,0.0,0.0,0.0,0.0,0.0,0.0,0.0,0.0,0.0,0.0,0.0,0.0,0.0,0.0,0.0,0.0,0.0,0.0,0.0,0.0,0.0,0.0,0.0,0.0,0.0,0.0,0.0,0.0,0.0,0.0,0.0,0.0,0.0,0.0,0.0,0.0,0.0,0.0,0.0,0.0,0.0,0.0,0.0,0.0,0.0,0.0,0.0,0.0,0.0,0.0,0.0,0.0,0.0,0.0,0.0,0.0,0.0,0.0,0.0,-0.2336,-0.0329,0.1194,0.0,0.2161,0.224,0.2287,0.21,0.2389,0.3348,0.0,0.0,0.0,0.0,0.0,0.0,0.0,0.0,0.0,0.0,0.0,0.0,0.0,0.0,0.0,0.0,0.0,0.0,0.0,0.0,0.0,0.0,0.0,0.0,0.0,0.0,0.0,0.0,0.0,0.0,0.0,0.0,0.0,0.0,0.0,0.0,0.0,0.0,0.0,0.0,0.0,0.0,0.0,0.0,0.0,0.0,0.0,0.0,0.0,0.0,0.0,0.0,0.0,0.0,0.0,0.0,0.0,0.0,0.0,0.0,0.0,0.0,0.0,0.0,0.0,0.0,0.0,0.0,0.0,0.0,0.0,0.0,0.0,0.0,0.0,0.0,0.0,0.0,0.0,0.0,0.0,0.0,0.0,0.0,0.0,0.0,0.0,0.0,0.0,0.0,0.0,0.0,0.0,0.0,0.0,0.0,0.0,0.0,0.0,0.0,0.0,0.0,-0.2824,-0.0542,0.1133,0.174,0.1809,0.1737,0.1608,0.1532,0.1866,0.0,0.0,0.0,0.0,0.0,0.0,0.0,0.0,0.0,0.0,0.0,0.0,0.0,0.0,0.0,0.0,0.0,0.0,0.0,0.0,0.0,0.0,0.0,0.0,0.0,0.0,0.0,0.0,0.0,0.0,0.0,0.0,0.0,0.0,0.0,0.0,0.0,0.0,0.0,0.0,0.0,0.0,0.0,0.0,0.0,0.0,0.0,0.0,0.0,0.0,0.0,0.0,0.0,0.0,0.0,0.0,0.0,0.0,0.0,0.0,0.0,0.0,0.0,0.0,0.0,0.0,0.0,0.0,0.0,0.0,0.0,0.0,0.0,0.0,0.0,0.0,0.0,0.0,0.0,0.0,0.0,0.0,0.0,0.0,0.0,0.0,0.0,0.0,0.0,0.0,0.0,0.0,0.0,0.0,0.0,0.0,0.0,0.0,0.0,0.0,0.0,0.0,0.0,-0.2824,-0.0553,0.1134,0.1743,0.1723,0.1592,0.1407,0.1282,0.1477,0.2052,0.0,0.0,0.0,0.0,0.0,0.0,0.0,0.0,0.0,0.0,0.0,0.0,0.0,0.0,0.0,0.0,0.0,0.0,0.0,0.0,0.0,0.0,0.0,0.0,0.0,0.0,0.0,0.0,0.0,0.0,0.0,0.0,0.0,0.0,0.0,0.0,0.0,0.0,0.0,0.0,0.0,0.0,0.0,0.0,0.0,0.0,0.0,0.0,0.0,0.0,0.0,0.0,0.0,0.0,0.0,0.0,0.0,0.0,0.0,0.0,0.0,0.0,0.0,0.0,0.0,0.0,0.0,0.0,0.0,0.0,0.0,0.0,0.0,0.0,0.0,0.0,0.0,0.0,0.0,0.0,0.0,0.0,0.0,0.0,0.0,0.0,0.0,0.0,0.0,0.0,0.0,0.0,0.0,0.0,0.0,0.0,0.0,0.0,0.0,0.0,0.0,0.0,-0.2819,-0.056,0.1141,0.1731,0.1682,0.1552,0.142,0.1219,0.1304,0.1771,0.0,0.0,0.0,0.0,0.0,0.0,0.0,0.0,0.0,0.0,0.0,0.0,0.0,0.0,0.0,0.0,0.0,0.0,0.0,0.0,0.0,0.0,0.0,0.0,0.0,0.0,0.0,0.0,0.0,0.0,0.0,0.0,0.0,0.0,0.0,0.0,0.0,0.0,0.0,0.0,0.0,0.0,0.0,0.0,0.0,0.0,0.0,0.0,0.0,0.0,0.0,0.0,0.0,0.0,0.0,0.0,0.0,0.0,0.0,0.0,0.0,0.0,0.0,0.0,0.0,0.0,0.0,0.0,0.0,0.0,0.0,0.0,0.0,0.0,0.0,0.0,0.0,0.0,0.0,0.0,0.0,0.0,0.0,0.0,0.0,0.0,0.0,0.0,0.0,0.0,0.0,0.0,0.0,0.0,0.0,0.0,0.0,0.0,0.0,0.0,0.0,0.0,-0.2817,-0.0562,0.1141,0.1731,0.1682,0.1606,0.1606,0.1289,0.1289,0.1739,0.0,0.0,0.0,0.0,0.0,0.0,0.0,0.0,0.0,0.0,0.0,0.0,0.0,0.0,0.0,0.0,0.0,0.0,0.0,0.0,0.0,0.0,0.0,0.0,0.0,0.0,0.0,0.0,0.0,0.0,0.0,0.0,0.0,0.0,0.0,0.0,0.0,0.0,0.0,0.0,0.0,0.0,0.0,0.0,0.0,0.0,0.0,0.0,0.0,0.0,0.0,0.0,0.0,0.0,0.0,0.0,0.0,0.0,0.0,0.0,0.1413,0.0,0.0,0.0,0.0,0.0,0.0,0.0,0.0,0.0,0.0,0.0,0.0,0.0,0.0,0.0,0.0,0.0,0.0,0.0,0.0,0.0,0.0,0.0,0.0,0.0,0.0,0.0,0.0,0.0,0.0,0.0,0.0,0.0,0.0,0.0,0.0,0.0,0.0,0.0,0.0,0.0,-0.2735,-0.0562,0.1141,0.1731,0.1682,0.1606,0.1606,0.1289,0.1239,0.1551,0.1364,0.0,0.0,0.0,0.0,0.0,0.0,0.0,0.0,0.0,0.0,0.0,0.0,0.0,0.0,0.0,0.0,0.0,0.0,0.0,0.0,0.0,0.0,0.0,0.0,0.0,0.0,0.0,0.0,0.0,0.0,0.0,0.0,0.0,0.0,0.0,0.0,0.0,0.0,0.0,0.0,0.0,0.0,0.0,0.0,0.0,0.0,0.0,0.0,0.0,0.0,0.0,0.0,0.0,0.0,0.0,0.0,0.0,0.0,0.0,0.0,0.334,0.0,0.0,0.0,0.0,0.0,0.0,0.0,0.0,0.0,0.0,0.0,0.0,0.0,0.0,0.0,0.0,0.0,0.0,0.0,0.0,0.0,0.0,0.0,0.0,0.0,0.0,0.0,0.0,0.0,0.0,0.0,0.0,0.0,0.0,0.0,0.0,0.0,0.0,0.0,0.0,-0.1723,-0.0098,0.1141,0.1731,0.1744,0.1689,0.1689,0.1483,0.1353,0.1409,0.1331,0.0,0.0,0.0,0.0,0.0,0.0,0.0,0.0,0.0,0.0,0.0,0.0,0.0,0.0,0.0,0.0,0.0,0.0,0.0,0.0,0.0,0.0,0.0,0.0,0.0,0.0,0.0,0.0,0.0,0.0,0.0,0.0,0.0,0.0,0.0,0.0,0.0,0.0,0.0,0.0,0.0,0.0,0.0,0.0,0.0,0.0,0.0,0.0,0.0,0.0,0.0,0.0,0.0,0.3561,0.435,0.5369,0.5487,0.5392,0.5019,0.363,0.3653,0.4701,0.5091,0.0,0.0,0.0,0.0,0.0,0.0,0.0,0.0,0.0,0.0,0.0,0.0,0.0,0.0,0.0,0.0,0.0,0.0,0.0,0.0,0.0,0.0,0.2434,0.2408,0.2455,0.2452,0.2284,0.0,0.0,0.0,0.0,0.0,0.0,0.0,0.0,0.0,0.0,0.0,-0.0572,0.0487,0.1252,0.1753,0.1813,0.1806,0.1806,0.1676,0.1531,0.1391,0.1419,0.1284,0.0,0.0,0.0,0.0,0.0,0.0,0.0,0.0,0.0,0.0,0.0,0.0,0.0,0.0,0.0,0.0,0.0,0.0,0.0,0.0,0.0,0.0,0.0,0.0,0.0,0.0,0.0,0.0,0.0,0.0,0.0,0.0,0.8966,0.7592,0.0,0.0,0.0,0.0,0.0,0.0,0.0,0.0,0.0,0.0,0.0,0.0,0.0,0.1911,0.3373,0.3399,0.3873,0.4782,0.4835,0.5421,0.6432,0.708,0.6532,0.5078,0.4866,0.0,0.3045,0.4525,0.0,0.0,0.0,0.0,0.0,0.0,0.0,0.0,0.0,0.0,0.0,0.0,0.0,0.0,0.0,0.0,0.0,0.0,0.0,0.0,0.0,0.0,0.2618,0.2513,0.2486,0.2509,0.2458,0.217,0.1719,0.1158,0.0615,-0.0029,0.0,0.0,0.0,0.0,0.0,0.0,-0.0436,0.0825,0.1708,0.1798,0.1813,0.1806,0.1806,0.1676,0.1637,0.1738,0.1431,0.0912,0.0167,0.076,0.0,0.0,0.0,0.0,0.0,0.0,0.0,0.0,0.0,0.0,0.0,0.0,0.0,0.0,0.0,0.0,0.0,0.0,0.0,0.0,0.0,0.0,0.0,0.0,0.0,0.0,0.0,0.0,0.0,1.1576,1.0399,0.8118,0.791,0.7625,0.0,0.0,0.0,0.0,0.0,0.0,0.0,0.0,0.0,0.311,0.3483,0.4376,0.5852,0.545,0.6112,0.7791,0.6531,0.6831,0.8431,0.7486,0.6906,0.651,0.5524,0.4696,0.4063,0.4793,0.4959,0.4767,0.0,0.0,0.0,0.0,0.1865,0.2068,0.2892,0.3304,0.3569,0.4117,0.0,0.0,0.0,0.0,0.0,0.0,0.0,0.1865,0.2187,0.2801,0.318,0.2634,0.2864,0.3101,0.2694,0.2454,0.2218,0.1783,0.1633,0.1391,0.0912,0.0356,0.0,0.0,0.0,-0.0207,0.0175,0.115,0.1798,0.1791,0.1806,0.1806,0.1806,0.1744,0.1641,0.147,0.1185,0.0842,0.0415,0.0396,0.0802,0.0,0.0,0.0,0.0,0.0,0.0,0.0,0.0,0.0,0.0,0.0,0.0,0.0,0.0,0.0,0.0,0.0,0.0,0.0,0.0,0.0,0.0,0.0,0.0,0.0,0.0,0.0,0.0,1.2394,1.1248,0.873,0.8589,0.8415,0.0,0.0,0.0,0.0,0.0,0.0,0.6006,0.3899,0.3435,0.5083,0.5916,0.6683,0.7414,0.7101,0.7658,0.9055,0.7606,0.8152,1.0305,0.7746,0.6892,0.7345,0.6037,0.5478,0.5461,0.5195,0.4853,0.4533,0.4758,0.4837,0.4843,0.483,0.4277,0.354,0.3851,0.3763,0.3504,0.3495,0.3917,0.4301,0.3694,0.0,0.0,0.0,0.0,0.2354,0.2537,0.3167,0.3604,0.3063,0.3432,0.3743,0.3196,0.2966,0.2774,0.2349,0.232,0.2354,0.2246,0.168,0.0,0.0,0.0,0.0421,0.0925,0.1461,0.1791,0.1806,0.1806,0.1806,0.1806,0.1772,0.1615,0.1306,0.1077,0.0823,0.0533,0.0187,0.0208,0.066,0.0,0.0,0.0,0.0,0.0,0.0,0.0,0.0,0.0,0.0,0.0,0.0,0.0,0.0,0.0,0.0,0.0,0.0,0.0,0.0,0.0,0.0,0.0,0.0,0.0,0.0,0.0,0.0,0.0,0.9489,0.9551,0.0,0.0,0.0,0.0,0.3697,0.5969,0.775,0.8394,0.628,0.6419,0.9489,0.961,0.8698,0.6671,0.7438,0.7465,0.6767,0.7495,0.9208,1.158,0.8148,0.6622,0.6654,0.6568,0.6533,0.645,0.5503,0.5087,0.4961,0.3965,0.359,0.3583,0.3601,0.3547,0.3654,0.4799,0.4462,0.3493,0.3509,0.3911,0.4282,0.3689,0.3139,0.0,0.0,0.2437,0.2751,0.2989,0.334,0.3708,0.4032,0.4147,0.4166,0.4122,0.4024,0.3648,0.2683,0.2246,0.1973,0.186,0.0,0.1966,0.1763,0.1726,0.1699,0.1734,0.1769,0.1806,0.1806,0.1806,0.1806,0.1806,0.1676,0.1574,0.1496,0.1231,0.0774,0.0066,0.0013,0.0014,0.0039,0.0321,0.0,0.0,0.0,0.0,0.0,0.0,0.0,0.0,0.0,0.0,0.0,0.0,0.0,0.0,0.0,0.0,0.0,0.0,0.0,0.0,0.0,0.0,0.0,0.0,0.0,0.0,0.0,0.0,1.1811,1.2065,0.0,0.9667,0.9253,0.8311,0.636,0.7123,0.7796,0.8,0.5532,0.545,0.8377,0.8553,0.8239,0.7439,0.7739,0.7729,0.7442,0.7739,0.8385,0.9263,0.8017,0.7433,0.7414,0.6842,0.6604,0.6579,0.6224,0.567,0.5073,0.4671,0.5211,0.6077,0.505,0.465,0.4726,0.5154,0.5019,0.4525,0.3746,0.39,0.4279,0.3678,0.2855,0.2309,0.3116,0.3447,0.3553,0.3641,0.4128,0.4485,0.4135,0.4422,0.4658,0.4169,0.4044,0.3909,0.3533,0.3065,0.2599,0.2302,0.2203,0.2137,0.2083,0.1973,0.1888,0.1804,0.1806,0.1806,0.1806,0.1806,0.1806,0.1806,0.1676,0.1526,0.1372,0.1287,0.0941,0.029,0.0095,0.0,0.0,0.0471,0.078,0.0,0.0,0.0,0.0,0.0,0.0,0.0,0.0,0.0,0.0,0.0,0.0,0.0,0.0,0.0,0.0,0.0,0.0,0.0,0.0,0.0,0.0,0.0,0.0,0.0,0.0,1.4054,1.3701,1.36,1.2974,1.1543,1.0498,0.9827,0.9656,0.9605,0.9724,0.9995,0.7657,0.7153,0.9013,0.8529,0.8227,0.8252,0.8249,0.8243,0.8255,0.8249,0.8123,0.7911,0.7884,0.7907,0.7867,0.7275,0.7032,0.7045,0.7033,0.6485,0.5596,0.5593,0.6101,0.6701,0.5684,0.5315,0.5295,0.5296,0.5287,0.5266,0.501,0.5184,0.5322,0.4388,0.3573,0.3145,0.3913,0.413,0.4163,0.4178,0.4559,0.4851,0.4513,0.4802,0.4973,0.435,0.4318,0.435,0.4058,0.35,0.3035,0.2792,0.2482,0.2285,0.237,0.219,0.2029,0.1933,0.1845,0.1806,0.1806,0.1806,0.1806,0.1806,0.1654,0.1502,0.1372,0.1329,0.1076,0.0593,0.0196,0.0,0.0,0.0398,0.0701,0.0906,0.0,0.0,0.0,0.0,0.0,0.0,0.0,0.0,0.0,0.0,0.0,0.0,0.0,0.0,0.0,0.0,0.0,0.0,0.0,0.0,0.0,0.0,0.0,1.5874,1.5498,1.5053,1.4944,1.3894,1.3188,1.3181,1.1259,1.0967,1.3226,1.3313,1.3622,1.4332,1.2719,1.1753,1.173,0.991,0.892,0.8942,0.8942,0.8908,0.8938,0.8914,0.8575,0.7924,0.7911,0.7909,0.7901,0.7901,0.7899,0.7894,0.7894,0.7407,0.663,0.6619,0.6007,0.5198,0.5283,0.5297,0.5282,0.529,0.5315,0.5628,0.7186,0.7681,0.7397,0.5846,0.534,0.5177,0.4599,0.4448,0.4481,0.4576,0.464,0.4768,0.5214,0.534,0.5214,0.4756,0.5011,0.5087,0.4253,0.3594,0.3217,0.3294,0.2819,0.2502,0.2683,0.2444,0.0,0.2211,0.1991,0.1828,0.1842,0.1842,0.182,0.182,0.1619,0.1515,0.1496,0.1367,0.1173,0.0939,0.0351,0.002,0.0,0.0,0.0287,0.0876,0.0,0.0,0.0,0.0,0.0,0.0,0.0,0.0,0.0,0.0,0.0,0.0,0.0,0.0,0.0,0.0,0.0,0.0,0.0,0.0,0.0,0.0,1.4606,1.4775,1.4715,1.44,1.363,1.3193,1.2948,1.2784,1.2789,1.2945,1.3229,1.1859,1.1098,1.1312,1.0846,1.0467,1.0268,0.9771,0.9474,0.9483,0.9493,0.9474,0.9481,0.9097,0.8806,0.8601,0.8141,0.7903,0.7911,0.789,0.7909,0.7897,0.7916,0.7764,0.749,0.6844,0.6768,0.6837,0.5727,0.5317,0.5298,0.5208,0.5987,0.7101,0.7564,0.7713,0.7627,0.7185,0.623,0.5349,0.5561,0.5581,0.5437,0.5171,0.5457,0.5814,0.5761,0.5952,0.6121,0.5998,0.6091,0.6091,0.586,0.5404,0.4802,0.3966,0.3462,0.3176,0.3146,0.2882,0.0,0.2562,0.2507,0.2462,0.246,0.2466,0.2362,0.211,0.1965,0.1702,0.1306,0.1114,0.1172,0.1533,0.0981,0.0445,0.0016,0.0,0.0073,0.0,0.0,0.0,0.0,0.0,0.0,0.0,0.0,0.0,0.0,0.0,0.0,0.0,0.0,0.0,0.0,0.0,0.0,0.0,0.0,0.0,0.0,1.4813,1.4793,1.4726,1.4351,1.4024,1.3764,1.3417,1.3074,1.2793,1.3705,1.4162,1.3772,1.1483,1.0089,1.0088,1.1478,1.1515,0.9936,0.9862,0.9872,0.988,0.9882,0.9801,0.9692,0.9376,0.9104,0.8872,0.8504,0.8327,0.8325,0.8307,0.8159,0.7889,0.7907,0.7883,0.7827,0.0,0.0,0.0,0.0,0.643,0.7122,0.6432,0.7262,0.8503,0.7909,0.7851,0.7984,0.7556,0.6794,0.6075,0.6213,0.623,0.6111,0.5872,0.6088,0.6339,0.6168,0.6336,0.649,0.6513,0.664,0.6702,0.6545,0.6403,0.0,0.5201,0.4477,0.4013,0.3867,0.3456,0.307,0.2898,0.277,0.2745,0.2853,0.2681,0.2524,0.2427,0.2116,0.0,0.0,0.0,0.1464,0.1914,0.1507,0.0,0.0,0.0,0.063,0.1133,0.1244,0.0,0.0,-0.101,-0.0636,0.0,0.0,0.0,0.0,0.0,0.0,0.0,0.0,0.0,0.0,0.0,0.0,0.0,0.0,0.0,0.0,1.5581,1.5161,1.5348,1.4375,1.3895,1.4628,1.3981,1.3361,1.3095,1.4016,1.4643,1.4574,1.2154,1.0701,1.0713,0.0,0.0,0.0,0.0,1.0695,1.068,1.0277,0.9981,0.9743,0.9721,0.9464,0.8984,0.8974,0.8985,0.8971,0.8914,0.8547,0.8014,0.8007,0.8022,0.794,0.7083,0.6921,0.7156,0.6845,0.8069,0.9712,0.8412,0.0,0.0,0.8366,0.823,0.8412,0.7569,0.7248,0.713,0.676,0.6656,0.6659,0.6518,0.6612,0.6659,0.6579,0.6643,0.6729,0.6787,0.7032,0.7147,0.6852,0.6999,0.7043,0.669,0.5688,0.489,0.4731,0.4148,0.3632,0.3304,0.3072,0.3027,0.3223,0.2866,0.0,0.2841,0.2306,0.1958,0.1906,0.185,0.1902,0.2093,0.1951,0.1857,0.1849,0.1346,0.1627,0.2707,0.1854,0.1909,0.2702,0.0995,0.076,0.0,0.0,0.0,0.0,0.0,0.0,0.0,0.0,0.0,0.0,0.0,0.0,0.0,0.0,0.0,1.6607,1.5788,1.5148,1.5865,1.4666,1.3852,1.4062,1.3359,1.3007,1.3359,1.3241,1.3671,1.4961,1.4648,1.4375,1.4375,1.4996,1.4991,1.425,1.4228,1.4194,1.4195,1.1489,1.0076,1.0016,0.9791,0.0,0.9545,0.9529,0.9537,0.9532,0.9086,0.8833,0.8694,0.8709,0.8706,0.8636,0.7938,0.8936,1.0548,0.8431,0.8593,0.9855,0.9563,0.9666,0.9841,0.9577,0.9282,0.8992,0.8584,0.8256,0.0,0.7559,0.7591,0.7525,0.6707,0.7138,0.7654,0.7131,0.7544,0.8137,0.8519,0.8371,0.8245,0.8539,0.8047,0.7575,0.7499,0.6569,0.5707,0.5296,0.5232,0.4941,0.4242,0.4389,0.4462,0.4196,0.4058,0.3935,0.377,0.329,0.2875,0.255,0.2167,0.2031,0.2176,0.2153,0.2129,0.2113,0.2266,0.2477,0.2707,0.2511,0.2629,0.2993,0.1936,0.1912,0.0,0.0,0.0,0.0,0.0,0.0,0.0,0.0,0.0,0.0,0.0,1.5388,0.0,0.0,1.5977,1.701,1.6126,1.5338,1.547,1.4841,1.4239,1.3907,1.3451,1.315,1.3095,1.3671,1.5078,1.7582,1.6222,1.5293,1.5299,1.5311,1.5312,1.5306,1.365,1.3545,1.5185,1.1799,1.0117,1.0105,1.1685,1.2458,1.2459,1.221,1.2096,1.2087,1.1833,1.0623,0.9019,1.0518,1.1149,1.1133,1.0797,1.032,0.9694,0.8372,0.9142,1.0862,1.087,1.0857,1.0736,1.0097,0.9918,0.9861,0.9623,0.9179,0.8723,0.8667,0.8534,0.8336,0.8119,0.8238,0.8528,0.8756,0.891,0.9212,0.9939,0.9691,0.9414,0.9645,0.8941,0.8238,0.8045,0.7377,0.6702,0.6145,0.5915,0.5622,0.507,0.5,0.4975,0.4924,0.4551,0.4275,0.4194,0.371,0.3212,0.2837,0.265,0.2573,0.2658,0.2511,0.2445,0.2442,0.2608,0.2692,0.2708,0.2837,0.2966,0.3046,0.2625,0.2656,0.0,0.0,0.0,0.0,0.0,0.0,0.0,0.0,1.4796,1.5122,1.5792,1.6704,1.7882,1.7374,1.6903,1.7352,1.6555,1.5658,1.5141,1.5076,1.4744,1.3849,1.3804,1.3667,1.3218,1.4497,1.6469,1.9104,1.7241,1.5783,1.5273,1.5212,1.527,1.5404,1.2069,1.1583,1.4217,1.1505,1.013,1.0194,1.3584,1.4872,1.42,1.4512,1.4623,1.4616,1.4551,1.2764,1.0152,1.2451,1.3404,1.339,1.3391,1.1926,0.9748,0.9199,1.0656,1.2853,1.208,1.1989,1.1971,1.0697,1.0601,1.0919,1.0579,1.018,0.987,0.9926,0.9637,0.9442,0.9892,0.9684,0.9591,1.0517,1.034,1.024,1.1265,1.0824,1.0298,1.0547,0.966,0.877,0.8446,0.8148,0.7644,0.6885,0.6524,0.6191,0.5839,0.5554,0.5459,0.56,0.5021,0.4608,0.4549,0.402,0.3507,0.3138,0.3199,0.3259,0.3264,0.3063,0.2863,0.2697,0.3028,0.3035,0.2711,0.2929,0.309,0.3272,0.3325,0.3321,1.0597,1.1034,1.1197,1.1629,1.2218,1.294,0.0,0.0,1.5265,1.4848,1.5521,1.6299,1.658,1.6427,1.6642,1.7743,1.7053,1.6204,1.5698,1.5718,1.521,1.3719,1.4246,1.4798,1.4926,1.5117,1.5367,1.5741,1.7696,1.7825,1.5485,1.527,1.5276,1.5388,1.2095,1.0469,1.0858,1.0487,1.0292,1.0329,1.3739,1.3721,1.077,1.376,1.5131,1.5093,1.4672,1.425,1.3856,1.3521,1.3389,1.3391,1.3413,1.4743,1.6386,1.3738,1.4651,1.6605,1.3028,1.2629,1.3444,1.2043,1.1908,1.2159,1.1346,1.1455,1.1766,1.124,1.1197,1.1315,1.1441,1.1416,1.1412,1.1521,1.1379,1.15,1.2625,1.1335,1.0244,1.1345,1.0054,0.8789,0.8745,0.8717,0.8295,0.7202,0.7308,0.7225,0.6493,0.6689,0.6728,0.6422,0.6301,0.5937,0.5184,0.4603,0.418,0.3902,0.3781,0.3771,0.3879,0.3886,0.3477,0.2729,0.4209,0.4242,0.2697,0.2737,0.3272,0.425,0.4271,0.4204,0.9152,1.0505,0.0,0.0,1.25,1.3733,1.4629,1.5683,1.6364,1.6126,1.6903,1.7613,1.7648,1.7505,1.7414,0.0,1.7305,1.684,1.6262,1.5539,1.4848,1.4146,1.3615,1.3752,1.4985,1.5145,1.52,1.5209,1.8127,1.9406,1.8321,1.6303,1.5233,1.5259,1.3895,1.2247,1.0301,1.2265,1.328,1.3273,1.4714,1.4606,1.3225,1.4579,1.5183,1.5321,1.7112,1.6597,1.4623,1.6201,1.6828,1.6835,1.6817,1.7586,1.8427,1.6631,1.6747,1.7576,1.5879,1.5407,1.557,1.5347,1.4719,1.3983,1.3825,1.3356,1.2816,1.2733,1.2481,1.2394,1.2777,1.2615,1.2505,1.3179,1.274,1.2363,1.3158,1.2091,1.1079,1.1587,1.0451,0.9401,0.9401,0.9054,0.8629,0.8154,0.808,0.7944,0.7582,0.7271,0.694,0.6548,0.6488,0.6366,0.5983,0.574,0.5362,0.4732,0.4635,0.4542,0.4371,0.4123,0.4081,0.421,0.4926,0.4938,0.4199,0.4199,0.446,0.492,0.4915,0.499,0.9158,0.0,0.0,1.2055,1.3151,1.4468,1.5244,1.6366,1.7245,1.7038,1.7557,1.7953,1.7552,1.7502,1.7394,1.7153,1.7489,1.7577,1.7013,1.5873,1.4953,1.4465,1.2972,1.265,1.4387,1.4887,1.514,1.5217,1.7478,1.931,2.0235,1.707,1.5207,1.5188,1.521,1.4042,1.1686,1.416,1.5383,1.5391,1.5389,1.5416,1.5413,1.5276,1.5207,1.5377,1.8816,1.8717,1.6282,1.8612,1.956,1.955,1.9354,1.9301,1.9204,1.8394,1.8044,1.7954,1.7386,1.712,1.7143,1.7648,1.6736,1.5471,1.5479,1.4683,1.3823,1.397,1.3657,1.3402,1.4112,1.3856,1.3685,1.4619,1.4054,1.3431,1.4024,1.3095,1.2148,1.2148,1.1186,1.0302,1.0121,0.9714,0.9398,0.9398,0.9138,0.8888,0.8689,0.8058,0.7456,0.6897,0.673,0.6669,0.6669,0.6579,0.6228,0.5612,0.555,0.5425,0.5124,0.4764,0.4795,0.5286,0.5291,0.5317,0.5304,0.5304,0.5294,0.5324,0.5464,0.5652,0.0,0.0,1.2177,1.3705,1.4442,1.5026,1.5944,1.6998,1.7557,1.6868,1.6753,1.6313,1.4903,1.5208,1.5841,1.6373,1.7684,1.852,1.8111,1.7227,1.6036,1.4412,1.2657,1.209,0.0,1.4344,1.4993,1.5178,1.5285,1.6812,2.0108,1.7067,1.5216,1.5197,1.5217,1.5133,1.5062,1.5286,1.5383,1.5391,1.5391,1.5383,1.541,1.5245,1.521,1.5384,1.8827,2.0229,2.0136,2.0228,2.0278,2.0198,1.9537,1.9308,1.9256,1.8908,1.8699,1.8292,1.6339,1.6584,1.776,1.779,1.715,1.6219,1.5368,1.5061,1.5007,1.4824,1.463,1.4634,1.5507,1.5389,1.5151,1.5624,1.5261,1.4904,1.559,1.4418,1.3269,1.3269,1.2496,1.1624,1.0969,1.0835,1.0835,1.0835,1.0717,1.0367,0.9641,0.9245,0.8683,0.7773,0.7314,0.7089,0.7089,0.673,0.6488,0.6457,0.6457,0.6457,0.6457,0.6166,0.5801,0.5303,0.5317,0.5314,0.5308,0.5308,0.5286,0.5317,0.5914,0.6196,1.2318,0.0,1.3419,1.4646,1.5037,1.539,1.6361,1.6675,1.6542,1.5778,1.6181,1.6394,1.5426,1.5832,1.6727,1.7851,1.8232,1.8557,1.911,1.8573,1.7643,1.6155,1.5012,0.0,0.0,0.0,0.0,1.4924,1.5112,1.6706,2.0107,1.9196,1.7528,1.5286,1.5204,1.5211,1.52,1.5329,1.5405,1.5391,1.5388,1.534,1.5323,1.7589,1.8581,1.866,1.9793,2.028,2.0293,2.0314,2.0317,2.0289,2.0045,1.987,1.9738,1.9536,1.9277,1.8872,1.7533,1.7374,1.7809,1.7787,1.7592,1.7216,1.6595,1.6346,1.6208,1.6155,1.6084,1.6102,1.6378,1.6351,1.627,1.6436,1.5774,1.5185,1.543,1.4498,1.3612,1.3612,1.2831,1.2256,1.2456,1.1967,1.1704,1.212,1.1348,1.042,0.9693,0.9858,0.9633,0.8613,0.8673,0.8576,0.8009,0.7835,0.7519,0.6927,0.691,0.679,0.6518,0.6595,0.6369,0.5833,0.6525,0.6356,0.5307,0.5293,0.5524,0.5923,0.6834,0.6991,1.3516,1.4195,1.4989,1.5628,1.5991,1.6229,1.6371,1.6212,1.569,1.4602,1.5101,1.5422,1.4506,1.4872,1.5886,1.7586,1.7706,1.8119,1.9676,1.9345,1.8744,1.8161,1.7103,1.6278,0.0,0.0,0.0,1.4383,1.5459,1.733,2.0144,2.0314,1.9296,1.7092,1.8196,1.8241,1.7034,1.7186,1.727,1.7266,1.7259,1.7212,1.7208,1.9414,2.0749,2.1289,2.0697,2.0371,2.0349,2.0942,2.1536,2.2017,2.1302,2.1079,2.1141,2.0615,2.0257,1.9937,1.9398,1.873,1.819,1.8763,1.8404,1.7828,1.789,1.7404,1.6927,1.7433,1.7401,1.7183,1.7183,1.7183,1.7119,1.6863,1.6301,1.5857,1.5857,1.5232,1.4632,1.4389,1.3714,1.3249,1.3454,1.2979,1.2716,1.3205,1.2484,1.1469,1.0183,1.0552,1.0386,0.9012,0.9176,0.9148,0.8602,0.843,0.8129,0.7549,0.753,0.7499,0.7439,0.7719,0.7506,0.6689,0.7657,0.7507,0.6173,0.6006,0.632,0.7098,0.7652,0.7633,1.5385,1.6127,1.6787,1.6787,1.7264,1.7385,1.5982,1.5539,1.503,1.3422,1.3592,1.3653,0.0,0.0,1.3719,1.5849,1.6376,1.7374,1.9939,1.9737,1.9606,0.0,0.0,0.0,0.0,0.0,0.0,1.4169,0.0,1.8717,2.0298,2.0413,2.0438,2.0427,2.3504,2.3696,2.0597,2.0589,2.0709,2.0859,2.0854,2.0808,2.0724,2.0623,2.1581,2.3252,2.157,2.0706,2.0579,2.2191,2.379,2.5022,2.3054,2.2685,2.3155,2.2047,2.1545,2.1405,2.1832,2.059,1.9107,2.0578,1.9682,1.8177,1.9154,1.8294,1.7287,1.8663,1.8566,1.7996,1.7996,1.7963,1.777,1.7075,1.6857,1.6831,1.6831,1.6538,1.6142,1.5516,1.5106,1.4686,1.4025,1.3935,1.4016,1.4224,1.4227,1.3403,1.1208,1.143,1.1036,0.9152,0.8923,0.8872,0.885,0.8566,0.8368,0.8347,0.8354,0.8595,0.9072,0.9403,0.9044,0.7864,0.854,0.8575,0.7843,0.7387,0.7698,0.8693,0.837,0.8238,1.7127,1.7685,1.7946,1.7854,1.7433,1.6652,1.5201,1.4217,1.3474,1.3057,1.3719,1.4435,0.0,0.0,0.0,1.854,1.8322,0.0,2.1178,2.2108,0.0,2.1514,0.0,2.1514,2.118,2.1406,0.0,0.0,2.0685,2.1087,2.1755,2.2019,2.2153,2.2167,2.3,2.3613,2.4024,2.1765,2.1897,2.4414,2.4414,2.371,2.242,2.1169,2.2216,2.5052,2.4583,2.3603,2.2391,2.3218,2.3751,2.3887,2.2584,2.2421,2.2882,2.2598,2.2391,2.2433,2.3695,2.3521,2.2629,2.1844,2.1326,2.1003,2.0893,2.0246,1.9583,1.9714,1.9603,1.9469,1.9469,1.9035,1.8601,1.8401,1.7765,1.7175,1.7175,1.6901,1.6612,1.6447,1.6338,1.6066,1.539,1.5681,1.604,1.6093,1.5883,1.5086,1.3203,1.2791,1.2187,1.0944,1.0511,1.0107,0.9637,0.9529,0.9368,0.9054,0.9274,0.9239,0.8894,0.9107,0.9409,0.9796,0.8645,0.8558,0.9639,0.9524,0.9189,0.8725,0.94,0.9497,1.8543,1.9027,1.9059,1.8346,1.7574,1.6661,1.554,1.4165,1.3184,1.3427,1.4164,0.0,0.0,0.0,0.0,0.0,0.0,0.0,2.134,2.27,2.3247,0.0,2.3235,0.0,2.2905,2.3103,2.3345,0.0,2.307,2.2927,2.3372,2.3736,2.3677,2.3167,2.3638,2.4378,2.5362,2.3692,2.3817,2.5703,2.5195,2.4297,2.3086,2.2148,2.2773,2.4605,2.5386,2.5083,2.408,2.4003,2.4121,2.4283,2.3688,2.3611,2.388,2.3899,2.383,2.3896,2.4764,2.4828,2.4313,2.3223,2.252,2.2112,2.2275,2.1574,2.081,2.1298,2.1157,2.0915,2.0915,2.0508,2.0,1.9692,1.9022,1.8476,1.8476,1.7963,1.7462,1.7299,1.7273,1.7145,1.6811,1.6761,1.6805,1.6805,1.6617,1.6173,1.5199,1.4199,1.3085,1.1796,1.1699,1.1321,1.0425,1.0443,1.0289,0.9766,0.9919,1.0018,0.9987,1.0157,1.0678,1.1686,1.0642,1.0172,1.0311,1.0311,0.9983,0.9437,0.9802,0.9944,1.957,2.008,2.0149,1.8594,1.7645,1.6943,1.6197,1.4608,1.3481,1.4212,0.0,1.5251,1.5554,1.5034,1.5358,1.788,0.0,1.7989,2.104,2.2317,2.3271,2.4116,2.419,2.419,2.419,2.419,2.4266,2.451,2.4222,2.427,2.4793,2.5094,2.483,2.3869,2.4764,2.5368,2.5479,2.5613,2.5687,2.5663,2.4687,2.3945,2.3437,2.3516,2.3516,2.3516,2.5039,2.5613,2.5464,2.4671,2.4736,2.5293,2.5313,2.5303,2.5303,2.5303,2.5303,2.5293,2.5302,2.5168,2.4866,2.4415,2.3412,2.2537,2.3297,2.2535,2.1619,2.2845,2.2752,2.2242,2.2242,2.1966,2.1509,2.0848,2.0381,2.0077,2.0077,1.9286,1.8515,1.8097,1.8011,1.7979,1.7914,1.7371,1.6926,1.6926,1.6876,1.685,1.685,1.5438,1.3901,1.2516,1.2694,1.2498,1.1428,1.152,1.1397,1.0807,1.0756,1.1005,1.1594,1.1714,1.2117,1.2756,1.3039,1.2224,1.0286,1.0312,1.0312,1.0293,0.99,1.0183,1.9809,2.0694,2.1144,1.878,1.7507,1.6529,1.5506,1.3822,0.0,0.0,0.0,1.5907,1.7142,1.6758,0.0,1.8506,0.0,0.0,0.0,0.0,2.3026,0.0,0.0,0.0,0.0,0.0,0.0,0.0,2.4693,2.4757,2.4953,2.5015,2.5034,2.5005,2.5197,2.5309,2.5318,2.5595,2.5652,2.5609,2.5467,2.5352,2.5234,2.5273,2.5273,2.5273,2.5586,2.5698,2.5629,2.5394,2.5317,2.5368,2.5312,2.5303,2.5303,2.5303,2.5303,2.5303,2.5283,2.5286,2.5158,2.4795,2.4292,2.3856,2.3878,2.3608,2.3207,2.3211,2.3082,2.3012,2.3012,2.2493,2.1975,2.1834,2.1115,2.0407,2.0407,2.004,1.9555,1.8867,1.8732,1.8531,1.7937,1.7736,1.7635,1.7635,1.7392,1.7224,1.7224,1.5971,1.5011,1.4739,1.4111,1.3727,1.3698,1.3503,1.3337,1.3193,1.3178,1.2887,1.2113,1.2271,1.177,1.0509,1.2283,1.2238,1.0286,1.0312,1.0312,1.0293,1.0564,1.0952,2.0198,2.0921,2.1133,1.906,1.712,1.5899,1.6375,0.0,0.0,0.0,1.6745,1.6948,1.7693,0.0,0.0,0.0,0.0,0.0,0.0,0.0,0.0,0.0,0.0,0.0,0.0,0.0,0.0,2.4877,2.4904,2.4981,2.5171,2.5171,2.5203,2.5303,2.5303,2.533,2.5413,2.5531,2.5585,2.5531,2.5607,2.5658,2.5697,2.5703,2.5703,2.5703,2.5703,2.57,2.5679,2.558,2.5503,2.5466,2.5414,2.5365,2.528,2.5293,2.5303,2.5303,2.5303,2.5311,2.5286,2.5091,2.485,2.4532,2.4316,2.4192,2.4041,2.3816,2.3732,2.3732,2.3732,2.3336,2.2926,2.2926,2.242,2.1803,2.1417,2.1511,2.1322,2.0176,1.9832,1.9522,1.8897,1.8232,1.7883,1.8149,1.7958,1.7827,1.7945,1.742,1.6642,1.5663,1.5467,1.5159,1.4597,1.4743,1.4638,1.4074,1.4056,1.3727,1.2981,1.2643,1.2217,1.1628,1.2669,1.2245,1.0298,1.0809,1.0797,1.0332,1.1018,1.145,2.0318,2.0862,2.0926,1.9213,1.6843,1.5419,1.7367,1.5528,0.0,0.0,1.7794,1.7794,1.7794,0.0,0.0,0.0,0.0,0.0,0.0,0.0,0.0,0.0,0.0,0.0,0.0,0.0,0.0,2.4917,2.4967,2.5088,2.5303,2.5303,2.5303,2.5303,2.5303,2.536,2.5453,2.549,2.5505,2.5493,2.5593,2.5767,2.6041,2.6053,2.5937,2.5703,2.6094,2.6052,2.5687,2.5644,2.5584,2.5546,2.5511,2.5402,2.5311,2.5305,2.5309,2.5309,2.5283,2.5312,2.5303,2.5313,2.5141,2.496,2.467,2.4591,2.4526,2.4375,2.4321,2.4266,2.4266,2.4056,2.3795,2.3732,2.35,2.314,2.2491,2.2787,2.2764,2.1405,2.0842,2.0451,2.0068,1.9017,1.8349,1.8776,1.8658,1.8563,1.8584,1.8603,1.8029,1.6495,1.6791,1.6669,1.555,1.5789,1.5663,1.4884,1.4707,1.4412,1.3912,1.3458,1.3182,1.319,1.3216,1.2461,1.0978,1.174,1.1724,1.0982,1.1883,1.2181,1.96,2.0533,2.0926,1.9213,1.6876,1.5474,1.7367,0.0,0.0,1.7185,1.7794,1.7794,1.7794,1.776,1.7749,0.0,0.0,1.8284,0.0,0.0,0.0,0.0,0.0,0.0,0.0,0.0,0.0,2.4804,2.4943,2.5088,2.5303,2.5303,2.5303,2.5303,2.5303,2.5313,2.5322,2.5447,2.5484,2.5493,2.5613,2.625,2.7226,2.7226,2.668,2.5781,2.7383,2.7148,2.5703,2.5689,2.5679,2.5671,2.5546,2.5406,2.5284,2.5318,2.5313,2.5307,2.5311,2.5321,2.5298,2.5312,2.5297,2.5208,2.5031,2.4877,2.4775,2.4746,2.4607,2.4459,2.4459,2.4303,2.4092,2.3774,2.3689,2.353,2.3188,2.3153,2.2964,2.2171,2.1383,2.0852,2.0865,2.0165,1.9648,1.9688,1.9668,1.9401,1.8693,1.8603,1.8452,1.8004,1.8031,1.7924,1.758,1.702,1.6677,1.6588,1.6006,1.5418,1.4808,1.525,1.4777,1.3242,1.3208,1.318,1.3123,1.3135,1.3133,1.3107,1.3662,1.3564,1.8912,2.0198,2.0767,1.8616,1.685,1.5934,1.6896,0.0,0.0,1.7287,1.7794,1.7794,1.7794,1.7794,1.7839,1.8014,1.7679,0.0,0.0,0.0,0.0,0.0,0.0,0.0,0.0,0.0,0.0,2.5091,2.516,2.5214,2.5303,2.5303,2.5303,2.5303,2.5303,2.5303,2.5303,2.5391,2.5693,2.621,2.637,2.6945,2.7883,2.8281,2.8047,2.7305,2.8008,2.7305,2.5703,2.5701,2.5699,2.5698,2.5634,2.6871,2.8668,2.868,2.7333,2.5527,2.554,2.5447,2.5306,2.5313,2.5293,2.5275,2.5053,2.4943,2.4904,2.4832,2.4746,2.4654,2.4526,2.4339,2.417,2.4016,2.3996,2.3976,2.3816,2.3795,2.3578,2.2781,2.2247,2.1846,2.1532,2.096,2.061,2.097,2.0859,2.0713,2.0554,2.0517,2.0335,1.9864,1.885,1.81,1.7816,1.7566,1.7256,1.6831,1.657,1.6108,1.5476,1.5177,1.4433,1.3225,1.4509,1.4891,1.4303,1.4489,1.4157,1.3406,1.4187,1.428,1.782,1.896,1.9373,1.7341,1.6096,1.555,0.0,0.0,1.4749,1.6745,1.7386,1.7497,1.7185,1.7589,1.7924,1.7893,1.7622,1.7992,0.0,0.0,0.0,0.0,0.0,0.0,0.0,0.0,2.5284,2.5203,2.5444,2.5482,2.5214,2.5283,2.5303,2.5303,2.5303,2.5322,2.533,2.5398,2.5894,2.6746,2.688,2.7528,2.8623,2.91,2.9219,2.9062,2.9062,2.8359,2.7226,2.7226,2.7226,2.7226,2.722,2.874,3.0888,3.0908,2.9335,2.7257,2.7246,2.7073,2.6791,2.6466,2.6339,2.6243,2.5964,2.5673,2.5421,2.5032,2.508,2.5187,2.5014,2.5035,2.4986,2.4486,2.456,2.4689,2.4412,2.4375,2.419,2.3634,2.316,2.2849,2.2708,2.2136,2.1807,2.2167,2.2026,2.1862,2.1804,2.1821,2.1553,2.0972,1.9766,1.8862,1.8494,1.8248,1.7856,1.7145,1.7097,1.6712,1.5832,1.5207,1.4671,1.4202,1.5732,1.6139,1.5392,1.5457,1.5069,1.434,1.5061,1.5052,1.616,1.6538,1.6301,1.5198,1.4388,1.3949,0.0,0.0,1.382,1.5325,1.6409,1.6801,1.5824,1.7041,1.7948,1.7225,1.7726,0.0,0.0,0.0,0.0,0.0,0.0,0.0,0.0,0.0,2.5721,2.5056,2.5793,0.0,2.5068,2.5203,2.5303,2.5303,2.5303,2.533,2.5406,2.5457,2.5987,2.6891,2.6951,2.7891,2.9609,2.9609,3.0078,3.0859,3.0859,3.0859,3.0859,3.0859,3.0859,3.0859,3.0859,3.0859,3.0898,3.0898,3.0898,3.0859,3.0847,3.0693,3.0353,2.9225,2.8762,2.8566,2.8016,2.7274,2.639,2.5534,2.5784,2.6237,2.6019,2.6631,2.6873,2.5181,2.5408,2.5748,2.4978,2.479,2.479,2.479,2.4087,2.3747,2.4601,2.3948,2.3284,2.33,2.3084,2.2721,2.1894,2.1821,2.1553,2.0972,2.0873,2.0613,2.0018,1.9329,1.8587,1.7941,1.7761,1.7131,1.583,1.5778,1.5991,1.6463,1.6472,1.652,1.6473,1.5957,1.5969,1.6454,1.6497,1.6034,1.5587,1.639,1.6645,1.5287,1.4978,1.4933,1.4577,0.0,1.4624,1.562,1.6183,1.6378,1.608,1.6482,1.6976,1.7434,1.8217,1.904,0.0,0.0,0.0,0.0,0.0,0.0,0.0,0.0,2.6006,2.5068,2.539,2.551,2.5203,2.5283,2.5303,2.5303,2.5303,2.533,2.5413,2.6279,2.7086,2.7791,2.8474,2.9375,3.0508,3.0508,3.0625,3.0898,3.0898,3.0898,3.0898,3.0898,3.0898,3.0898,3.0898,3.0898,3.0898,3.0898,3.0898,3.0898,3.0728,3.0646,3.0386,2.9164,2.8734,2.8582,2.8044,2.7698,2.7428,2.7159,2.7136,2.7166,2.7113,2.7191,2.7176,2.6647,2.6254,2.5937,2.5672,2.5181,2.4804,2.4804,2.4577,2.4421,2.457,2.434,2.4053,2.3933,2.3879,2.3712,2.3456,2.3419,2.3191,2.2549,2.2445,2.1791,2.0145,1.9788,1.9372,1.8615,1.8519,1.81,1.7131,1.709,1.6928,1.65,1.7222,1.725,1.6509,1.6695,1.6699,1.6522,1.6522,1.6367,0.0,1.5308,1.5541,1.4355,1.4497,0.0,0.0,0.0,1.4599,1.5052,1.5532,1.5802,1.5388,1.6189,1.6976,1.7235,1.829,1.9405,0.0,0.0,0.0,0.0,0.0,0.0,0.0,2.6753,2.6726,2.6156,2.6502,2.6621,2.6313,2.6274,2.6294,2.6313,2.6013,2.6025,2.6392,2.7216,2.8012,2.8742,2.9335,3.0078,3.0898,3.0898,3.0898,3.0898,3.0898,3.0898,0.0,3.1367,3.1484,3.1445,3.1992,3.1914,3.1562,3.1754,3.1947,3.2024,3.1328,3.107,3.0877,2.973,2.9352,2.9264,2.8929,2.839,2.8044,2.8659,2.8526,2.8185,2.8185,2.83,2.8308,2.7684,2.7342,2.6999,2.6376,2.5844,2.5387,2.5032,2.4994,2.4968,2.4809,2.4737,2.4617,2.4425,2.4357,2.4303,2.4209,2.419,2.3955,2.3259,2.3189,2.2562,2.0993,2.0571,2.0078,1.9354,1.9216,1.8746,1.7763,1.8185,1.8223,1.7709,1.8359,1.8178,1.7083,1.7037,1.6837,1.6522,1.6522,1.6522,0.0,0.0,0.0,0.0,0.0,0.0,0.0,0.0,0.0,0.0,1.4701,1.5144,1.4282,1.6232,1.7715,1.7001,1.8264,0.0,0.0,0.0,0.0,0.0,0.0,0.0,2.6606,2.7304,2.7752,2.7868,2.8582,2.8659,2.7852,2.7862,2.7933,2.8008,2.7263,2.7304,2.8101,2.8317,2.8818,2.9609,2.9648,3.0117,3.0898,3.0898,3.0898,3.0898,3.0898,3.0937,3.1094,3.2148,3.2461,3.2422,3.3789,3.3633,3.2773,3.3141,3.3633,3.3903,3.2466,3.1911,3.168,3.078,3.0462,3.0417,3.0456,2.9429,2.8467,2.9967,2.9852,2.9275,2.9198,2.9775,3.0006,2.8467,2.8582,2.8659,2.7121,2.6697,2.639,2.561,2.538,2.5303,2.537,2.5149,2.4956,2.4804,2.4607,2.441,2.4228,2.417,2.3935,2.3259,2.3165,2.2933,2.2349,2.1554,2.0829,2.0154,1.9953,1.9241,1.7915,1.9031,1.9677,1.9677,1.9682,1.9103,1.8112,1.705,1.6547,1.6522,1.6522,1.6547,1.4065,0.0,1.3806,1.3595,1.3729,0.0,0.0,0.0,0.0,0.0,0.0,0.0,0.0,1.6853,1.7855,1.935,2.0077,0.0,0.0,0.0,0.0,0.0,0.0,0.0,2.7258,2.8122,2.8437,2.7739,2.7988,2.7813,2.6967,2.7575,2.7984,2.8008,2.854,2.8629,2.8168,2.9584,3.0021,2.9515,3.0233,3.0662,3.0767,3.0857,3.0898,3.0898,3.0898,3.1289,3.1914,3.2383,3.2812,3.3203,3.3984,3.4141,3.3867,3.3456,3.3633,3.3973,3.3052,3.2309,3.1661,3.0711,3.0414,3.0533,3.1198,3.1121,3.0737,3.0467,3.0737,3.0929,3.0275,3.0237,3.0302,2.9929,2.9467,2.8967,2.8582,2.7505,2.6736,2.7198,2.6197,2.5465,2.5968,2.5399,2.4766,2.4591,2.441,2.4266,2.4209,2.3976,2.3653,2.3236,2.2972,2.2678,2.2321,2.2123,2.1757,2.1262,2.1087,2.0469,1.9277,1.9516,1.9707,1.9707,1.9148,1.8598,1.8123,1.7466,1.6888,1.6522,1.6522,1.6816,1.4332,1.4206,1.4145,1.4516,1.4392,1.4265,0.0,0.0,0.0,0.0,0.0,0.0,0.0,0.0,0.0,0.0,2.0593,0.0,0.0,0.0,0.0,0.0,0.0,2.8689,0.0,2.8732,2.906,2.89,2.8998,2.8846,2.8406,2.8866,2.9179,2.9224,2.9757,2.9821,2.935,3.038,3.0853,3.0735,3.1249,3.1639,3.1945,3.164,3.1719,3.2031,3.1641,3.1953,3.2773,3.3359,3.3711,3.4062,3.4761,3.5031,3.4988,3.452,3.4555,3.4613,3.3393,3.216,3.1069,3.0568,3.0379,3.0494,3.0968,3.166,3.216,3.1698,3.1621,3.1583,3.1121,3.0698,3.0379,3.0379,3.0044,2.9583,2.9198,2.839,2.7775,2.789,2.7121,2.6568,2.6797,2.6388,2.5815,2.5161,2.4949,2.4727,2.4246,2.4036,2.3753,2.3236,2.3045,2.2755,2.2321,2.2327,2.2089,2.1612,2.1247,2.063,1.9756,1.9718,1.969,1.969,1.9403,1.8987,1.8465,1.826,1.7765,1.6982,1.7196,1.7364,1.4488,1.4466,1.4547,1.5103,1.4891,1.4706,0.0,0.0,0.0,0.0,0.0,0.0,0.0,0.0,0.0,0.0,0.0,0.0,0.0,0.0,0.0,0.0,0.0,0.0,2.9021,2.9187,2.9583,3.034,3.0402,3.0325,3.0122,3.0397,3.0451,3.0323,3.0604,3.0723,3.0723,3.0857,3.1328,3.2187,3.2187,3.2617,3.3359,3.2695,3.2773,3.3359,3.2695,3.2851,3.3672,3.4414,3.4766,3.4961,3.5645,3.5903,3.5888,3.5685,3.5591,3.5377,3.3685,3.216,3.0968,3.0814,3.0775,3.0775,3.0775,3.1891,3.3083,3.3083,3.2622,3.2006,3.1775,3.116,3.0571,3.0417,3.0379,3.0198,2.9467,2.9198,2.8929,2.839,2.8022,2.7812,2.77,2.7542,2.7055,2.6039,2.5875,2.5467,2.4464,2.4238,2.3961,2.3189,2.3069,2.2857,2.2349,2.2327,2.2185,2.1867,2.1247,2.0496,1.9749,1.9899,2.0002,2.0014,2.0177,1.9899,1.9221,1.933,1.8851,1.7835,1.8035,1.7996,1.4488,1.4952,1.5343,1.4794,1.4652,1.4654,0.0,0.0,0.0,0.0,0.0,0.0,0.0,0.0,0.0,0.0,0.0,0.0,0.0,0.0,0.0,0.0,0.0,3.0261,2.8976,2.9665,3.0275,3.0379,3.0462,2.9872,2.8449,2.9858,3.004,2.865,3.0073,3.0859,3.0859,3.0898,3.1287,3.2012,3.2146,3.2576,3.3302,3.324,3.3281,3.3398,3.3281,3.3711,3.4492,3.4648,3.5117,3.582,3.5879,3.5903,3.5888,3.5685,3.5591,3.5454,3.4378,3.3814,3.3506,3.2776,3.2506,3.2506,3.2506,3.3199,3.4007,3.4007,3.3891,3.3468,3.2083,3.1583,3.1314,3.0571,3.0379,3.034,3.0237,2.9621,2.9275,2.989,2.8696,2.7777,2.8488,2.7695,2.6915,2.673,2.6576,2.6057,2.494,2.4549,2.3956,2.2892,2.2581,2.2405,2.2293,2.2327,2.2535,2.3085,2.2421,2.1344,1.9748,2.0812,2.1386,2.1409,2.1409,2.1159,2.0584,2.0623,2.0005,1.8865,1.8061,1.8067,1.4488,1.4793,1.4976,1.4598,1.5207,1.5894,0.0,0.0,0.0,0.0,0.0,0.0,0.0,0.0,0.0,0.0,0.0,0.0,0.0,0.0,3.0483,0.0,0.0,3.0509,2.9756,3.0117,3.0472,3.0472,3.0505,3.0238,2.9508,3.0264,3.0372,2.9683,3.0468,3.0898,3.0898,3.1367,3.1991,3.2768,3.328,3.3984,3.4721,3.4296,3.4375,3.4766,3.4297,3.4609,3.5391,3.5391,3.5624,3.5925,3.588,3.5794,3.5733,3.5588,3.5237,3.4774,3.4353,3.3891,3.343,3.3045,3.2891,3.2891,3.2891,3.3506,3.4199,3.4199,3.4199,3.4007,3.3237,3.2699,3.216,3.1314,3.1121,3.0968,3.0494,3.0083,2.9929,3.0302,2.9564,2.8941,2.9254,2.8688,2.8068,2.7463,2.7322,2.69,2.5929,2.5492,2.5002,2.4286,2.395,2.371,2.3507,2.3477,2.3287,2.2815,2.2507,2.2173,2.1817,2.2424,2.2491,2.2018,2.2191,2.191,2.1327,2.1701,2.1527,2.0857,2.0158,2.018,1.4488,1.4646,1.4793,1.4793,0.0,0.0,0.0,0.0,0.0,0.0,0.0,0.0,0.0,0.0,0.0,0.0,0.0,0.0,2.9083,3.0352,3.1044,3.0352,3.0544,3.071,3.0744,3.0579,3.0496,3.0521,3.0607,3.0555,3.044,3.0643,3.0696,3.0586,3.0781,3.0898,3.0898,3.1953,3.2773,3.3398,3.4297,3.5156,3.5976,3.5312,3.5351,3.5976,3.5273,3.5391,3.6016,3.6016,3.5971,3.5935,3.5833,3.5724,3.5566,3.5509,3.5084,3.4507,3.4507,3.4083,3.3506,3.3506,3.3506,3.3468,3.3276,3.3814,3.4468,3.4237,3.4353,3.4468,3.4237,3.3699,3.3006,3.2199,3.1968,3.1763,3.106,3.0893,3.0804,3.0573,3.0494,3.0251,2.9699,2.9623,2.9265,2.8235,2.8081,2.7765,2.6893,2.6486,2.6068,2.5447,2.5185,2.4878,2.4554,2.4966,2.4574,2.293,2.2826,2.3056,2.3581,2.3615,2.3275,2.2617,2.2795,2.2657,2.2178,2.2652,2.2753,2.2483,2.2264,2.2186,1.4488,1.505,1.56,1.56,0.0,0.0,0.0,0.0,0.0,0.0,0.0,0.0,0.0,0.0,0.0,0.0,0.0,3.0852,3.2314,0.0,3.3891,3.3853,3.2506,3.1642,3.169,3.0974,3.0521,3.0607,3.0642,3.0359,2.962,3.0425,3.0508,2.9726,3.0469,3.0898,3.0898,3.25,3.3359,3.3398,3.4297,3.5156,3.6016,3.5937,3.5937,3.6016,3.5937,3.5937,3.6016,3.6016,3.601,3.5974,3.5833,3.567,3.552,3.5507,3.5468,3.543,3.543,3.5391,3.5315,3.5315,3.5315,3.5161,3.4353,3.4737,3.5238,3.443,3.4776,3.5238,3.4391,3.416,3.3891,3.3006,3.2814,3.2724,3.2424,3.234,3.2048,3.1049,3.1277,3.1187,2.9675,2.9813,2.9866,2.9035,2.8902,2.8503,2.7393,2.7212,2.6677,2.5282,2.5101,2.4936,2.452,2.6387,2.6656,2.448,2.4339,2.412,2.3618,2.3584,2.3568,2.3533,2.355,2.3507,2.3477,2.352,2.3212,2.2687,2.3281,2.2904,1.4488,1.5441,1.6334,1.5821,0.0,0.0,0.0,0.0,0.0,0.0,0.0,0.0,0.0,0.0,0.0,0.0,0.0,3.0814,3.2006,3.2852,3.3199,3.2699,3.2127,3.1545,3.106,3.075,3.0624,3.0646,3.0765,3.0699,3.0387,3.0702,3.0742,3.043,3.0742,3.0898,3.0898,3.207,3.2656,3.2695,3.4609,3.5664,3.6016,3.6016,3.6016,3.6016,3.6016,3.6016,3.6016,3.6016,3.5932,3.5857,3.5716,3.564,3.564,3.564,3.564,3.5631,3.5577,3.5543,3.557,3.5495,3.5493,3.543,3.5122,3.5238,3.543,3.5122,3.5238,3.543,3.5084,3.5007,3.4776,3.393,3.3699,3.3492,3.2676,3.2515,3.2336,3.1732,3.1723,3.1607,3.1012,3.0508,3.0099,2.9806,2.9305,2.8842,2.8419,2.835,2.8152,2.7584,2.7518,2.747,2.73,2.8044,2.8313,2.7771,2.7171,2.6211,2.4918,2.5579,2.5652,2.4837,2.4837,2.4822,2.4832,2.4822,2.4747,2.4521,2.4764,2.4604,1.4511,1.5515,1.6583,0.0,0.0,0.0,0.0,0.0,0.0,0.0,0.0,0.0,0.0,0.0,0.0,0.0,2.9313,3.0698,3.1583,3.216,3.2403,3.2143,3.1661,3.128,3.0994,3.0828,3.0718,3.0767,3.0857,3.0898,3.0898,3.0898,3.0898,3.0898,3.0898,3.0898,3.0898,3.1758,3.2344,3.2617,3.4648,3.5586,3.5586,3.5586,3.5742,3.6016,3.6016,3.6016,3.6016,3.6016,3.6283,3.6676,3.6508,3.6573,3.6767,3.653,3.6435,3.6425,3.6361,3.6173,3.5929,3.5894,3.5699,3.5493,3.5493,3.5493,3.5493,3.5493,3.5493,3.5493,3.5493,3.5493,3.5353,3.4737,3.4543,3.4251,3.338,3.3106,3.2902,3.236,3.2329,3.2289,3.177,3.1273,3.0797,3.0283,2.9732,2.9379,2.9379,2.9278,2.9195,2.9171,2.9283,2.9228,2.9028,2.9397,2.9705,2.9712,2.9336,2.826,2.6277,2.738,2.7375,2.5847,2.5804,2.5741,2.56,2.5751,2.5725,2.561,2.583,2.5819,1.4533,1.5191,1.6306,0.0,0.0,0.0,0.0,0.0,0.0,0.0,0.0,0.0,2.6621,0.0,0.0,2.7775,2.9313,3.0698,3.1583,3.1698,3.2027,3.289,3.1525,3.0877,3.1906,3.1217,3.0767,3.0898,3.0898,3.0898,3.0898,3.0898,3.0898,3.0898,3.0898,3.0898,3.0898,3.1758,3.2617,3.3398,3.4258,3.4687,3.4726,3.4726,3.5195,3.6016,3.6016,3.6016,3.6016,3.6016,3.7026,3.8588,3.8382,3.8634,3.901,3.8285,3.8007,3.8007,3.8007,3.743,3.6699,3.6699,3.6161,3.5532,3.5493,3.5493,3.5493,3.5493,3.5493,3.5493,3.5493,3.5493,3.5493,3.5493,3.527,3.5016,3.4773,3.4442,3.3881,3.2831,3.3256,3.3293,3.1678,3.2082,3.2082,3.0467,3.021,3.021,3.021,2.9849,2.959,2.952,2.9858,2.9803,2.9059,3.0345,3.0746,2.9758,3.0644,3.004,2.7558,2.8725,2.8415,2.6399,2.626,2.6061,2.5633,2.6105,2.6068,2.5645,2.6314,2.6243,1.547,1.6567,0.0,0.0,0.0,0.0,0.0,0.0,0.0,0.0,0.0,2.7505,2.7505,0.0,0.0,2.8621,2.9206,3.0076,3.1545,3.1271,3.1251,3.2128,3.1298,3.0763,3.1061,3.0927,3.0858,3.0898,3.0898,3.0898,3.0898,3.0898,3.0898,3.0898,3.0898,3.0898,3.0898,3.1758,3.2305,3.2578,3.3008,3.4062,3.5625,3.5625,3.5742,3.6016,3.6016,3.6016,3.6016,3.6016,3.7561,3.9935,4.0019,3.9636,3.8974,3.8423,3.821,3.82,3.8102,3.7912,3.7668,3.7627,3.7469,3.7161,3.6546,3.6353,3.6238,3.5661,3.5493,3.5493,3.5493,3.5493,3.5465,3.5254,3.4999,3.4715,3.4442,3.4269,3.4067,3.3556,3.366,3.366,3.3183,3.2816,3.2449,3.1971,3.1421,3.1024,3.098,3.0873,3.0786,3.0714,3.0794,3.0784,3.0548,3.0954,3.1089,3.0746,3.1055,3.0576,2.9272,2.9733,2.9522,2.8495,2.843,2.8271,2.7862,2.7854,2.757,2.7031,2.72,2.7171,1.6239,0.0,0.0,0.0,0.0,0.0,0.0,0.0,0.0,0.0,0.0,2.839,2.839,2.8404,0.0,2.9062,2.9511,3.0118,3.1165,3.0898,3.0792,3.1359,3.1008,3.0721,3.0771,3.0857,3.0898,3.0898,3.0898,3.0898,3.0898,3.0898,3.0898,3.0898,3.0898,3.0898,3.0898,3.1758,3.2344,3.2695,3.3203,3.4336,3.5976,3.5547,3.5586,3.6016,3.5934,3.6166,3.6555,3.6035,3.7713,4.0634,4.0655,3.9996,3.8947,3.8626,3.8373,3.8236,3.8465,3.835,3.8106,3.8436,3.8046,3.7469,3.7276,3.6738,3.6276,3.643,3.6238,3.594,3.5829,3.5752,3.5589,3.5315,3.4963,3.4634,3.4464,3.4213,3.3968,3.3823,3.3807,3.3807,3.3807,3.3403,3.2963,3.2669,3.2192,3.1746,3.1324,3.1582,3.1637,3.124,3.119,3.119,3.119,3.119,3.119,3.119,3.119,3.0965,3.0501,3.0576,3.0335,2.962,2.9946,2.9879,2.9486,2.9061,2.8996,2.9187,2.8445,2.8374,1.6999,0.0,0.0,0.0,0.0,0.0,0.0,0.0,0.0,0.0,0.0,2.9209,2.922,2.9284,2.9326,2.9334,3.0037,3.0598,3.0598,3.0603,3.0667,3.0716,3.0718,3.0769,3.0898,3.0898,3.0898,3.0898,3.0898,3.0898,3.0898,3.0898,3.0898,3.0898,3.0898,3.0937,3.1016,3.1875,3.2734,3.3516,3.4414,3.5234,3.5937,3.4922,3.5039,3.5976,3.5957,3.6559,3.7401,3.6359,3.7841,4.074,4.0576,3.994,3.912,3.894,3.8561,3.8238,3.9008,3.8777,3.8277,3.9123,3.8277,3.7084,3.7892,3.6993,3.6017,3.7516,3.7386,3.6673,3.6438,3.616,3.5836,3.5592,3.5092,3.463,3.463,3.424,3.388,3.3807,3.3844,3.388,3.3807,3.3807,3.355,3.2816,3.2706,3.2438,3.1671,3.2214,3.2336,3.1555,3.1404,3.1404,3.1393,3.1326,3.1326,3.1393,3.1393,3.136,3.1292,3.1292,3.0952,3.021,3.0983,3.1155,3.0665,2.9954,3.0273,3.1582,2.9974,2.9735,0.0,1.9068,0.0,0.0,0.0,0.0,0.0,0.0,0.0,2.949,2.9775,3.0155,3.0192,3.019,3.0242,3.0277,3.0507,3.0661,3.0661,3.0765,3.0855,3.0857,3.0858,3.0859,3.0898,3.0898,3.0898,3.0898,3.0898,3.0898,3.0898,3.0898,3.0898,3.0898,3.0898,3.1211,3.1914,3.2734,3.3555,3.4414,3.5312,3.5778,3.5837,3.5701,3.5739,3.5955,3.6762,3.7208,3.7462,3.8844,3.9898,4.0552,4.0525,4.0359,4.0106,3.9461,3.9123,3.9046,3.9238,3.9161,3.9161,3.9969,3.9546,3.8777,3.8969,3.8115,3.716,3.7504,3.7319,3.7007,3.6965,3.6432,3.5903,3.5816,3.4869,3.4005,3.4005,3.4392,3.4578,3.3917,3.4321,3.4541,3.3917,3.3807,3.3733,3.3587,3.355,3.357,3.3718,3.3872,3.387,3.3609,3.3011,3.2754,3.2923,3.2374,3.2307,3.2882,3.2949,3.2679,3.207,3.2036,3.1996,3.1806,3.2555,3.2703,3.2229,3.1446,3.1237,3.1582,3.1983,3.1448,0.0,0.0,0.0,0.0,0.0,0.0,0.0,0.0,0.0,2.9236,2.9853,3.0527,3.0545,3.0555,3.0598,3.0633,3.0716,3.0813,3.0813,3.0858,3.0898,3.0898,3.0898,3.0898,3.0898,3.0898,3.0898,3.0898,3.0898,3.0898,3.0898,3.0898,3.0898,3.0898,3.0898,3.1328,3.2187,3.2536,3.3392,3.4679,3.5096,3.5467,3.5749,3.5779,3.6048,3.644,3.6988,3.7644,3.8369,3.9309,3.9998,4.05,4.0486,4.0188,3.9623,3.9215,3.8907,3.8738,3.9161,3.9277,3.9431,4.0239,3.9662,3.8815,3.9623,3.8585,3.7343,3.8422,3.8327,3.7839,3.7549,3.7141,3.6742,3.6224,3.5342,3.4622,3.4622,3.5128,3.5385,3.4541,3.4697,3.4844,3.4468,3.4724,3.4981,3.4981,3.4981,3.4987,3.4992,3.4738,3.448,3.421,3.3623,3.3276,3.3355,3.3051,3.2983,3.3389,3.3423,3.322,3.2848,3.3152,3.3017,3.2307,3.3017,3.3465,3.3573,3.304,3.3027,3.3518,3.3336,3.3113,0.0,0.0,0.0,0.0,0.0,0.0,0.0,0.0,2.9001,2.9001,2.9719,3.0431,3.0603,3.065,3.0716,3.0723,3.0817,3.0898,3.0898,3.0898,3.0664,3.0078,3.0,3.0234,3.0859,3.0898,3.0898,3.0898,3.0898,3.0898,3.0898,3.0898,3.0898,3.0898,3.0898,3.1328,3.2148,3.2057,3.2856,3.4562,3.4652,3.504,3.5702,3.5601,3.599,3.6775,3.7027,3.7893,3.9161,3.9105,3.9662,4.0523,4.05,3.9908,3.9084,3.8945,3.8599,3.8315,3.9046,3.9277,3.9431,4.0239,3.9469,3.8507,4.0046,3.8846,3.7392,3.9452,3.9409,3.8688,3.8163,3.7958,3.7617,3.672,3.6159,3.5813,3.5665,3.6122,3.6266,3.5385,3.521,3.521,3.521,3.5826,3.6303,3.6303,3.6303,3.6186,3.5955,3.5565,3.519,3.4894,3.4249,3.3877,3.393,3.3702,3.366,3.3795,3.3795,3.3728,3.3592,3.4303,3.4066,3.2679,3.3389,3.41,3.4675,3.453,3.4834,3.5577,3.4432,3.448,0.0,0.0,0.0,0.0,0.0,0.0,0.0,0.0,2.8338,0.0,2.8896,2.9702,3.054,3.0671,3.0723,3.0858,3.0898,3.0898,3.0898,3.0898,2.9766,2.6758,2.6406,2.7578,3.0625,3.0898,3.0898,3.0898,3.0898,3.0898,3.0898,3.0898,3.0898,3.0898,3.0898,3.1248,3.2012,3.2006,3.2842,3.4503,3.5133,3.5505,3.5611,3.5519,3.5608,3.5883,3.7295,3.8028,3.8306,3.9715,4.0354,4.0508,4.0523,4.0408,4.02,3.9469,3.92,3.9123,3.9238,3.9277,3.9431,4.0239,3.9892,3.9277,4.02,3.9393,3.831,3.9384,3.92,3.8715,3.8596,3.8081,3.7529,3.736,3.7279,3.7051,3.6352,3.6772,3.7074,3.6266,3.6119,3.6119,3.6119,3.6229,3.6303,3.6303,3.6303,3.6523,3.7161,3.7174,3.7207,3.7394,3.6327,3.5735,3.5987,3.5011,3.4641,3.5284,3.5318,3.5013,3.437,3.5081,3.5081,3.4201,3.4945,3.5351,3.5453,3.5408,3.5476,3.5622,3.5419,3.5031,2.0411,0.0,0.0,0.0,0.0,0.0,0.0,0.0,2.7582,2.8076,2.809,2.8457,2.9837,3.0463,3.0817,3.0898,3.0898,3.0898,3.0898,3.0898,3.0312,2.8789,2.8594,2.8437,2.8047,2.9766,3.0898,3.0898,3.0898,3.0898,3.0898,3.0898,3.0898,3.0898,3.0817,3.1198,3.2004,3.1437,3.1972,3.3606,3.4422,3.5083,3.5534,3.5495,3.5778,3.6267,3.7,3.7847,3.8777,3.9508,4.0085,4.0508,4.0508,4.0508,4.0469,4.0085,3.9969,3.9969,3.9969,3.9969,3.9992,4.0206,3.9712,3.9141,3.9814,3.9212,3.8455,3.9139,3.9117,3.8884,3.875,3.8432,3.8175,3.8175,3.8505,3.8615,3.7808,3.7918,3.7918,3.711,3.6964,3.6964,3.6964,3.7331,3.7624,3.7624,3.7624,3.7771,3.8138,3.7917,3.7667,3.7506,3.6741,3.6157,3.595,3.545,3.525,3.5588,3.5622,3.5453,3.5148,3.5453,3.5453,3.5115,3.5453,3.5622,3.5622,3.6062,3.6299,3.6446,3.6409,3.6396,0.0,0.0,0.0,0.0,0.0,0.0,0.0,0.0,2.6505,0.0,2.726,2.7383,2.8711,2.9648,3.0234,3.0234,3.043,3.0586,3.0586,3.0742,3.0898,3.0898,3.0898,2.9883,2.7266,2.9375,3.0898,3.0898,3.0898,3.0898,3.0898,3.0898,3.0898,3.0857,3.0767,3.1019,3.1616,3.108,3.1427,3.2622,3.3699,3.4545,3.5199,3.5391,3.5853,3.643,3.6853,3.7892,3.9315,3.9508,3.9969,4.0508,4.0508,4.0508,4.0508,4.0508,4.0508,4.0508,4.0508,4.0508,4.0492,4.0269,3.9755,3.9299,3.9713,3.9277,3.8719,3.9102,3.9117,3.8961,3.875,3.8689,3.8689,3.8689,3.9313,3.9753,3.9129,3.8836,3.8505,3.7918,3.7808,3.7808,3.7808,3.8285,3.8689,3.8689,3.8689,3.8689,3.8689,3.8332,3.7964,3.765,3.7097,3.6626,3.6249,3.6251,3.6258,3.6082,3.6253,3.6344,3.6197,3.6028,3.5994,3.6197,3.5994,3.5825,3.5622,3.64,3.6886,3.7034,3.7219,3.7498,0.0,0.0,0.0,0.0,0.0,0.0,0.0,0.0,0.0,2.5568,2.6401,2.7031,2.7109,2.7851,2.8437,2.8437,2.9141,2.9687,2.9687,3.0391,3.0898,3.0898,3.0898,3.082,3.0664,3.0781,3.0898,3.0898,3.0898,3.0898,3.0898,3.0898,3.0857,3.0718,3.0716,3.0667,3.0582,3.129,3.1672,3.1775,3.343,3.4199,3.4314,3.5122,3.5532,3.5661,3.7238,3.843,3.9354,4.0123,4.0469,4.0508,4.0508,4.0508,4.0508,4.0508,4.0508,4.0508,4.0508,4.0508,4.0508,4.0469,4.0454,4.0415,4.0454,4.0005,3.9542,3.9557,3.9181,3.8719,3.8689,3.8689,3.8689,3.8689,3.9313,3.99,3.9827,3.9239,3.8689,3.8652,3.8652,3.8652,3.8652,3.8689,3.8689,3.8689,3.8689,3.8689,3.8689,3.8658,3.8658,3.8627,3.8132,3.7825,3.779,3.8073,3.7993,3.7447,3.8148,3.8298,3.7787,3.711,3.7077,3.7787,3.7077,3.6366,3.5622,3.64,3.6772,3.6852,3.755,3.7841,0.0,0.0,0.0,0.0,0.0,0.0,0.0,2.3975,2.4648,2.5506,2.5937,2.6328,2.6914,2.8164,2.8945,2.8398,2.9492,3.0039,2.8906,2.9375,2.9805,2.9805,3.0469,3.0898,3.0898,2.8867,2.8476,3.0742,2.9844,2.9725,3.0849,3.081,3.0755,3.0706,3.0619,3.0529,3.043,3.0722,3.1429,3.2468,3.3083,3.3968,3.5045,3.5353,3.5776,3.6353,3.7507,3.7969,3.7954,3.8262,3.9238,4.0508,4.0508,4.0508,4.0508,4.0508,4.0508,4.0508,4.0508,4.0508,4.0454,4.0304,4.012,3.9865,3.9671,3.9352,3.9027,3.9027,3.9232,3.946,3.946,3.9863,4.0377,4.0891,4.0855,4.0818,4.1332,4.0818,4.0267,4.0267,4.0267,4.0267,4.0267,4.0267,4.0267,4.0267,4.0267,4.0047,3.9533,3.946,3.9145,3.8271,3.8032,3.8006,3.8183,3.8353,3.8514,3.8848,3.913,3.9056,3.8436,3.816,3.8014,3.7889,3.7652,3.7381,3.711,3.7821,3.8193,3.8227,3.8971,3.9309,0.0,0.0,0.0,0.0,0.0,2.1594,2.2825,0.0,2.3867,2.5039,2.5273,2.5547,2.6406,2.7734,2.8437,2.7578,2.8633,2.918,2.8047,2.8476,2.8906,2.8906,2.9375,2.9726,2.9726,2.7266,2.664,2.8904,2.9138,2.9402,2.9916,2.9835,2.9883,3.0199,3.0363,3.0451,3.039,3.0379,3.1121,3.2506,3.2776,3.366,3.5084,3.5391,3.5801,3.6339,3.6916,3.7377,3.7762,3.8146,3.9161,4.0508,4.0508,4.0508,4.0508,4.0508,4.0508,4.0508,4.0508,4.0422,4.0262,4.0139,3.9861,3.9534,3.9339,3.9036,3.8826,3.8826,3.9363,3.99,3.99,4.0487,4.1295,4.2103,4.1882,4.1735,4.2543,4.1882,4.1111,4.1111,4.1111,4.1111,4.1111,4.1111,4.1111,4.1111,4.1111,4.0928,4.0377,4.0304,3.9987,3.907,3.8964,3.9045,3.9301,3.9552,3.9872,4.0185,4.0467,4.0288,3.9519,3.9197,3.8917,3.8633,3.8396,3.8396,3.8633,3.887,3.9005,3.9005,3.9749,4.0087,0.0,0.0,0.0,0.0,0.0,0.0,2.2639,0.0,2.2344,2.3984,2.4375,2.4648,2.5508,2.6367,2.668,2.5859,2.6445,2.7031,2.6953,2.7695,2.8242,2.8242,2.7695,2.7344,2.7344,2.6328,2.5662,2.5564,2.8762,2.9991,2.829,2.8046,2.8359,2.9201,2.9995,3.0379,3.0379,3.0379,3.0852,3.1737,3.2506,3.3353,3.4276,3.5122,3.5493,3.5504,3.558,3.6825,3.8839,3.9931,4.0392,4.0508,4.0508,4.0508,4.0508,4.0508,4.0508,4.0508,4.0508,4.0262,3.9929,4.0043,3.9861,3.9618,3.958,3.9339,3.908,3.9117,3.9505,3.9937,3.9974,4.0598,4.1368,4.2139,4.2323,4.2543,4.3314,4.2286,4.1185,4.1185,4.1185,4.1185,4.1185,4.1185,4.1185,4.1185,4.1185,4.1185,4.1148,4.1148,4.1148,4.1111,4.1111,4.1111,4.1148,4.1846,4.2044,4.1504,4.226,4.2221,4.1128,4.0273,3.9915,4.0104,3.9377,3.9377,4.0087,3.9377,3.9039,3.9039,3.9749,4.0087,2.0385,0.0,0.0,0.0,0.0,0.0,2.1169,2.1601,2.2031,2.25,2.3555,2.4453,2.4727,2.5469,2.5977,2.5742,2.6953,2.75,2.625,2.6797,2.7148,2.6484,2.6246,2.6082,2.6082,2.5788,2.5882,2.6654,2.6883,2.7868,2.9807,2.9785,2.9823,3.0062,3.0287,3.0379,3.0379,3.0379,3.1121,3.2583,3.2417,3.3301,3.5161,3.5391,3.5493,3.5608,3.7199,3.8007,3.8161,3.7256,3.8308,4.0508,4.0508,4.0508,4.0508,4.0508,4.0508,4.0508,4.0508,4.0438,4.0317,4.0139,3.9861,3.9534,3.9314,3.9045,3.8944,3.9534,4.0215,4.1038,4.2176,4.2653,4.2873,4.313,4.3167,4.3204,4.3424,4.313,4.2837,4.2837,4.2837,4.2837,4.2837,4.2837,4.2837,4.2837,4.2837,4.2616,4.2029,4.1992,4.1772,4.1185,4.1111,4.1368,4.1919,4.2176,4.2475,4.2883,4.3176,4.2958,4.2262,4.1598,4.1076,4.0685,4.0099,3.9884,4.0087,3.9884,3.9783,3.9783,3.9986,4.0087,0.0,0.0,0.0,0.0,0.0,0.0,2.1601,2.1523,2.1445,2.1836,2.2695,2.3477,2.3828,2.4297,2.4727,2.5117,2.6016,2.6445,2.5781,2.6133,2.625,2.5738,2.5611,2.5595,2.558,2.5511,2.5756,2.639,2.5873,2.6565,2.8955,2.9935,3.0237,2.989,3.0198,3.0379,3.0379,3.0379,3.1083,3.2391,3.2186,3.3032,3.4801,3.5262,3.5493,3.5647,3.8344,3.9307,3.8984,3.8001,3.8747,4.0508,4.0508,4.0508,4.0508,4.0508,4.0508,4.0469,4.0372,4.0192,3.9948,3.9759,3.9476,3.9245,3.9398,3.9312,3.9386,4.0157,4.1001,4.1882,4.3167,4.3497,4.3497,4.3497,4.3497,4.3497,4.3497,4.3497,4.3497,4.3497,4.3497,4.3497,4.3497,4.3497,4.3497,4.3497,4.3497,4.3314,4.2873,4.28,4.2616,4.2139,4.2103,4.2286,4.2763,4.28,4.2983,4.3461,4.3497,4.325,4.2693,4.2103,4.1552,4.092,4.0577,4.0466,4.0466,4.0204,4.0087,4.0087,4.0087,4.0087,0.0,0.0,0.0,0.0,0.0,0.0,2.2773,2.1875,2.1055,2.1641,2.1914,2.2227,2.293,2.3164,2.3516,2.4258,2.4414,2.4687,2.5586,2.5703,2.5662,2.5605,2.5598,2.5542,2.5489,2.5473,2.544,2.5398,2.553,2.6051,2.7072,2.9033,2.9852,2.9275,2.989,3.0302,3.0379,3.0379,3.084,3.1737,3.1866,3.2635,3.4032,3.5032,3.5493,3.5671,3.8845,4.026,4.0308,4.0446,4.0508,4.0508,4.0508,4.0508,4.0508,4.0508,4.0454,4.0406,4.0196,3.9785,3.9322,3.9149,3.8933,3.8897,3.9675,3.99,4.0084,4.1001,4.1809,4.2616,4.3314,4.3497,4.3497,4.3497,4.3497,4.3497,4.3497,4.3497,4.3497,4.3497,4.3497,4.3497,4.3497,4.3497,4.3497,4.3497,4.3497,4.3497,4.3497,4.3497,4.3497,4.3497,4.3497,4.3497,4.3497,4.3497,4.3497,4.3497,4.3497,4.3286,4.2808,4.2221,4.1682,4.1115,4.1024,4.0978,4.0978,4.0466,4.0154,4.0087,4.0154,4.0154,0.0,0.0,0.0,0.0,0.0,0.0,2.1406,2.1914,2.2344,2.1094,2.1914,2.2734,2.2227,2.3242,2.4219,2.4375,2.4414,2.4687,2.5586,2.5703,2.5662,2.5605,2.5535,2.5484,2.5447,2.536,2.533,2.5312,2.5996,2.6795,2.7698,2.8159,2.8929,3.0121,2.9621,2.9698,3.0379,3.0379,3.0956,3.202,3.1149,3.2301,3.5185,3.5378,3.5493,3.5608,3.7623,3.8715,3.9191,4.0138,4.0508,4.0508,4.0508,4.0508,4.0508,4.0508,4.0356,4.0196,4.0139,3.9937,3.9684,3.9249,3.9165,3.9277,3.9768,3.99,4.0194,4.1662,4.2653,4.3277,4.3461,4.3497,4.3497,4.3497,4.3497,4.3497,4.3497,4.3497,4.3497,4.3497,4.3497,4.3497,4.3497,4.3497,4.3497,4.3497,4.3497,4.3497,4.3497,4.3497,4.3497,4.3497,4.3497,4.3497,4.3497,4.3497,4.3497,4.3497,4.3497,4.3463,4.3321,4.2808,4.2462,4.2342,4.1853,4.1603,4.1603,4.1059,4.0528,4.0138,4.0528,4.048,0.0,0.0,0.0,2.3789,0.0,0.0,0.0,2.2539,2.2422,2.1953,2.2187,2.25,2.2539,2.3203,2.3906,2.4336,2.4023,2.4219,2.5508,2.531,2.4987,2.4911,2.5245,2.5441,2.5374,2.5312,2.5303,2.5303,2.612,2.6967,2.7852,2.8275,2.9083,3.034,2.9967,2.9967,3.0379,3.0379,3.0686,3.1239,3.0676,3.1316,3.3031,3.471,3.5493,3.5622,3.7546,3.8561,3.8883,4.0023,4.0508,4.0508,4.0508,4.0508,4.0469,4.0356,4.0233,4.0042,3.9731,3.9561,3.9401,3.9055,3.9209,3.9697,4.0331,4.1075,4.1846,4.2653,4.3167,4.3497,4.3497,4.3497,4.3497,4.3497,4.3497,4.3497,4.3497,4.3497,4.3497,4.3497,4.3497,4.3497,4.3497,4.3497,4.3497,4.3497,4.3497,4.3497,4.3497,4.3497,4.3497,4.3497,4.3497,4.3497,4.3497,4.3497,4.3497,4.3497,4.3497,4.3497,4.3497,4.2958,4.2693,4.2693,4.2139,4.1937,4.2262,4.1937,4.1508,4.0955,4.092,4.0733,0.0,0.0,0.0,0.0,0.0,2.4766,0.0,0.0,0.0,2.3047,2.2734,0.0,0.0,0.0,0.0,2.4062,0.0,0.0,0.0,2.4442,0.0,2.4456,2.4896,2.5236,2.5321,2.5322,2.5303,2.5303,2.5967,2.6736,2.7582,2.8275,2.9083,3.0121,3.016,3.0237,3.0379,3.0379,3.0405,3.0419,3.1072,3.1367,3.1494,3.4249,3.5493,3.5622,3.7637,3.8561,3.8753,3.9985,4.0508,4.0508,4.0515,4.046,4.0351,4.0139,4.002,3.9819,3.9327,3.909,3.899,3.8743,3.935,4.0267,4.1111,4.2359,4.3497,4.3497,4.3497,4.3497,4.3497,4.3497,4.3497,4.3497,4.3497,4.3497,4.3497,4.3497,4.3497,4.3497,4.3497,4.3497,4.3497,4.3497,4.3497,4.3497,4.3497,4.3497,4.3497,4.3497,4.3497,4.3497,4.3497,4.3497,4.3497,4.3497,4.3497,4.3497,4.3497,4.3497,4.3497,4.3105,4.2846,4.2846,4.2382,4.2382,4.2846,4.2732,4.2342,4.1639,4.1251,4.0967,0.0,0.0,0.0,0.0,2.5581,0.0,0.0,0.0,2.4844,2.3398,0.0,0.0,0.0,0.0,0.0,0.0,0.0,0.0,2.25,2.2786,2.3727,2.5242,2.4857,2.468,2.5328,2.5339,2.5303,2.5303,2.538,2.5851,2.6697,2.6813,2.7621,2.9198,2.9236,2.9621,3.0379,3.0379,3.0405,3.0433,3.3481,3.4918,3.4916,3.5301,3.5493,3.557,3.6839,3.7647,3.82,3.9815,4.0508,4.0492,4.0498,4.0291,3.9967,3.9949,3.9613,3.9223,3.9283,3.9036,3.875,3.8689,3.9753,4.1111,4.1919,4.28,4.3497,4.3497,4.3497,4.3497,4.3497,4.3497,4.3497,4.3497,4.3497,4.3497,4.3497,4.3497,4.3497,4.3497,4.3497,4.3497,4.3497,4.3497,4.3497,4.3497,4.3497,4.3497,4.3497,4.3497,4.3497,4.3497,4.3497,4.3497,4.3497,4.3497,4.3497,4.3497,4.3497,4.3497,4.3497,4.3463,4.3428,4.3428,4.3356,4.3356,4.3428,4.2921,4.2103,4.0978,4.1473,4.115,0.0,0.0,0.0,0.0,0.0,0.0,2.4783,0.0,2.4793,0.0,0.0,0.0,0.0,0.0,0.0,0.0,2.4445,2.4245,0.0,0.0,2.3237,2.3992,2.419,2.4561,2.5328,2.5339,2.5303,2.5303,2.5303,2.5687,2.6544,2.6621,2.7351,2.9044,2.9083,2.9506,3.0379,3.1044,3.1379,3.1418,3.4186,3.5509,3.5493,3.5493,3.5493,3.557,3.7031,3.7815,3.8123,3.9815,4.0508,4.0476,4.0499,4.0405,4.0227,3.985,3.9573,3.9339,3.9043,3.9246,3.9748,4.0524,4.1258,4.1956,4.2763,4.3204,4.3497,4.3497,4.3497,4.3497,4.3497,4.3497,4.3497,4.3497,4.3497,4.3497,4.3497,4.3497,4.3497,4.3497,4.3497,4.3497,4.3497,4.3497,4.3497,4.3497,4.3497,4.3497,4.3497,4.3497,4.3497,4.3497,4.3497,4.3497,4.3497,4.3497,4.3497,4.3497,4.3497,4.3497,4.3497,4.3497,4.3497,4.3497,4.3497,4.3718,4.4195,4.3944,4.348,4.2763,4.1716,4.1256,2.5493,0.0,0.0,0.0,0.0,0.0,0.0,0.0,0.0,0.0,0.0,0.0,0.0,0.0,0.0,0.0,0.0,2.4677,0.0,2.3908,0.0,0.0,2.4179,2.4677,2.5057,2.5224,2.5303,2.5303,2.5303,2.5572,2.6197,2.6467,2.7274,2.8736,2.8967,2.9506,3.0379,3.1237,3.1968,3.2571,3.4225,3.5187,3.5493,3.5493,3.5493,3.5584,3.7276,3.8007,3.8123,3.9714,4.0389,4.0394,4.0469,4.0418,4.0212,3.9954,3.976,3.9514,3.8915,3.9792,4.1282,4.2062,4.2286,4.2433,4.324,4.3497,4.3497,4.3497,4.3497,4.3497,4.3497,4.3497,4.3497,4.3497,4.3497,4.3497,4.3497,4.3497,4.3497,4.3497,4.3497,4.3497,4.3497,4.3497,4.3497,4.3497,4.3497,4.3497,4.3497,4.3497,4.3497,4.3497,4.3497,4.3497,4.3497,4.3497,4.3497,4.3497,4.3497,4.3497,4.3497,4.3497,4.3497,4.3497,4.3718,4.4121,4.4709,4.4564,4.4421,4.4031,4.2496,4.1903,0.0,0.0,0.0,2.5641,0.0,0.0,0.0,0.0,2.651,0.0,0.0,0.0,0.0,0.0,0.0,0.0,0.0,0.0,0.0,0.0,0.0,2.5328,2.5383,0.0,2.429,2.4885,2.5303,2.5303,2.5303,2.5303,2.5341,2.6159,2.7005,2.789,2.8698,2.9506,3.0379,3.0417,3.1545,3.3763,3.3801,3.4443,3.5493,3.5493,3.5493,3.5584,3.7276,3.8007,3.8108,3.9544,4.0101,4.0138,4.0382,4.0117,3.9708,4.0271,4.0087,3.951,3.892,4.0772,4.3291,4.2537,4.2286,4.2433,4.324,4.3497,4.3497,4.3497,4.3497,4.3497,4.3497,4.3497,4.3497,4.3497,4.3497,4.3497,4.3497,4.3497,4.3497,4.3497,4.3497,4.3497,4.3497,4.3497,4.3497,4.3497,4.3497,4.3497,4.3497,4.3497,4.3497,4.3497,4.3497,4.3497,4.3497,4.3497,4.3497,4.3497,4.3497,4.3497,4.3497,4.3497,4.3497,4.3497,4.4268,4.4672,4.4709,4.4283,4.4121,4.4112,4.4031,4.338,2.5352,0.0,2.5754,2.5483,0.0,0.0,0.0,0.0,0.0,0.0,0.0,0.0,0.0,0.0,0.0,0.0,0.0,0.0,0.0,0.0,2.4855,2.4587,0.0,0.0,0.0,2.5194,2.5303,2.5303,2.5303,2.5303,2.5303,2.612,2.7005,2.7852,2.8659,2.9506,3.0379,3.0968,3.1891,3.3211,3.3789,3.4545,3.5493,3.5493,3.5815,3.6339,3.7277,3.8014,3.8609,3.9426,3.9775,3.9769,3.9852,3.9773,3.956,3.9384,3.9184,3.929,4.1209,4.2573,4.349,4.3201,4.3094,4.313,4.3424,4.3497,4.3497,4.3497,4.3497,4.3497,4.3497,4.3497,4.3497,4.3497,4.3497,4.3497,4.3497,4.3497,4.3497,4.3497,4.3497,4.3497,4.3497,4.3497,4.3497,4.3497,4.3497,4.3497,4.3497,4.3497,4.3497,4.3497,4.3497,4.3497,4.3497,4.3497,4.3497,4.3497,4.3497,4.3497,4.3497,4.3497,4.3497,4.3497,4.4305,4.4748,4.488,4.5276,4.5356,4.4998,4.4998,4.4302,2.5303,2.5303,2.5332,2.5335,2.5352,0.0,2.5343,0.0,0.0,0.0,0.0,0.0,0.0,0.0,0.0,0.0,0.0,0.0,0.0,2.5303,0.0,2.4582,0.0,0.0,0.0,2.5167,2.5303,2.5303,2.5303,2.5303,2.5303,2.5851,2.6697,2.7852,2.839,2.9236,3.0379,3.1275,3.2083,3.2891,3.3776,3.4661,3.5493,3.5398,3.5814,3.6604,3.7109,3.7831,3.8684,3.9194,3.9414,3.9402,3.9314,3.9645,4.0036,3.9045,3.9435,4.0695,4.2783,4.3493,4.3497,4.3497,4.3497,4.3497,4.3497,4.3497,4.3497,4.3497,4.3497,4.3497,4.3497,4.3497,4.3497,4.3497,4.3497,4.3497,4.3497,4.3497,4.3497,4.3497,4.3497,4.3497,4.3497,4.3497,4.3497,4.3497,4.3497,4.3497,4.3497,4.3497,4.3497,4.3497,4.3497,4.3497,4.3497,4.3497,4.3497,4.3497,4.3497,4.3497,4.3497,4.3497,4.3754,4.4342,4.4856,4.5443,4.619,4.6248,4.6092,4.5815,4.5372,4.4687]}]]